[[{"header":{"parameterUnit":"m.s-1","parameterCategory":1,"la1":30.6,"la2":29.2853,"lo1":-89.7004,"lo2":-87.6739,"dy":0.0162,"dx":0.0183,"nx":112,"ny":82,"refTime":"2023-09-25T12:00:00:Z","depth":0,"parameterNumber":2,"parameterNumberName":"U-component_of_WINDS"},"data":[0.0,0.0,0.0,0.0,0.0,0.0,0.0,0.0,0.0,0.0,0.0,0.0,0.0,0.0,0.0,0.0,0.0,0.0,0.0,0.0,0.0,0.0,0.0,0.0,0.0,0.0,0.0,0.0,0.0,0.0,0.0,0.0,0.0,0.0,0.0,0.0,0.0,0.0,0.0,0.0,0.0,0.0,0.0,0.0,0.0,0.0,0.0,0.0,0.0,0.0,0.0,0.0,0.0,0.0,0.0,0.0,0.0,0.0,0.0,0.0,0.0,0.0,0.0,0.0,0.0,0.0,0.0,0.0,0.0,0.0,0.0,0.0,0.0,0.0,0.0,0.0,0.0,0.0,0.0,0.0,0.0,0.0,0.0,0.0,0.0,0.0,0.0,0.0,0.0,0.0,1.9629,1.984,2.005,2.0224,2.0264,2.0277,2.029,2.033,0.0,0.0,0.0,0.0,0.0,0.0,0.0,0.0,0.0,0.0,0.0,0.0,0.0,0.0,0.0,0.0,0.0,0.0,0.0,0.0,0.0,0.0,0.0,0.0,0.0,0.0,0.0,0.0,0.0,0.0,0.0,0.0,0.0,0.0,0.0,0.0,0.0,0.0,0.0,0.0,0.0,0.0,0.0,0.0,0.0,0.0,0.0,0.0,0.0,0.0,0.0,0.0,0.0,0.0,0.0,0.0,0.0,0.0,0.0,0.0,0.0,0.0,0.0,0.0,0.0,0.0,0.0,0.0,0.0,0.0,0.0,0.0,0.0,0.0,0.0,0.0,0.0,0.0,0.0,0.0,0.0,0.0,0.0,0.0,0.0,0.0,0.0,0.0,0.0,0.0,0.0,0.0,0.0,0.0,0.0,0.0,0.0,0.0,0.0,0.0,0.0,0.0,0.0,0.0,2.009,2.013,2.0184,2.0304,2.0588,2.0615,2.0708,2.0962,0.0,0.0,0.0,0.0,0.0,0.0,0.0,0.0,0.0,0.0,0.0,0.0,0.0,0.0,0.0,0.0,0.0,0.0,0.0,0.0,0.0,0.0,0.0,0.0,0.0,0.0,0.0,0.0,0.0,0.0,0.0,0.0,0.0,0.0,0.0,0.0,0.0,0.0,0.0,0.0,0.0,0.0,0.0,0.0,0.0,0.0,0.0,0.0,0.0,0.0,0.0,0.0,0.0,0.0,0.0,0.0,0.0,0.0,0.0,0.0,0.0,0.0,0.0,0.0,0.0,0.0,0.0,0.0,0.0,0.0,0.0,0.0,0.0,0.0,0.0,0.0,0.0,0.0,0.0,0.0,0.0,0.0,0.0,0.0,0.0,0.0,0.0,0.0,0.0,0.0,0.0,0.0,0.0,0.0,0.0,0.0,0.0,0.0,0.0,0.0,0.0,0.0,0.0,2.0294,2.0468,2.0468,2.0615,2.0762,2.0895,2.0909,2.0962,2.1096,2.0824,0.0,0.0,0.0,0.0,0.0,0.0,0.0,0.0,0.0,0.0,0.0,0.0,0.0,0.0,0.0,0.0,0.0,0.0,0.0,0.0,0.0,0.0,0.0,0.0,0.0,0.0,0.0,0.0,0.0,0.0,0.0,0.0,0.0,0.0,0.0,0.0,0.0,0.0,0.0,0.0,0.0,0.0,0.0,0.0,0.0,0.0,0.0,0.0,0.0,0.0,0.0,0.0,0.0,0.0,0.0,0.0,0.0,0.0,0.0,0.0,0.0,0.0,0.0,0.0,0.0,0.0,0.0,0.0,0.0,0.0,0.0,0.0,0.0,0.0,0.0,0.0,0.0,0.0,0.0,0.0,0.0,0.0,0.0,0.0,0.0,0.0,0.0,0.0,0.0,0.0,0.0,0.0,0.0,0.0,0.0,0.0,0.0,0.0,0.0,0.0,0.0,0.0,2.0641,2.0775,2.0775,2.0975,2.1109,2.1109,2.1109,2.1109,2.1109,2.1109,0.0,0.0,0.0,0.0,0.0,0.0,0.0,0.0,0.0,0.0,0.0,0.0,0.0,0.0,0.0,0.0,0.0,0.0,0.0,0.0,0.0,0.0,0.0,0.0,0.0,0.0,0.0,0.0,0.0,0.0,0.0,0.0,0.0,0.0,0.0,0.0,0.0,0.0,0.0,0.0,0.0,0.0,0.0,0.0,0.0,0.0,0.0,0.0,0.0,0.0,0.0,0.0,0.0,0.0,0.0,0.0,0.0,0.0,0.0,0.0,0.0,0.0,0.0,0.0,0.0,0.0,0.0,0.0,0.0,0.0,0.0,0.0,0.0,0.0,0.0,0.0,0.0,0.0,0.0,0.0,0.0,0.0,0.0,0.0,0.0,0.0,0.0,0.0,0.0,0.0,0.0,0.0,0.0,0.0,0.0,0.0,0.0,0.0,0.0,0.0,0.0,0.0,2.1069,2.1082,2.1082,2.1096,2.1109,2.1109,2.1109,2.1109,2.1109,2.1109,0.0,0.0,0.0,0.0,0.0,0.0,0.0,0.0,0.0,0.0,0.0,0.0,0.0,0.0,0.0,0.0,0.0,0.0,0.0,0.0,0.0,0.0,0.0,0.0,0.0,0.0,0.0,0.0,0.0,0.0,0.0,0.0,0.0,0.0,0.0,0.0,0.0,0.0,0.0,0.0,0.0,0.0,0.0,0.0,0.0,0.0,0.0,0.0,0.0,0.0,0.0,0.0,0.0,0.0,0.0,0.0,0.0,0.0,0.0,0.0,0.0,0.0,0.0,0.0,0.0,0.0,0.0,0.0,0.0,0.0,0.0,0.0,0.0,0.0,0.0,0.0,0.0,0.0,0.0,0.0,0.0,0.0,0.0,0.0,0.0,0.0,0.0,0.0,0.0,0.0,0.0,0.0,0.0,0.0,0.0,0.0,0.0,0.0,0.0,0.0,0.0,0.0,2.1109,2.1176,0.0,2.1422,2.1489,2.1643,2.1657,2.1657,2.1657,0.0,0.0,0.0,0.0,0.0,0.0,0.0,0.0,0.0,0.0,0.0,0.0,0.0,0.0,0.0,0.0,0.0,0.0,0.0,0.0,0.0,0.0,0.0,0.0,0.0,0.0,0.0,0.0,0.0,0.0,0.0,0.0,0.0,0.0,0.0,0.0,0.0,0.0,0.0,0.0,0.0,0.0,0.0,0.0,0.0,0.0,0.0,0.0,0.0,0.0,0.0,0.0,0.0,0.0,0.0,0.0,0.0,0.0,0.0,0.0,0.0,0.0,0.0,0.0,0.0,0.0,0.0,0.0,0.0,0.0,0.0,0.0,0.0,0.0,0.0,0.0,0.0,0.0,0.0,0.0,0.0,0.0,0.0,0.0,0.0,0.0,0.0,0.0,0.0,0.0,0.0,0.0,0.0,0.0,0.0,0.0,0.0,0.0,0.0,0.0,0.0,0.0,2.1256,2.1323,2.147,0.0,2.1729,2.1796,2.1964,2.1991,2.1991,2.1991,0.0,0.0,0.0,0.0,0.0,0.0,0.0,0.0,0.0,0.0,0.0,0.0,0.0,0.0,0.0,0.0,0.0,0.0,0.0,0.0,0.0,0.0,0.0,0.0,0.0,0.0,0.0,0.0,0.0,0.0,0.0,0.0,0.0,0.0,0.0,0.0,0.0,0.0,0.0,0.0,0.0,0.0,0.0,0.0,0.0,0.0,0.0,0.0,0.0,0.0,0.0,0.0,0.0,0.0,0.0,0.0,0.0,0.0,0.0,0.0,0.0,0.0,0.0,0.0,0.0,0.0,0.0,0.0,0.0,0.0,0.0,0.0,0.0,0.0,0.0,0.0,0.0,0.0,0.0,0.0,0.0,0.0,0.0,0.0,0.0,0.0,0.0,0.0,0.0,0.0,0.0,0.0,0.0,0.0,0.0,0.0,0.0,0.0,0.0,0.0,0.0,0.0,2.1582,2.1836,2.1991,2.1991,2.1991,2.2024,2.1991,2.1991,2.1991,0.0,0.0,0.0,0.0,0.0,0.0,0.0,0.0,0.0,0.0,0.0,0.0,0.0,0.0,0.0,0.0,0.0,0.0,0.0,0.0,0.0,0.0,0.0,0.0,0.0,0.0,0.0,0.0,0.0,0.0,0.0,0.0,0.0,0.0,0.0,0.0,0.0,0.0,0.0,0.0,0.0,0.0,0.0,0.0,0.0,0.0,0.0,0.0,0.0,0.0,0.0,0.0,0.0,0.0,0.0,0.0,0.0,0.0,0.0,0.0,0.0,0.0,0.0,0.0,0.0,0.0,0.0,0.0,0.0,0.0,0.0,0.0,0.0,0.0,0.0,0.0,0.0,0.0,0.0,0.0,0.0,0.0,0.0,0.0,0.0,0.0,0.0,0.0,0.0,0.0,0.0,0.0,0.0,0.0,0.0,0.0,0.0,0.0,0.0,0.0,0.0,0.0,0.0,2.189,2.197,2.2071,2.2271,2.2298,2.2378,2.2612,2.2639,2.2639,2.2639,0.0,0.0,0.0,0.0,0.0,0.0,0.0,0.0,0.0,0.0,0.0,0.0,0.0,0.0,0.0,0.0,0.0,0.0,0.0,0.0,0.0,0.0,0.0,0.0,0.0,0.0,0.0,0.0,0.0,0.0,0.0,0.0,0.0,0.0,0.0,0.0,0.0,0.0,0.0,0.0,0.0,0.0,0.0,0.0,0.0,0.0,0.0,0.0,0.0,0.0,0.0,0.0,0.0,0.0,0.0,0.0,0.0,0.0,0.0,0.0,0.0,0.0,0.0,0.0,0.0,0.0,0.0,0.0,0.0,0.0,0.0,0.0,0.0,0.0,0.0,0.0,0.0,0.0,0.0,0.0,0.0,0.0,0.0,0.0,0.0,0.0,0.0,0.0,0.0,0.0,0.0,0.0,0.0,0.0,0.0,0.0,0.0,0.0,0.0,0.0,0.0,0.0,2.2164,2.2291,2.2439,2.2579,2.2592,2.2672,2.288,2.2893,2.2893,2.2893,0.0,0.0,0.0,0.0,0.0,0.0,0.0,0.0,0.0,0.0,0.0,0.0,0.0,0.0,0.0,0.0,0.0,0.0,0.0,0.0,0.0,0.0,0.0,0.0,0.0,0.0,0.0,0.0,0.0,0.0,0.0,0.0,0.0,0.0,0.0,0.0,0.0,0.0,0.0,0.0,0.0,0.0,0.0,0.0,0.0,0.0,0.0,0.0,0.0,0.0,0.0,0.0,0.0,0.0,0.0,0.0,0.0,0.0,0.0,0.0,0.0,0.0,0.0,0.0,0.0,0.0,0.0,0.0,0.0,0.0,0.0,0.0,0.0,0.0,0.0,0.0,0.0,0.0,0.0,0.0,0.0,0.0,0.0,0.0,0.0,0.0,0.0,0.0,0.0,0.0,0.0,0.0,0.0,0.0,0.0,0.0,0.0,0.0,0.0,0.0,0.0,0.0,2.2458,2.2699,2.2893,2.2893,2.2893,2.2893,2.2893,2.292,2.2934,2.2934,0.0,0.0,0.0,0.0,0.0,0.0,0.0,0.0,0.0,0.0,0.0,0.0,0.0,0.0,0.0,0.0,0.0,0.0,0.0,0.0,0.0,0.0,0.0,0.0,0.0,0.0,0.0,0.0,0.0,0.0,0.0,0.0,0.0,0.0,0.0,0.0,0.0,0.0,0.0,0.0,0.0,0.0,0.0,0.0,0.0,0.0,0.0,0.0,0.0,0.0,0.0,0.0,0.0,0.0,0.0,0.0,0.0,0.0,0.0,0.0,1.824,1.8348,0.0,0.0,0.0,0.0,0.0,0.0,0.0,0.0,0.0,0.0,0.0,0.0,0.0,0.0,0.0,0.0,0.0,0.0,0.0,0.0,0.0,0.0,0.0,0.0,0.0,0.0,0.0,0.0,0.0,0.0,0.0,0.0,0.0,0.0,0.0,0.0,0.0,0.0,0.0,0.0,2.28,2.2853,2.2893,2.2893,2.2893,2.2893,2.2893,2.3086,2.322,2.322,2.3447,0.0,0.0,0.0,0.0,0.0,0.0,0.0,0.0,0.0,0.0,0.0,0.0,0.0,0.0,0.0,0.0,0.0,0.0,0.0,0.0,0.0,0.0,0.0,0.0,0.0,0.0,0.0,0.0,0.0,0.0,0.0,0.0,0.0,0.0,0.0,0.0,0.0,0.0,0.0,0.0,0.0,0.0,0.0,0.0,0.0,0.0,0.0,0.0,0.0,0.0,0.0,0.0,0.0,0.0,0.0,0.0,0.0,0.0,0.0,1.866,1.8551,0.0,0.0,0.0,0.0,0.0,0.0,0.0,0.0,0.0,0.0,0.0,0.0,0.0,0.0,0.0,0.0,0.0,0.0,0.0,0.0,0.0,0.0,0.0,0.0,0.0,0.0,0.0,0.0,0.0,0.0,0.0,0.0,0.0,0.0,0.0,0.0,0.0,0.0,0.0,0.0,2.31,2.3086,2.3033,2.2907,2.2893,2.2893,2.2893,2.3153,2.3292,2.3292,2.3607,0.0,0.0,0.0,0.0,0.0,0.0,0.0,0.0,0.0,0.0,0.0,0.0,0.0,0.0,0.0,0.0,0.0,0.0,0.0,0.0,0.0,0.0,0.0,0.0,0.0,0.0,0.0,0.0,0.0,0.0,0.0,0.0,0.0,0.0,0.0,0.0,0.0,0.0,0.0,0.0,0.0,0.0,0.0,0.0,0.0,0.0,0.0,0.0,0.0,0.0,0.0,0.0,0.0,1.9009,1.9122,1.9122,1.891,1.9194,1.9829,1.9112,1.8798,1.8798,1.8798,0.0,0.0,0.0,0.0,0.0,0.0,0.0,0.0,0.0,0.0,0.0,0.0,0.0,0.0,0.0,0.0,0.0,0.0,0.0,0.0,0.0,0.0,2.1729,2.2024,2.2058,2.2071,2.2124,0.0,0.0,0.0,0.0,0.0,0.0,0.0,0.0,0.0,0.0,0.0,2.3332,2.3292,2.3207,2.2934,2.2893,2.2893,2.2893,2.3153,2.3292,2.3292,2.3661,2.3857,0.0,0.0,0.0,0.0,0.0,0.0,0.0,0.0,0.0,0.0,0.0,0.0,0.0,0.0,0.0,0.0,0.0,0.0,0.0,0.0,0.0,0.0,0.0,0.0,0.0,0.0,0.0,0.0,0.0,0.0,0.0,0.0,1.8015,1.8249,0.0,0.0,0.0,0.0,0.0,0.0,0.0,0.0,0.0,0.0,0.0,0.0,0.0,1.9042,1.9338,1.9564,1.9776,1.997,2.0,2.003,2.003,2.0,2.004,2.0137,2.004,0.0,1.997,1.997,0.0,0.0,0.0,0.0,0.0,0.0,0.0,0.0,0.0,0.0,0.0,0.0,0.0,0.0,0.0,0.0,0.0,0.0,0.0,0.0,0.0,0.0,2.2004,2.2298,2.2365,2.2432,2.2719,2.2539,2.2432,2.2733,2.2993,0.0,0.0,0.0,0.0,0.0,0.0,0.0,2.3332,2.3292,2.3207,2.2934,2.2893,2.2893,2.2893,2.3153,2.3292,2.3292,2.3848,2.4035,2.3817,2.4008,0.0,0.0,0.0,0.0,0.0,0.0,0.0,0.0,0.0,0.0,0.0,0.0,0.0,0.0,0.0,0.0,0.0,0.0,0.0,0.0,0.0,0.0,0.0,0.0,0.0,0.0,0.0,0.0,0.0,1.8332,1.8496,1.8468,1.8493,1.849,0.0,0.0,0.0,0.0,0.0,0.0,0.0,0.0,0.0,1.9466,1.976,1.9973,2.0137,2.0388,2.0601,2.0691,2.0691,2.0691,2.0691,2.0691,2.0815,2.1007,2.1007,2.1069,2.1162,2.0477,2.0197,2.0197,0.0,0.0,0.0,0.0,2.0691,2.0744,2.1096,2.1216,2.1216,2.1216,0.0,0.0,0.0,0.0,0.0,0.0,0.0,2.2017,2.2191,2.2231,2.2298,2.2592,2.2672,2.2699,2.2867,2.2786,2.2752,0.0,2.3367,2.3674,2.3968,0.0,0.0,0.0,0.0,2.3901,2.3621,2.3434,2.3207,2.2934,2.2893,2.2893,2.2893,2.3153,2.3292,2.3292,2.3728,2.3981,2.4008,2.4142,2.4222,0.0,0.0,0.0,0.0,0.0,0.0,0.0,0.0,0.0,0.0,0.0,0.0,0.0,0.0,0.0,0.0,0.0,0.0,0.0,0.0,0.0,0.0,0.0,0.0,0.0,0.0,0.0,0.0,1.8764,1.8874,1.8839,1.8824,1.8851,0.0,0.0,0.0,0.0,0.0,0.0,2.0304,2.0317,2.0344,2.0424,2.0748,2.0927,2.0927,2.1189,2.1336,2.1336,2.1336,2.1336,2.1336,2.1336,2.1456,2.1703,2.1703,2.1823,2.1911,2.1042,2.065,2.065,2.065,2.065,2.0704,2.1176,2.1336,2.1403,2.183,2.1991,2.1991,2.1991,2.2031,2.2098,2.2098,0.0,0.0,0.0,0.0,2.2291,2.2472,2.2539,2.249,2.2361,2.2672,2.2911,2.2518,2.2844,2.3268,0.0,2.35,2.3754,2.4035,0.0,0.0,0.0,0.0,2.4128,2.395,2.3688,2.3434,2.3161,2.3134,2.3134,2.3134,2.33,2.3447,2.3447,2.3714,2.3981,2.4195,2.4275,2.4422,2.4599,0.0,0.0,0.0,0.0,0.0,0.0,0.0,0.0,0.0,0.0,0.0,0.0,0.0,0.0,0.0,0.0,0.0,0.0,0.0,0.0,0.0,0.0,0.0,0.0,0.0,0.0,0.0,0.0,0.0,1.9666,1.9733,0.0,0.0,0.0,0.0,2.0157,2.017,2.0304,2.0672,2.0686,2.0775,2.1056,2.1381,2.1542,2.1542,2.1836,2.1937,2.1937,2.1937,2.1937,2.1937,2.1937,2.1951,2.1964,2.1964,2.201,2.201,2.1924,2.1897,2.1897,2.1897,2.1897,2.1897,2.1924,2.1937,2.1951,2.1977,2.1991,2.1991,2.1991,2.2178,2.2392,2.2392,2.2592,0.0,0.0,2.2853,2.2853,2.2867,2.288,2.249,2.1044,2.2033,2.2902,2.1474,2.2752,2.3968,0.0,2.3305,2.3447,2.3777,0.0,2.3924,2.4182,2.4209,2.4195,2.4182,2.4168,2.4048,2.379,2.3763,2.3763,2.3763,2.3777,2.379,2.379,2.4022,2.4195,2.4209,2.4426,2.4586,2.4599,2.4599,0.0,0.0,0.0,0.0,0.0,0.0,0.0,0.0,0.0,0.0,0.0,0.0,0.0,0.0,0.0,0.0,0.0,0.0,0.0,0.0,0.0,0.0,0.0,0.0,0.0,0.0,0.0,0.0,2.0024,2.005,0.0,2.0494,2.0521,2.0668,2.1087,2.1114,2.1248,2.1529,2.1555,2.1563,2.167,2.1951,2.2238,2.2425,2.2699,2.2939,2.3174,2.3174,2.3174,2.3174,2.3174,2.3174,2.3174,2.3174,2.3174,2.3174,2.3174,2.2719,2.1991,2.1991,2.1991,2.2004,2.2191,2.2258,2.2298,2.2519,2.2586,2.2586,2.2586,2.2653,2.2739,2.2939,2.3073,2.2985,2.2102,2.1857,2.1645,2.0592,2.0343,2.02,1.9629,2.0781,2.1864,2.1329,2.2647,2.3861,2.3647,2.3915,2.4172,2.4279,2.4329,2.4369,2.4426,2.4329,2.4209,2.4209,2.4035,2.3924,2.3817,2.3803,2.3803,2.3803,2.3803,2.3884,2.4035,2.3968,2.4088,2.4426,2.4359,2.4412,2.4599,2.4599,2.4599,0.0,0.0,0.0,0.0,0.0,0.0,0.0,0.0,0.0,0.0,0.0,0.0,0.0,0.0,0.0,0.0,0.0,0.0,0.0,0.0,0.0,0.0,0.0,0.0,0.0,2.029,2.0384,2.049,2.0584,2.0788,2.1127,2.1154,2.1315,2.1703,2.1729,2.1903,2.2291,2.2318,2.2412,2.2612,2.2779,2.2966,2.3201,2.338,2.3581,2.3803,2.3803,2.3803,2.3803,2.3803,2.3857,2.3915,2.3915,2.3968,2.4062,2.4062,2.3594,2.2859,2.2672,2.2626,2.2653,2.2806,2.2873,2.2899,2.3134,2.3201,2.3097,2.2527,2.2353,2.2274,2.1938,2.1811,2.1635,2.0755,2.0546,2.035,1.9281,1.9053,1.8959,1.8443,1.9613,2.0686,2.0206,2.186,2.3501,2.3501,2.4019,2.4452,2.4452,2.4532,2.4639,2.4733,2.4623,2.4529,2.4636,2.4476,2.4356,2.4356,2.4356,2.4356,2.4356,2.4356,2.4436,2.4636,2.4462,2.4529,2.4879,2.4743,2.4743,2.4893,2.4799,2.4783,2.4783,0.0,0.0,0.0,0.0,0.0,0.0,0.0,0.0,0.0,0.0,0.0,0.0,0.0,0.0,0.0,0.0,0.0,0.0,0.0,0.0,0.0,0.0,0.0,2.033,2.0535,2.0846,2.1109,2.1422,2.1716,2.201,2.2004,2.2017,2.2031,2.2031,2.2318,2.2893,2.292,2.3201,2.3803,2.3817,2.383,2.3843,2.3843,2.3821,2.3785,2.3821,2.3821,2.3785,2.3821,2.3981,2.4249,2.4249,2.4409,2.4626,2.4626,2.4626,2.4572,2.4022,2.3794,2.3723,2.3723,2.3723,2.3687,2.3687,2.3687,2.3402,2.1786,2.1234,2.0945,1.9413,1.893,1.894,1.8868,1.9011,1.9144,1.9117,1.9211,1.9012,1.7483,1.8517,1.9447,1.8019,2.0378,2.2802,2.2814,2.3542,2.4189,2.4249,2.4476,2.4719,2.505,2.509,0.0,2.5478,2.5518,2.5518,2.5518,2.5518,2.5518,2.5518,2.5518,2.5531,2.5545,2.5545,2.5545,2.5545,2.5531,2.5518,2.5518,2.5237,2.509,2.509,0.0,0.0,0.0,0.0,0.0,0.0,0.0,0.0,0.0,0.0,0.0,0.0,0.0,0.0,0.0,0.0,0.0,0.0,0.0,0.0,0.0,2.1697,2.1617,2.1274,2.1475,2.1657,2.1737,2.1817,2.201,2.2271,2.2498,2.2712,2.2939,2.3153,2.3388,2.3549,2.3549,2.3723,2.4075,2.4088,2.4289,2.4753,2.4753,2.4214,2.3178,2.441,2.4372,2.3178,2.446,2.5077,2.5157,2.5157,2.5197,2.5239,2.5239,2.5239,2.5173,2.4623,2.3613,2.2485,2.2485,2.1735,2.0671,2.0671,2.0671,2.0597,2.0139,1.999,1.9949,1.9698,1.9638,1.9416,1.8433,1.8213,1.799,1.6841,1.6573,1.649,1.6066,1.7232,1.8319,1.7936,1.9493,2.1062,2.1199,2.2686,2.4173,2.4997,2.5211,2.5266,2.5384,2.5398,0.0,2.5504,2.5518,2.5518,2.5518,2.5518,2.5518,2.5518,2.5705,2.5957,2.6132,2.6146,2.6146,2.6146,2.5984,2.5732,2.5518,2.5438,2.5398,0.0,0.0,0.0,0.0,0.0,0.0,0.0,0.0,0.0,0.0,0.0,0.0,0.0,0.0,0.0,0.0,0.0,0.0,0.0,0.0,0.0,0.0,2.2084,2.2151,2.2144,2.2171,2.2218,2.2372,2.2472,2.2659,2.2953,2.3174,2.3348,2.35,2.3781,2.4008,2.4128,2.4285,2.4449,2.4743,2.4756,2.4917,2.5251,2.5264,2.4837,2.4022,2.5163,2.5177,2.4237,2.5347,2.5504,2.4904,2.4904,2.4535,2.3949,2.3949,2.3949,2.4034,0.0,0.0,0.0,0.0,2.2397,2.0904,2.0904,2.0446,1.973,1.9039,1.8847,1.8713,1.8232,1.8076,1.7919,1.7225,1.7062,1.6909,1.6064,1.5902,1.5959,1.5959,1.6687,1.7371,1.7371,1.8663,1.9866,1.9988,2.2318,0.0,2.5193,2.5846,2.6253,2.6253,2.6253,2.6253,2.6253,2.6253,2.6253,2.6253,2.6253,2.6253,2.6253,2.6439,0.0,0.0,0.0,2.68,2.68,2.664,0.0,0.0,0.0,2.6027,2.6027,2.5945,0.0,0.0,2.5291,2.5264,0.0,0.0,0.0,0.0,0.0,0.0,0.0,0.0,0.0,0.0,0.0,0.0,0.0,0.0,0.0,0.0,2.2325,2.2619,2.2907,2.2712,2.2672,2.2974,2.3207,2.3487,2.3777,2.387,2.391,2.391,2.4168,2.4462,2.4679,2.4983,0.0,0.0,0.0,2.5304,2.5344,2.5177,2.4959,2.4804,2.5296,2.5427,2.523,2.5687,2.512,2.3831,2.3831,2.3047,2.1797,2.1797,2.1797,2.2013,2.3997,2.4804,2.4765,2.4572,2.3538,2.219,2.219,0.0,0.0,1.8233,1.7765,1.7487,1.6067,1.5634,1.5666,1.5821,1.5983,1.6104,1.6292,1.6454,1.6584,1.6584,1.6584,1.6584,1.6584,1.7799,1.8898,1.8926,2.1884,2.4399,2.4434,2.5895,2.7156,2.7362,2.7197,2.7156,2.7362,2.7403,2.7403,2.7403,2.7403,0.0,2.7403,2.7443,2.7456,2.7456,2.7429,2.7403,2.7403,2.7349,2.7309,2.7309,2.7001,2.6867,2.6867,2.6613,2.6493,2.64,2.588,2.5665,0.0,0.0,0.0,0.0,0.0,0.0,0.0,0.0,0.0,0.0,0.0,0.0,0.0,0.0,0.0,2.2693,2.2953,2.3132,2.3198,2.3394,2.3562,2.3629,2.3683,2.375,2.3803,2.4195,2.4439,2.4439,2.4957,2.5277,2.5306,2.5398,2.5571,2.5904,2.4655,2.4114,2.4375,2.315,2.1817,2.0424,2.1913,0.0,2.0578,2.2019,2.2518,2.2231,2.2231,2.2087,2.1797,2.1797,2.1797,2.1703,2.0776,2.0424,2.0259,1.8856,1.8106,1.7823,1.7823,1.7614,1.7246,1.6952,1.6827,1.6785,1.6499,1.6373,0.0,1.6414,1.6446,1.6487,1.6519,1.6552,1.6584,1.6584,1.6584,1.6584,1.6584,1.6874,1.7128,1.7236,1.9081,2.0689,2.0859,2.3508,2.6183,2.7795,2.6647,2.6183,2.7808,2.8018,2.8018,2.8018,2.8018,2.8018,2.8018,2.8203,2.835,2.835,2.8152,2.8018,2.8018,2.7563,2.7309,2.7309,2.7255,2.7175,2.7175,2.7162,2.6932,2.6566,2.6533,2.6573,0.0,0.0,0.0,0.0,0.0,0.0,0.0,0.0,0.0,0.0,0.0,2.2505,2.2619,0.0,2.2926,2.3073,2.3354,2.3594,2.3741,2.4022,2.4155,2.4008,2.4115,2.4262,2.4446,2.4823,2.5039,2.5039,2.5491,2.5798,2.5945,2.5217,2.4936,2.5255,2.3591,2.278,2.2946,2.22,2.1348,2.051,2.1505,2.1558,2.0724,2.1758,2.1726,2.0833,2.0833,2.0331,1.9433,1.9433,1.9433,1.9357,1.8508,1.9108,2.0385,1.9512,1.8636,1.7883,1.7883,1.7332,1.6584,1.6584,1.6584,1.6584,1.6584,1.6584,1.66,1.669,1.6543,1.6387,1.6474,1.6325,1.6152,1.6152,1.6152,1.6195,1.6455,1.6498,1.6609,1.6879,1.8557,1.9998,2.0093,2.1646,2.3783,2.6413,2.5939,2.5981,2.7968,2.8179,2.8179,2.8179,2.8179,2.8179,2.8179,2.8326,2.8444,2.8591,2.8457,2.8444,2.8577,2.831,2.815,2.815,2.7939,2.7812,2.7812,2.7558,2.7304,2.7105,2.7162,2.6989,0.0,0.0,0.0,0.0,0.0,0.0,0.0,2.2498,2.2579,2.2853,2.2947,2.2987,2.2987,2.3207,2.3407,2.3407,2.3714,2.4022,2.4249,2.4546,2.4679,2.4489,2.4626,2.4866,2.5144,2.5424,2.5625,2.5678,2.5959,2.6135,2.6056,2.4855,2.4126,2.3998,2.2257,2.1327,2.1327,2.1032,2.0884,2.0884,2.111,2.1192,2.1202,2.1429,2.0732,1.9361,1.9361,1.8497,1.7112,1.7112,1.7068,1.698,1.7068,1.8554,2.0631,2.08,2.0008,1.8797,1.8797,1.7869,1.6682,1.6596,1.6553,1.6553,1.6468,1.6425,1.6457,1.6557,1.6293,1.6056,1.6231,1.5969,1.5704,1.5704,1.5704,1.5793,1.6181,1.6269,1.6401,1.6761,1.8312,1.9502,1.9414,1.9605,2.1077,2.4976,2.523,2.5799,2.8055,2.8366,2.8366,2.8366,2.8366,2.8366,2.8366,2.8366,2.843,2.8542,2.8502,2.8582,2.8765,2.8638,2.8638,2.8778,2.833,2.8095,2.816,2.7766,2.756,2.7473,2.7523,2.72,2.1977,2.2178,2.2432,2.2733,2.28,2.2813,0.0,2.2853,2.2853,2.2893,2.3086,2.3273,2.3273,2.3514,2.3728,2.3728,2.4182,2.4519,2.4546,2.5026,2.5398,2.5371,2.5398,2.5424,2.5464,2.5732,2.6051,2.6266,2.656,2.6115,2.478,2.4569,2.3727,2.213,2.0522,1.9652,1.9652,1.8295,1.7607,1.7607,1.7676,1.7684,1.7684,1.7709,1.7586,1.7411,1.7411,1.7279,1.7112,1.7112,1.6841,1.6533,1.6928,1.6817,1.6478,1.7301,1.7484,1.7309,1.7309,1.7222,1.696,1.6566,1.6426,1.6347,1.5916,1.5784,1.5784,1.5807,1.5814,1.577,1.5785,1.5749,1.5704,1.5704,1.5704,1.5704,1.5749,1.5793,1.5793,1.5837,1.6373,1.6689,1.63,1.6572,1.8999,2.5249,2.468,2.4856,2.8447,2.8895,2.8895,2.8895,2.8895,2.8895,2.8895,2.8895,2.8778,2.8413,2.8134,2.8003,2.8042,2.741,2.7341,2.7986,2.7556,2.7424,2.7692,2.7648,2.7372,2.6978,2.7226,2.7385,2.2479,2.2612,2.2712,2.2867,2.2893,2.2893,2.2893,2.3041,2.314,2.314,2.338,2.3581,2.3581,2.3821,2.4075,2.4249,2.4623,2.4607,2.3732,2.4009,2.4261,2.4261,2.3633,2.3864,2.5605,2.5268,2.4926,2.504,2.4315,2.3662,2.3207,2.2126,2.1261,2.0712,1.897,1.794,1.767,1.702,1.6577,1.6277,1.6277,1.6453,1.6665,1.6409,1.6277,1.6321,1.6577,1.6533,1.6321,1.6577,1.6401,1.6005,1.6189,1.6057,1.5793,1.6445,1.6541,1.6277,1.6277,1.6277,1.6233,1.6057,1.6013,1.5969,1.5749,1.5704,1.5704,1.5704,1.5484,1.5308,1.5308,1.5087,1.4873,1.4873,1.4873,1.4955,1.5219,1.5308,1.5352,1.566,1.5881,1.5925,1.5749,1.5919,1.7432,2.1289,2.2001,2.3446,2.7225,2.771,2.771,2.771,2.7853,2.7944,2.7944,2.8113,2.8194,2.8186,2.8039,2.8039,2.825,2.7817,2.7715,2.8018,2.7523,2.731,2.7435,2.7286,2.7149,2.697,2.7079,2.7157,2.284,2.2893,2.2893,2.2893,2.296,2.3027,2.3027,2.3233,2.3447,2.3447,2.3688,2.3924,2.3924,2.4128,2.4422,2.4679,2.4622,2.4163,2.3184,2.2902,2.2775,2.2686,2.189,2.2122,2.4234,2.3827,2.3505,2.3587,2.2546,2.1747,2.1383,2.0076,1.9161,1.8741,1.7403,1.6541,1.6225,1.6225,1.6049,1.5704,1.5704,1.5881,1.6181,1.5837,1.5704,1.5704,1.6049,1.6036,1.5772,1.6125,1.6015,1.5616,1.575,1.5661,1.5483,1.5964,1.5956,1.5704,1.5704,1.5704,1.566,1.5572,1.5528,1.5484,1.5352,1.5308,1.5308,1.5308,1.5087,1.4822,1.4822,1.4564,1.4299,1.4299,1.4299,1.4394,1.4783,1.4886,1.4981,1.5342,1.5527,1.5572,1.5438,1.563,1.6377,1.8091,1.9379,2.1423,2.4957,2.5872,2.6185,2.6185,2.6845,2.733,2.733,2.7477,2.7636,2.7706,2.7719,2.7807,2.8054,2.7743,2.7668,2.7877,2.7387,2.7157,2.723,2.7066,2.6981,2.6981,2.6981,2.6981,2.2893,2.2893,2.2893,2.2893,2.3086,2.3278,2.3278,2.3541,2.379,2.379,2.3981,2.4195,2.4195,2.4422,2.4679,2.5024,2.3909,2.308,2.3345,2.2168,2.1165,2.0898,2.0858,2.0735,2.0513,2.1316,2.1966,2.2234,2.2213,2.1351,1.9376,1.9264,1.8182,1.5881,1.5749,1.5749,1.5704,1.5704,1.5704,1.5704,1.5704,1.5704,1.5704,1.5704,1.5704,1.5704,1.5704,1.5801,1.5906,1.5906,1.5725,1.5462,1.5902,1.5538,1.4772,1.5272,1.5532,1.5704,1.5704,1.5704,1.5616,1.5175,1.5036,1.4955,1.4476,1.4343,1.4343,1.4343,1.4343,1.4299,1.4299,1.4299,1.4299,1.4299,1.4299,1.434,1.4475,1.4502,1.455,1.4699,1.509,1.5272,1.4817,1.5097,1.5909,1.7336,1.7554,1.8619,2.1502,2.3521,2.4682,2.4682,2.6402,2.7591,2.7591,2.7591,2.7429,2.6946,2.6946,2.6946,2.6958,2.6506,2.6572,2.733,2.6852,2.6761,2.7015,2.6981,2.6981,2.6981,2.6981,2.6981,2.2893,2.3041,2.3166,2.3166,2.3394,2.3621,2.3621,2.3848,2.4062,2.4062,2.3437,2.288,2.288,2.2088,2.1528,2.1985,2.1622,2.1088,2.0485,1.972,1.9231,1.9285,1.8077,1.763,1.8663,1.9056,1.9306,1.9414,1.8477,1.759,1.692,1.6884,1.6533,1.5704,1.5704,1.5572,1.5264,1.5264,1.5087,1.4785,1.5087,1.5137,1.4925,1.5245,1.5257,1.5042,1.5357,1.534,1.5118,1.5443,1.5335,1.4968,1.5104,1.4968,1.474,1.4876,1.4996,1.5042,1.5042,1.5042,1.4996,1.4854,1.4816,1.4771,1.459,1.459,1.459,1.459,1.459,1.459,1.459,1.459,1.459,1.459,1.459,1.4559,1.4606,1.462,1.4633,1.4681,1.4831,1.4876,1.474,1.492,1.5338,1.5892,1.7898,1.9716,2.0648,2.1318,2.2265,2.3576,2.4486,2.5537,2.6807,2.7112,2.712,2.6986,2.6986,2.6986,2.6986,2.6637,2.6589,2.6807,2.6685,2.6632,2.6728,2.6897,2.6981,2.6981,2.6981,2.6981,2.3027,2.318,2.3319,2.346,2.3701,2.3928,2.3928,2.4155,2.4173,2.3611,2.2818,2.2036,2.1426,2.0489,1.9962,2.0425,1.9876,1.9175,1.8729,1.7693,1.7045,1.7128,1.5945,1.556,1.6562,1.67,1.683,1.7134,1.6251,1.5616,1.544,1.544,1.5352,1.5227,1.5183,1.5043,1.4734,1.4783,1.4712,1.4455,1.4768,1.4771,1.459,1.4868,1.4923,1.474,1.5013,1.5002,1.4821,1.5149,1.5131,1.4896,1.4896,1.4896,1.4896,1.4896,1.4896,1.4836,1.4728,1.4694,1.4694,1.4694,1.4694,1.4694,1.4694,1.4694,1.4694,1.4694,1.4694,1.4694,1.4694,1.4694,1.4694,1.4694,1.4694,1.4708,1.4808,1.4821,1.4835,1.4889,1.4896,1.4896,1.4896,1.4984,1.5079,1.5167,1.708,1.8487,1.8487,1.9071,2.0297,2.2297,2.3289,2.4619,2.6594,2.6885,2.6981,2.6981,2.6981,2.6981,2.6981,2.6825,2.6728,2.6728,2.6825,2.6873,2.6873,2.7138,2.7304,2.7304,2.7304,2.6892,2.3142,2.3284,2.3412,2.3728,2.3972,2.4113,2.4113,2.4216,2.392,2.2372,2.1999,2.1513,1.9962,1.9623,1.9696,2.0153,1.8514,1.7391,1.7953,1.6216,1.4846,1.4743,1.4691,1.458,1.4329,1.4299,1.4653,1.5572,1.5616,1.544,1.4999,1.4948,1.4778,1.4299,1.4306,1.4312,1.4312,1.4448,1.4552,1.4694,1.4694,1.4701,1.4708,1.4708,1.4708,1.4714,1.4714,1.4848,1.503,1.503,1.5105,1.5181,1.5181,1.5181,1.5181,1.5181,1.5181,1.514,1.4862,1.4714,1.4714,1.4714,1.4714,1.4714,1.4714,1.4714,1.4714,1.4714,1.4714,1.4714,1.4714,1.4714,1.4714,1.4714,1.4714,1.4801,1.495,1.503,1.5071,1.52,1.5181,1.5181,1.5181,1.5181,1.5181,1.5181,1.5181,1.5181,1.5181,1.6806,1.8757,2.088,2.2816,2.4761,2.6845,2.6981,2.6981,2.6981,2.6981,2.6981,2.6981,2.6981,2.6981,2.6981,2.7247,2.7425,2.7425,2.7539,2.7625,2.7625,2.7531,2.6431,2.1943,2.2805,2.3995,2.4075,2.3413,2.2719,2.2719,2.1839,2.0902,2.0489,1.9472,1.8499,1.8082,1.7017,1.6232,1.6261,1.5814,1.557,1.59,1.5188,1.4672,1.4899,1.459,1.439,1.4299,1.4299,1.4387,1.4653,1.4653,1.4608,1.4476,1.4476,1.4431,1.4299,1.4401,1.4455,1.4455,1.4559,1.4654,1.4694,1.4694,1.4801,1.4909,1.4909,1.497,1.5072,1.5072,1.5092,1.5126,1.5126,1.5147,1.5181,1.5181,1.5181,1.5181,1.5181,1.5181,1.5174,1.5092,1.5072,1.5072,1.5072,1.5072,1.5072,1.5072,1.5072,1.5072,1.5072,1.5072,1.5072,1.5072,1.5072,1.5072,1.5072,1.5072,1.5079,1.512,1.5126,1.514,1.5174,1.5181,1.5181,1.5181,1.5181,1.5181,1.5181,1.5181,1.5181,1.5181,1.565,1.7273,2.0751,2.1573,2.3285,2.6709,2.6981,2.6981,2.6981,2.6981,2.6981,2.6981,2.6981,2.6981,2.6981,2.7247,2.7425,2.7425,2.6118,2.5481,2.5434,2.3915,2.2922,2.1568,2.2259,2.3336,2.4173,2.3274,2.2185,2.2185,2.0939,1.9585,1.8905,1.8044,1.7169,1.6492,1.5467,1.4741,1.4773,1.4508,1.4419,1.4826,1.4486,1.4298,1.4655,1.4476,1.4299,1.4299,1.4299,1.4299,1.4299,1.4299,1.4299,1.4299,1.436,1.4394,1.4394,1.4536,1.4645,1.4713,1.4801,1.4875,1.4936,1.4936,1.4977,1.5112,1.5112,1.5106,1.5181,1.5181,1.5181,1.5181,1.5181,1.5181,1.5181,1.5181,1.5181,1.5181,1.5181,1.5181,1.5181,1.5181,1.5181,1.5181,1.5181,1.5181,1.5181,1.5181,1.5181,1.5181,1.5181,1.5181,1.5181,1.5181,1.5181,1.5181,1.5181,1.5181,1.5181,1.5181,1.5181,1.5181,1.5181,1.5181,1.5181,1.5181,1.5181,1.5181,1.5181,1.5181,1.5181,1.5181,1.5181,1.6393,1.9454,2.0557,2.2366,2.5457,2.573,2.6106,2.6936,2.5366,2.4807,2.5685,2.573,2.573,2.573,2.5972,2.6156,2.6225,2.443,2.3588,2.3632,2.2433,2.1422,2.1655,2.186,2.2313,2.4164,2.324,2.1887,2.1887,2.0414,1.8716,1.7359,1.6988,1.6492,1.516,1.4607,1.4423,1.4621,1.4084,1.3791,1.4316,1.4058,1.391,1.4265,1.4299,1.4299,1.4299,1.4319,1.4326,1.4326,1.4346,1.4346,1.4333,1.4462,1.455,1.457,1.4699,1.4841,1.4997,1.5044,1.5059,1.5181,1.5181,1.5181,1.5181,1.5181,1.5181,1.5181,1.5181,1.5181,1.5181,1.5181,1.5181,1.5181,1.5181,1.5181,1.5181,1.5181,1.5181,1.5181,1.5181,1.5181,1.5181,1.5181,1.5181,1.5181,1.5181,1.5181,1.5181,1.5181,1.5181,1.5181,1.5181,1.5181,1.5181,1.5181,1.5181,1.5181,1.5181,1.5181,1.5181,1.5181,1.5181,1.5181,1.5181,1.5181,1.5181,1.5181,1.5181,1.5187,1.5208,1.5194,1.5924,1.7872,1.9657,2.1575,2.3557,2.3762,2.4483,2.6166,2.3056,2.1938,2.3691,2.3783,2.3783,2.3783,2.4005,2.4228,2.4346,2.2557,2.1782,2.19,2.1606,2.0536,2.1849,2.2055,2.2546,2.4203,2.2372,2.0226,2.0226,1.7692,1.5352,1.542,1.4853,1.4391,1.4476,1.4283,1.4013,1.384,1.3777,1.3795,1.3904,1.3838,1.391,1.4265,1.4299,1.4299,1.4299,1.4407,1.4475,1.4475,1.459,1.4566,1.4482,1.4572,1.476,1.4889,1.4916,1.4997,1.5147,1.5194,1.516,1.5181,1.5181,1.5181,1.5181,1.5181,1.5181,1.5181,1.5181,1.5181,1.5181,1.5181,1.5181,1.5181,1.5181,1.5181,1.5181,1.5181,1.5181,1.5181,1.5181,1.5181,1.5181,1.5181,1.5181,1.5181,1.5181,1.5181,1.5181,1.5181,1.5181,1.5181,1.5181,1.5181,1.5181,1.5181,1.5181,1.5181,1.5181,1.5181,1.5181,1.5181,1.5181,1.5181,1.5181,1.5181,1.5181,1.5181,1.5181,1.5228,1.5357,1.5262,1.5924,1.7872,1.8571,1.9642,2.1637,2.1941,2.2189,2.2519,2.1905,2.1669,2.2,2.2047,2.2047,2.2047,2.2249,2.2375,2.2471,2.0592,1.9724,1.97,1.7996,1.6963,2.1569,2.0831,2.0301,2.2744,2.0939,1.8527,1.8527,1.6415,1.4438,1.4669,1.4168,1.3805,1.4136,1.3899,1.3638,1.3715,1.3572,1.3576,1.3777,1.3795,1.391,1.4265,1.4299,1.4299,1.4299,1.4428,1.4509,1.4509,1.4726,1.4794,1.4593,1.4774,1.493,1.5079,1.5079,1.5113,1.5181,1.5181,1.5181,1.5181,1.5181,1.5181,1.5181,1.5181,1.5181,1.5181,1.5181,1.5181,1.5181,1.5181,1.5228,1.5303,1.5303,1.535,1.5418,1.5418,1.5418,1.5418,1.5418,1.5418,1.5418,1.5418,1.5309,1.5181,1.5181,1.5181,1.5181,1.5181,1.5181,1.5181,1.5181,1.5181,1.5181,1.5181,1.5181,1.5181,1.5181,1.5181,1.5181,1.5181,1.5181,1.5181,1.5181,1.5181,1.5208,1.5289,1.5303,1.5357,1.5506,1.5466,1.5752,1.6689,1.7796,1.8891,1.9824,1.9958,2.0497,2.1545,1.9637,1.8927,2.0019,2.0058,2.0536,2.1631,2.0673,2.0771,2.1941,1.8939,1.7519,1.7551,1.6573,1.6083,2.1253,1.9633,1.8023,2.0965,1.951,1.7407,1.7407,1.585,1.4407,1.4407,1.3967,1.3639,1.3811,1.3537,1.334,1.3626,1.3445,1.3363,1.3741,1.3795,1.391,1.4265,1.4299,1.4312,1.434,1.4475,1.4577,1.4604,1.4862,1.4964,1.4841,1.495,1.5065,1.5181,1.5181,1.5181,1.5181,1.5181,1.5181,1.5181,1.5181,1.5181,1.5181,1.5181,1.5181,1.5181,1.5181,1.5201,1.5228,1.5228,1.5323,1.5459,1.5459,1.5533,1.5593,1.5593,1.5593,1.5593,1.5593,1.5593,1.5593,1.5593,1.5479,1.5282,1.5282,1.5282,1.5282,1.5282,1.5255,1.5228,1.5228,1.5208,1.5181,1.5181,1.5181,1.5181,1.5181,1.5181,1.5181,1.5181,1.5181,1.5194,1.5228,1.5228,1.5282,1.5438,1.5459,1.5513,1.5669,1.5634,1.5696,1.5681,1.7087,1.8022,1.8022,1.8054,1.8753,2.0333,1.7463,1.6404,1.798,1.8077,1.9034,2.1131,1.9556,1.9825,2.1998,1.8378,1.6644,1.6772,1.6772,1.6772,2.1254,1.9504,1.7602,1.9532,1.8688,1.7407,1.7407,1.585,1.4407,1.4407,1.3825,1.3347,1.3362,1.3269,1.322,1.3247,1.3329,1.3485,1.3754,1.3795,1.391,1.4265,1.4299,1.4353,1.4482,1.4586,1.478,1.4916,1.5119,1.5153,1.514,1.5153,1.5167,1.5181,1.5181,1.5181,1.5181,1.5181,1.5181,1.5181,1.5181,1.5181,1.5181,1.5181,1.5181,1.5181,1.5181,1.5262,1.5391,1.5391,1.5479,1.5566,1.5566,1.558,1.5593,1.5593,1.5593,1.5593,1.5593,1.5593,1.5593,1.5593,1.5573,1.5546,1.5546,1.5546,1.5546,1.5546,1.5499,1.5391,1.5391,1.5289,1.5181,1.5181,1.5181,1.5181,1.5181,1.5181,1.5181,1.5181,1.5181,1.5228,1.5364,1.5391,1.5445,1.5546,1.5566,1.5669,1.5867,1.5881,1.5935,1.6029,1.611,1.6174,1.6174,1.625,1.6432,1.6581,1.6234,1.6141,1.6333,1.6333,1.7309,1.9413,1.9265,2.0149,2.2263,2.0019,1.8904,1.892,1.892,1.892,2.0762,1.8742,1.6232,1.7939,1.694,1.5582,1.5582,1.4584,1.3628,1.3628,1.3248,1.2996,1.3092,1.3158,1.3241,1.3295,1.3363,1.3505,1.3754,1.3795,1.391,1.4265,1.4299,1.4353,1.4496,1.4606,1.4841,1.5079,1.5153,1.5181,1.5181,1.5181,1.5181,1.5181,1.5181,1.5181,1.5181,1.5181,1.5181,1.5181,1.5181,1.5181,1.5181,1.5181,1.5181,1.5187,1.5282,1.5357,1.5418,1.5513,1.5635,1.5771,1.5771,1.5825,1.5906,1.5906,1.5906,1.5906,1.5906,1.5906,1.5906,1.5906,1.5906,1.5872,1.5648,1.5593,1.5593,1.5593,1.5546,1.5499,1.5499,1.5506,1.5459,1.5459,1.5459,1.5459,1.5459,1.5459,1.5459,1.5459,1.5459,1.5479,1.5492,1.5499,1.5594,1.5744,1.5771,1.5825,1.6017,1.6037,1.6064,1.6076,1.6029,1.6037,1.6037,1.6049,1.6083,1.6083,1.6083,1.6083,1.6083,1.6083,1.7062,1.9166,1.7996,1.8969,2.2291,2.0192,1.9848,2.1067,2.1067,2.1067,2.0123,1.7897,1.5209,1.6397,1.5544,1.4407,1.4407,1.3821,1.325,1.3184,1.3044,1.2999,1.3037,1.3186,1.3275,1.3383,1.3403,1.3505,1.3754,1.3795,1.391,1.4265,1.4299,1.4373,1.4563,1.4708,1.4957,1.5167,1.5181,1.5181,1.5181,1.5181,1.5181,1.5181,1.5181,1.5181,1.5181,1.5181,1.5181,1.5181,1.5181,1.5181,1.5181,1.5181,1.5181,1.5194,1.5343,1.5438,1.5493,1.5642,1.5791,1.5969,1.5969,1.6037,1.6083,1.6083,1.6083,1.6083,1.6083,1.6083,1.6083,1.6083,1.6083,1.6042,1.5832,1.5771,1.5771,1.5771,1.5737,1.5689,1.56,1.5593,1.5593,1.5593,1.5593,1.5593,1.5593,1.5593,1.5593,1.5593,1.5593,1.5607,1.5696,1.5703,1.575,1.5949,1.5969,1.601,1.6069,1.6083,1.6083,1.6083,1.6083,1.6083,1.6083,1.6083,1.6083,1.6083,1.6083,1.6083,1.6083,1.6083,1.7062,1.9166,1.8384,1.97,2.3218,2.1802,2.1802,2.3267,2.3267,2.356,1.929,1.7123,1.4749,1.4966,1.4707,1.4407,1.4407,1.4014,1.3634,1.3365,1.3436,1.3512,1.3261,1.3295,1.3397,1.3403,1.3403,1.3505,1.3754,1.3795,1.391,1.4265,1.4299,1.4414,1.466,1.5004,1.5181,1.5181,1.5181,1.5181,1.5181,1.5181,1.5181,1.5181,1.5181,1.5181,1.5181,1.5181,1.5181,1.5181,1.5181,1.5181,1.5181,1.5181,1.5181,1.5194,1.5343,1.5499,1.56,1.5791,1.599,1.6083,1.6083,1.6083,1.6083,1.6083,1.6083,1.6083,1.6083,1.6083,1.6083,1.6083,1.6083,1.6083,1.6076,1.6076,1.6076,1.6076,1.6017,1.5867,1.5627,1.5593,1.5593,1.5593,1.5593,1.5593,1.5593,1.5593,1.5593,1.5593,1.5593,1.5683,1.5874,1.5901,1.5949,1.6056,1.6083,1.6083,1.6083,1.6083,1.6083,1.6083,1.6083,1.6083,1.6083,1.6083,1.6083,1.6083,1.6083,1.6083,1.6083,1.6083,1.7062,1.9166,2.1214,2.3316,2.5464,2.5464,2.5464,2.5464,2.5464,2.655,1.9012,1.719,1.4857,1.4653,1.4245,1.386,1.359,1.3158,1.2898,1.2894,1.3046,1.3204,1.3186,1.3295,1.3403,1.3403,1.3403,1.3505,1.3754,1.3795,1.391,1.4265,1.4475,1.4593,1.4687,1.5011,1.5181,1.5181,1.5181,1.5181,1.5181,1.5181,1.5181,1.5181,1.5181,1.5181,1.5181,1.5181,1.5181,1.5181,1.5181,1.5181,1.5181,1.5181,1.5242,1.535,1.5499,1.5649,1.5798,1.5947,1.6035,1.6083,1.6083,1.6083,1.6083,1.6083,1.6083,1.6083,1.6083,1.6083,1.6083,1.6083,1.6083,1.6083,1.6083,1.6083,1.6083,1.6083,1.6049,1.6001,1.5954,1.594,1.594,1.594,1.594,1.594,1.594,1.594,1.594,1.594,1.594,1.5954,1.6051,1.6058,1.6029,1.6076,1.6083,1.6083,1.6083,1.6083,1.6083,1.6083,1.6083,1.6083,1.6083,1.6083,1.6083,1.6083,1.6083,1.6083,1.6083,1.7452,1.8533,1.9216,2.1263,2.3365,2.5513,2.5513,2.6201,2.7634,2.7634,2.7983,1.8489,1.6848,1.4891,1.4515,1.4053,1.359,1.3197,1.2772,1.2562,1.2773,1.2895,1.3064,1.322,1.3336,1.3403,1.3403,1.3403,1.3505,1.3754,1.3795,1.391,1.4265,1.4563,1.4694,1.4694,1.5011,1.5181,1.5181,1.5181,1.5181,1.5181,1.5181,1.5181,1.5181,1.5181,1.5181,1.5181,1.5181,1.5181,1.5181,1.5181,1.5181,1.5181,1.5181,1.5269,1.5418,1.5526,1.5723,0.0,1.6015,1.6083,1.6083,1.6083,1.6083,1.6083,1.6083,1.6083,1.6083,1.6083,1.6083,1.6083,1.6083,1.6083,1.6083,1.6083,1.6083,1.6083,1.6083,1.6083,1.6083,1.6083,1.6083,1.6083,1.6083,1.6083,1.6083,1.6083,1.6083,1.6083,1.6083,1.6083,1.6083,1.6083,1.6083,1.6083,1.6083,1.6083,1.6083,1.6083,1.6083,1.6083,1.6083,1.6083,1.6083,1.6083,1.6083,1.6083,1.6083,1.6083,1.6083,1.6083,1.7353,1.8384,1.9166,2.1263,2.3365,2.5513,2.6297,2.7334,2.862,2.862,2.862,0.0,1.6148,1.4891,1.4476,1.4014,1.359,1.3158,1.2779,0.0,1.2941,1.3009,1.3105,1.3349,1.3403,1.3403,1.3403,1.3403,1.3505,1.3754,1.3815,1.3937,1.4265,1.4563,1.4694,1.4694,1.5011,1.5181,1.5181,1.5181,1.5181,1.5181,1.5181,1.5181,1.5181,1.5181,1.5181,1.5181,1.5181,1.5181,1.5181,1.5181,1.5181,1.5181,1.5181,1.5269,1.5438,1.5533,1.5723,1.5928,1.6071,1.6083,1.6083,1.6083,1.6083,1.6083,1.6083,1.6083,1.6083,1.6083,1.6083,1.6083,1.6083,1.6083,1.6083,1.6083,1.6083,1.6083,1.6083,1.6083,1.6083,1.6083,1.6083,1.6083,1.6083,1.6083,1.6083,1.6083,1.6083,1.6083,1.6083,1.6083,1.6083,1.6083,1.6083,1.6083,1.6083,1.6083,1.6076,1.6069,1.6076,1.6076,1.6069,1.6076,1.6083,1.6083,1.6083,1.6083,1.6083,1.6083,1.6083,1.6083,1.6225,1.7211,1.9166,2.1263,2.3365,2.5513,2.7442,2.8476,2.862,2.862,2.862,1.6321,0.0,1.4814,1.4053,1.3783,1.3505,0.0,1.2667,1.2732,1.2962,1.3091,1.322,1.3363,1.3403,1.3403,1.3403,1.3403,1.3505,1.3754,1.3998,1.4217,1.4292,1.4563,1.4694,1.4694,1.5011,1.5181,1.5181,1.5181,1.5181,1.5181,1.5181,1.5181,1.5181,1.5181,1.5181,1.5181,1.5181,1.5181,1.5181,1.5181,1.5181,1.5181,1.5181,1.533,1.5539,1.5573,1.5784,1.6078,1.6069,1.6083,1.6083,1.6083,1.6083,1.6083,1.6083,1.6083,1.6083,1.6083,1.6083,1.6083,1.6083,1.6083,1.6083,1.6083,1.6083,1.6083,1.6083,1.6083,1.6083,1.6083,1.6083,1.6083,1.6083,1.6083,1.6083,1.6083,1.6083,1.6083,1.6083,1.6083,1.6083,1.6083,1.6083,1.6083,1.6083,1.6083,1.6042,1.5969,1.6058,1.6035,1.5969,1.6058,1.6083,1.6083,1.6083,1.6083,1.6083,1.6083,1.6083,1.6083,1.765,1.8673,1.9216,2.1263,2.3365,2.5513,2.6007,2.7044,2.862,2.862,2.862,1.5612,1.4699,1.4553,1.386,1.3544,1.3274,1.2656,1.2617,1.2773,1.2969,1.3111,1.322,1.337,1.3403,1.3403,1.3403,1.3458,1.3607,1.3905,1.415,1.4299,1.4299,1.4563,1.4694,1.4694,1.5011,1.5181,1.5181,1.5181,1.5181,1.5181,1.5181,1.5181,1.5181,1.5181,1.5181,1.5181,1.5181,1.5181,1.5181,1.5181,1.5181,1.5181,1.5181,1.5309,1.5492,1.556,1.5764,1.603,1.6056,1.6083,1.6083,1.6083,1.6083,1.6083,1.6083,1.6083,1.6083,1.6083,1.6083,1.6083,1.6083,1.6083,1.6083,1.6083,1.6083,1.6083,1.6083,1.6083,1.6083,1.6083,1.6083,1.6083,1.6083,1.6083,1.6083,1.6083,1.6083,1.6083,1.6083,1.6083,1.6056,1.6037,1.6024,1.6003,1.5886,1.5879,1.5845,1.5764,1.5825,1.5845,1.5764,1.5832,1.5906,1.6017,1.6024,1.6008,1.6076,1.6083,1.6083,1.6083,1.7162,1.8236,1.9166,2.2193,2.4338,2.5513,2.6454,2.749,2.862,2.862,2.862,1.5198,1.4245,1.4091,1.3706,1.3351,1.3004,1.2579,1.2637,1.28,1.2975,1.3132,1.3288,1.3376,1.3403,1.3403,1.3403,1.3546,1.3756,1.4078,1.4204,1.4299,1.4299,1.4563,1.4694,1.4694,1.5011,1.5181,1.5181,1.5181,1.5181,1.5181,1.5181,1.5181,1.5181,1.5181,1.5181,1.5181,1.5181,1.5181,1.5181,1.5181,1.5181,1.5181,1.5181,1.5269,1.5418,1.5526,1.5723,1.5915,1.6015,1.6083,1.6083,1.6083,1.6083,1.6083,1.6083,1.6083,1.6083,1.6083,1.6083,1.6083,1.6083,1.6083,1.6083,1.6083,1.6083,1.6083,1.6083,1.6083,1.6083,1.6083,1.6083,1.6076,1.6049,1.6049,1.6042,1.6015,1.6015,1.6015,1.6015,1.6015,1.5974,1.5894,1.5867,1.5778,1.5607,1.5593,1.558,1.556,1.558,1.558,1.556,1.558,1.5689,1.586,1.5867,1.5935,1.6035,1.6069,1.6083,1.6083,1.6083,1.6913,1.8673,2.2242,2.4192,2.4532,2.6309,2.7345,2.7634,2.7983,2.8128,1.4806,1.3551,1.3274,1.3197,1.3158,1.3004,1.2579,1.2725,1.2975,1.2996,1.322,1.337,1.3397,1.3403,1.3403,1.3403,1.3627,1.3871,1.4091,1.4204,1.4299,1.4299,1.4563,1.4694,1.4694,1.5011,1.5181,1.5181,1.5181,1.5181,1.5181,1.5181,1.5181,1.5181,1.5181,1.5181,1.5181,1.5181,1.5181,1.5181,1.5181,1.5181,1.5181,1.5181,1.5269,1.5418,1.5526,1.5723,1.5915,1.6015,1.6083,1.6083,1.6083,1.6083,1.6083,1.6083,1.6083,1.6083,1.6083,1.6083,1.6083,1.6083,1.6083,1.6083,1.6083,1.6083,1.6083,1.6083,1.6083,1.6083,1.6083,1.6083,1.6049,1.5969,1.5935,1.5901,1.573,1.5661,1.5661,1.5661,1.5661,1.5648,1.5627,1.5669,1.5662,1.5593,1.5593,1.5546,1.5459,1.5512,1.5539,1.5459,1.5512,1.56,1.5621,1.5669,1.5737,1.5928,1.6058,1.6083,1.6083,1.6083,1.6225,1.6573,1.7211,1.8434,2.0192,2.0487,2.1557,2.3316,2.5125,2.5959,1.4153,1.3081,1.2772,1.2772,1.2772,1.2754,1.2642,1.28,1.3023,1.3098,1.3247,1.3403,1.3403,1.3403,1.3451,1.3572,1.3824,1.4021,1.4177,1.4258,1.4299,1.4299,1.4563,1.4694,1.4694,1.5011,1.5181,1.5181,1.5181,1.5181,1.5181,1.5181,1.5181,1.5181,1.5181,1.5181,1.5181,1.5181,1.5181,1.5181,1.5181,1.5181,1.5181,1.5181,1.5269,1.5418,1.5526,1.5723,1.5915,1.6015,1.6083,1.6083,1.6083,1.6083,1.6083,1.6083,1.6083,1.6083,1.6083,1.6083,1.6083,1.6083,1.6083,1.6083,1.6083,1.6083,1.6083,1.6083,1.6083,1.6083,1.6083,1.6071,1.599,1.5922,1.584,1.5716,1.5607,1.5593,1.5593,1.5593,1.5593,1.5566,1.5479,1.5465,1.5486,1.5404,1.5391,1.5364,1.5296,1.535,1.5364,1.5296,1.535,1.5425,1.5506,1.5465,1.5615,1.5888,1.6044,1.6083,1.6083,1.6083,1.6083,1.6083,1.7211,1.8236,1.9216,2.1508,2.3121,2.4095,2.6201,2.7189,1.4107,1.3004,1.2508,1.2549,1.2556,1.2583,1.2665,1.2874,1.3084,1.3193,1.3295,1.3403,1.3403,1.3431,1.3553,1.3802,1.3994,1.4166,1.4278,1.4299,1.4299,1.4299,1.4563,1.4694,1.4694,1.5011,1.5181,1.5181,1.5181,1.5181,1.5181,1.5181,1.5181,1.5181,1.5181,1.5181,1.5181,1.5181,1.5181,1.5181,1.5181,1.5181,1.5181,1.5181,1.5269,1.5418,1.5526,1.5723,1.5915,1.6015,1.6083,1.6083,1.6083,1.6083,1.6083,1.6083,1.6083,1.6083,1.6083,1.6083,1.6083,1.6083,1.6083,1.6083,1.6083,1.6083,1.6076,1.6035,1.6029,1.6029,1.6029,1.5913,1.584,1.5806,1.5662,1.5526,1.5492,1.5533,1.5533,1.5533,1.5533,1.5445,1.5377,1.5357,1.5316,1.5201,1.5181,1.5181,1.5181,1.5181,1.5181,1.5181,1.5181,1.5228,1.535,1.5391,1.5506,1.5786,1.5976,1.6029,1.6029,1.6062,1.6083,1.6083,1.765,1.8483,1.8483,2.1704,2.3316,2.3365,2.5426,2.6658,1.5433,1.3645,1.2535,1.2638,1.2672,1.2679,1.2686,1.2949,1.32,1.3214,1.3295,1.3403,1.3403,1.3519,1.3709,1.4007,1.4105,1.4166,1.4278,1.4299,1.4299,1.4299,1.4563,1.4694,1.4694,1.5011,1.5181,1.5181,1.5181,1.5181,1.5181,1.5181,1.5181,1.5181,1.5181,1.5181,1.5181,1.5181,1.5181,1.5181,1.5181,1.5181,1.5181,1.5181,1.5269,1.5418,1.5526,1.5723,1.5915,1.6015,1.6083,1.6083,1.6083,1.6083,1.6083,1.6083,1.6083,1.6083,1.6083,1.6083,1.6083,1.6083,1.6083,1.6083,1.6083,1.6083,1.6049,1.5956,1.5915,1.5915,1.5915,1.5764,1.5573,1.5479,1.5438,1.5391,1.5248,1.5215,1.5215,1.5215,1.5215,1.5215,1.5201,1.5201,1.5194,1.5181,1.5181,1.5181,1.5181,1.5181,1.5181,1.5181,1.5181,1.5187,1.5201,1.533,1.5418,1.5438,1.5758,1.5915,1.5915,1.6008,1.6083,1.6083,1.6225,1.6325,1.6325,1.6623,1.6772,1.6814,1.892,2.0929,1.5242,1.3722,1.2535,1.2652,1.28,1.2895,1.2983,1.3024,1.3132,1.3275,1.3288,1.3315,1.3505,1.3743,1.3939,1.4098,1.415,1.4231,1.4292,1.4299,1.4299,1.4299,1.4563,1.4694,1.4694,1.5011,1.5181,1.5181,1.5181,1.5181,1.5181,1.5181,1.5181,1.5181,1.5181,1.5181,1.5181,1.5181,1.5181,1.5181,1.5181,1.5181,1.5181,1.5181,1.5316,1.5506,1.5566,1.5771,1.6051,1.6056,1.6083,1.6083,1.6083,1.6083,1.6083,1.6083,1.6083,1.6083,1.6083,1.6083,1.6083,1.6083,1.6083,1.6083,1.6083,1.6064,1.5976,1.5915,1.5772,1.5601,1.5696,1.5608,1.5486,1.5425,1.5337,1.5255,1.5194,1.5181,1.5181,1.5181,1.5181,1.5181,1.5181,1.5181,1.5181,1.5181,1.5181,1.5181,1.5181,1.5181,1.5181,1.5181,1.5181,1.5181,1.5181,1.5235,1.5269,1.5269,1.5554,1.5716,1.5716,1.5778,1.5845,1.599,1.599,1.6037,1.6083,1.7409,1.8038,1.8088,2.0143,2.1557,1.5174,1.3759,1.261,1.2766,1.2915,1.3091,1.3193,1.3173,1.32,1.3356,1.3356,1.341,1.3715,1.3933,1.4132,1.418,1.4231,1.4299,1.4299,1.4299,1.4299,1.4299,1.4516,1.464,1.4687,1.497,1.5133,1.5181,1.5181,1.5181,1.5181,1.5181,1.5181,1.5181,1.5181,1.5181,1.5181,1.5181,1.5181,1.5181,1.5181,1.5181,1.5181,1.5181,1.535,1.5593,1.5593,1.5805,1.6083,1.6083,1.6083,1.6083,1.6083,1.6083,1.6083,1.6083,1.6083,1.6083,1.6083,1.6083,1.6083,1.6083,1.6049,1.6058,1.6058,1.5906,1.5826,1.573,1.5567,1.5425,1.5479,1.5418,1.5337,1.5337,1.5255,1.5181,1.5181,1.5181,1.5181,1.5181,1.5181,1.5181,1.5181,1.5181,1.5181,1.5181,1.5181,1.5181,1.5181,1.5181,1.5181,1.5181,1.5181,1.5181,1.5181,1.5181,1.5181,1.5181,1.5377,1.5465,1.5519,1.5566,1.5634,1.5784,1.5881,1.5956,1.6058,1.7528,1.8236,1.8236,1.97,2.0675,1.5472,1.381,1.2766,1.2962,1.3111,1.3214,1.3214,1.3288,1.3397,1.3403,1.3526,1.3722,1.4057,1.4119,1.4166,1.4278,1.4299,1.4299,1.4299,1.4299,1.4299,1.4299,1.4428,1.457,1.4674,1.4875,1.5078,1.5167,1.5181,1.5181,1.5181,1.5181,1.5181,1.5181,1.5181,1.5181,1.5181,1.5181,1.5181,1.5181,1.5181,1.5181,1.5181,1.5181,1.535,1.5593,1.5593,1.5805,1.6083,1.6083,1.6083,1.6083,1.6083,1.6083,1.6083,1.6083,1.6083,1.6083,1.6083,1.6083,1.6083,1.6083,1.6024,1.5901,1.5901,1.575,1.556,1.5452,1.5411,1.5371,1.5221,1.5181,1.5181,1.5181,1.5181,1.5181,1.5181,1.5181,1.5181,1.5181,1.5181,1.5181,1.5181,1.5181,1.5181,1.5181,1.5181,1.5181,1.5181,1.5181,1.5181,1.5181,1.5181,1.5181,1.5181,1.5181,1.5181,1.5181,1.5181,1.5248,1.5404,1.5506,1.5587,1.5587,1.5778,1.5901,1.5901,1.6051,1.6083,1.6083,1.6083,1.7211,1.5253,1.3938,1.2753,1.3084,1.318,1.32,1.3308,1.3288,1.3268,1.3376,1.3688,1.3966,1.4098,1.4156,1.4245,1.4292,1.4299,1.4299,1.4299,1.4299,1.4299,1.4299,1.4428,1.4529,1.4577,1.4814,1.5037,1.5078,1.5173,1.5181,1.5181,1.5181,1.5181,1.5181,1.5181,1.5181,1.5181,1.5181,1.5181,1.5181,1.5181,1.5181,1.5181,1.5181,1.535,1.5593,1.5593,1.5805,1.6083,1.6083,1.6083,1.6083,1.6083,1.6083,1.6083,1.6083,1.6083,1.6083,1.6083,1.6058,1.5969,1.5969,1.5825,1.5703,1.5703,1.5594,1.5466,1.5425,1.5337,1.5242,1.5194,1.5181,1.5181,1.5181,1.5181,1.5181,1.5181,1.5181,1.5181,1.5181,1.5181,1.5181,1.5181,1.5181,1.5181,1.5181,1.5181,1.5181,1.5181,1.5181,1.5181,1.5181,1.5181,1.5181,1.5181,1.5181,1.5181,1.5181,1.5181,1.5201,1.5248,1.5296,1.5371,1.5479,1.552,1.5594,1.5703,1.5852,1.5969,1.5976,1.6078,1.6424,1.4314,1.3515,1.2881,1.3152,1.3261,1.3302,1.3458,1.3417,1.341,1.362,1.3885,1.4132,1.415,1.4238,1.4299,1.4299,1.4299,1.4299,1.4299,1.4299,1.4299,1.4299,1.4373,1.4448,1.4509,1.4679,1.4841,1.501,1.5052,1.512,1.5181,1.5181,1.5181,1.5181,1.5181,1.5181,1.5181,1.5181,1.5181,1.5181,1.5181,1.5181,1.5181,1.5181,1.5316,1.5506,1.5676,1.5859,1.6083,1.6083,1.6083,1.6083,1.6083,1.6083,1.6083,1.6083,1.6083,1.6076,1.6058,1.5983,1.5894,1.5784,1.5669,1.5499,1.5499,1.5438,1.5316,1.5316,1.5255,1.5181,1.5181,1.5181,1.5181,1.5181,1.5181,1.5181,1.5181,1.5181,1.5181,1.5181,1.5181,1.5181,1.5181,1.5181,1.5181,1.5181,1.5181,1.5181,1.5181,1.5181,1.5181,1.5181,1.5181,1.5181,1.5181,1.5181,1.5181,1.5181,1.5181,1.5181,1.5181,1.5181,1.5228,1.5316,1.5377,1.5459,1.5499,1.5696,1.5771,1.5771,1.5969,1.6037,1.3112,1.2874,1.3057,1.32,1.3308,1.3458,1.3558,1.3605,1.3743,1.4057,1.4125,1.418,1.4272,1.4299,1.4299,1.4299,1.4299,1.4299,1.4299,1.4299,1.4299,1.4299,1.4299,1.4353,1.4482,1.4502,1.4631,1.4909,1.5003,1.5025,1.52,1.5174,1.5181,1.5181,1.5181,1.5181,1.5181,1.5181,1.5181,1.5181,1.5181,1.5181,1.5181,1.5181,1.5269,1.5425,1.5772,1.5983,1.6062,1.6076,1.6083,1.6083,1.6083,1.6083,1.6083,1.6069,1.6062,1.6042,1.5935,1.5874,1.584,1.5662,1.5465,1.5391,1.5391,1.5296,1.5181,1.5181,1.5181,1.5181,1.5181,1.5181,1.5181,1.5181,1.5181,1.5181,1.5181,1.5181,1.5181,1.5181,1.5181,1.5181,1.5181,1.5181,1.5181,1.5181,1.5181,1.5181,1.5181,1.5181,1.5181,1.5181,1.5181,1.5181,1.5181,1.5181,1.5181,1.5181,1.5181,1.5181,1.5181,1.5181,1.5181,1.5181,1.5316,1.5391,1.5391,1.5499,1.5566,1.5573,1.5764,1.5881,1.3124,1.3105,1.3207,1.3315,1.3464,1.3545,1.3578,1.381,1.3994,1.4105,1.4163,1.4265,1.4292,1.4299,1.4299,1.4299,1.4299,1.4299,1.4299,1.4299,1.4299,1.4299,1.4299,1.4312,1.434,1.4448,1.4536,1.4604,1.4835,1.503,1.5064,1.512,1.5181,1.5181,1.5181,1.5181,1.5181,1.5181,1.5181,1.5181,1.5181,1.5181,1.5181,1.5181,1.5269,1.5425,1.5772,1.5922,1.5962,1.6085,1.6083,1.6083,1.6083,1.6083,1.6069,1.5996,1.5949,1.5928,1.5737,1.5608,1.5499,1.5472,1.5357,1.5228,1.5228,1.5208,1.5181,1.5181,1.5181,1.5181,1.5181,1.5181,1.5181,1.5181,1.5181,1.5181,1.5181,1.5181,1.5181,1.5181,1.5181,1.5181,1.5181,1.5181,1.5181,1.5181,1.5181,1.5181,1.5181,1.5181,1.5181,1.5181,1.5181,1.5181,1.5181,1.5181,1.5181,1.5181,1.5181,1.5181,1.5181,1.5181,1.5181,1.5181,1.5215,1.5228,1.5228,1.5384,1.5459,1.5466,1.5615,1.5634,1.3152,1.3214,1.3248,1.3363,1.3566,1.3687,1.3687,1.3966,1.4183,1.4183,1.4245,1.4299,1.4299,1.4299,1.4299,1.4299,1.4299,1.4299,1.4299,1.4299,1.4299,1.4299,1.4299,1.4299,1.4299,1.4367,1.4441,1.4509,1.4658,1.4814,1.501,1.5085,1.5113,1.5181,1.5181,1.5181,1.5181,1.5181,1.5181,1.5181,1.5181,1.5181,1.5181,1.5181,1.5269,1.5418,1.5574,1.5683,1.5757,1.5839,1.5872,1.5872,1.5872,1.5872,1.5859,1.5778,1.575,1.573,1.5581,1.5479,1.5398,1.5323,1.5248,1.5181,1.5181,1.5181,1.5181,1.5181,1.5181,1.5181,1.5181,1.5181,1.5181,1.5181,1.5181,1.5181,1.5181,1.5181,1.5181,1.5181,1.5181,1.5181,1.5181,1.5181,1.5181,1.5181,1.5181,1.5181,1.5181,1.5181,1.5181,1.5181,1.5181,1.5181,1.5181,1.5181,1.5181,1.5181,1.5181,1.5181,1.5181,1.5181,1.5181,1.5181,1.5181,1.5181,1.5181,1.5262,1.5303,1.5303,1.5459,1.5479,1.3214,1.3214,1.3275,1.3336,1.3587,1.3761,1.3761,1.4041,1.4272,1.4292,1.4299,1.4299,1.4299,1.4299,1.4299,1.4299,1.4299,1.4299,1.4299,1.4299,1.4299,1.4299,1.4299,1.4299,1.4299,1.4299,1.4346,1.4468,1.4496,1.4624,1.4875,1.4989,1.5071,1.514,1.5167,1.5181,1.5181,1.5181,1.5181,1.5181,1.5181,1.5181,1.5181,1.5181,1.5248,1.5371,1.5398,1.5486,1.5553,1.558,1.5593,1.5593,1.5593,1.5593,1.5587,1.556,1.5553,1.5533,1.5425,1.5371,1.535,1.5221,1.5181,1.5181,1.5181,1.5181,1.5181,1.5181,1.5181,1.5181,1.5181,1.5181,1.5181,1.5181,1.5181,1.5181,1.5181,1.5181,1.5181,1.5181,1.5181,1.5181,1.5181,1.5181,1.5181,1.5181,1.5181,1.5181,1.5181,1.5181,1.5181,1.5181,1.5181,1.5181,1.5181,1.5181,1.5181,1.5181,1.5181,1.5181,1.5181,1.5181,1.5181,1.5181,1.5181,1.5181,1.5181,1.5181,1.5181,1.5187,1.5309,1.5371,1.3329,1.337,1.3342,1.3227,1.3431,1.3612,1.3612,1.3885,1.4143,1.4272,1.4299,1.4299,1.4299,1.4299,1.4299,1.4299,1.4299,1.4299,1.4299,1.4299,1.4299,1.4299,1.4299,1.4299,1.4299,1.4299,1.4306,1.4326,1.4441,1.4529,1.457,1.4828,1.5023,1.5044,1.512,1.5181,1.5181,1.5181,1.5181,1.5181,1.5181,1.5181,1.5181,1.5181,1.5194,1.5221,1.535,1.5425,1.5452,1.5539,1.5593,1.5593,1.5593,1.5593,1.5573,1.5493,1.5438,1.5418,1.5269,1.5215,1.5208,1.5187,1.5181,1.5181,1.5181,1.5181,1.5181,1.5181,1.5181,1.5181,1.5181,1.5181,1.5181,1.5181,1.5181,1.5181,1.5181,1.5181,1.5181,1.5181,1.5181,1.5181,1.5181,1.5181,1.5181,1.5181,1.5181,1.5181,1.5181,1.5181,1.5181,1.5181,1.5181,1.5181,1.5181,1.5181,1.5181,1.5181,1.5181,1.5181,1.5181,1.5181,1.5181,1.5181,1.5181,1.5181,1.5181,1.5181,1.5181,1.5181,1.5201,1.5215,1.3383,1.3403,1.3383,1.3315,1.3464,1.3605,1.3687,1.3912,1.4159,1.4272,1.4299,1.4299,1.4299,1.4299,1.4299,1.4299,1.4299,1.4299,1.4299,1.4299,1.4299,1.4299,1.4299,1.4299,1.4299,1.4299,1.4299,1.4299,1.436,1.4428,1.4509,1.4719,1.4882,1.5017,1.5106,1.5181,1.5181,1.5181,1.5181,1.5181,1.5181,1.5181,1.5181,1.5181,1.5181,1.5187,1.5255,1.5282,1.5289,1.5357,1.5384,1.5384,1.5384,1.5384,1.5377,1.5309,1.5282,1.5276,1.5208,1.5181,1.5181,1.5181,1.5181,1.5181,1.5181,1.5181,1.5181,1.5181,1.5181,1.5181,1.5181,1.5181,1.5181,1.5181,1.5181,1.5181,1.5181,1.5181,1.5181,1.5181,1.5181,1.5181,1.5181,1.5181,1.5181,1.5181,1.5181,1.5181,1.5181,1.5181,1.5181,1.5181,1.5181,1.5181,1.5181,1.5181,1.5181,1.5181,1.5181,1.5181,1.5181,1.5181,1.5181,1.5181,1.5181,1.5181,1.5181,1.5181,1.5181,1.5181,1.5181,1.5181,1.3403,1.3403,1.3403,1.3403,1.3485,1.3565,1.3714,1.3905,1.4055,1.4211,1.4272,1.4299,1.4299,1.4299,1.4299,1.4299,1.4299,1.4299,1.4299,1.4299,1.4299,1.4299,1.4299,1.4299,1.4299,1.4299,1.4299,1.4299,1.4299,1.4346,1.4448,1.4604,1.4753,1.4909,1.5052,1.5194,1.5181,1.5181,1.5181,1.5181,1.5181,1.5181,1.5181,1.5181,1.5181,1.5181,1.5181,1.5181,1.5181,1.5181,1.5181,1.5181,1.5181,1.5181,1.5181,1.5181,1.5181,1.5181,1.5181,1.5181,1.5181,1.5181,1.5181,1.5181,1.5181,1.5181,1.5181,1.5181,1.5181,1.5181,1.5181,1.5181,1.5181,1.5181,1.5181,1.5181,1.5181,1.5181,1.5181,1.5181,1.5181,1.5181,1.5181,1.5181,1.5181,1.5181,1.5181,1.5181,1.5181,1.5181,1.5181,1.5181,1.5181,1.5181,1.5181,1.5181,1.5181,1.5181,1.5181,1.5181,1.5181,1.5181,1.5181,1.5181,1.5181,1.5181,1.5181,1.5181,1.5181,1.5181,1.5181,1.5181,1.3403,1.3403,1.3403,1.3403,1.3403,1.3451,1.3565,1.3707,1.3856,1.4055,1.4197,1.4299,1.4299,1.4299,1.4299,1.4299,1.4299,1.4299,1.4299,1.4299,1.4299,1.4299,1.4299,1.4299,1.4299,1.4299,1.4299,1.4299,1.4299,1.4306,1.4312,1.4448,1.4545,1.4701,1.4903,1.5091,1.5181,1.5181,1.5181,1.5181,1.5181,1.5181,1.5181,1.5181,1.5181,1.5181,1.5181,1.5181,1.5181,1.5181,1.5181,1.5181,1.5181,1.5181,1.5181,1.5181,1.5181,1.5181,1.5181,1.5181,1.5181,1.5181,1.5181,1.5181,1.5181,1.5181,1.5181,1.5181,1.5181,1.5181,1.5181,1.5181,1.5181,1.5181,1.5181,1.5181,1.5181,1.5181,1.5181,1.5181,1.5181,1.5181,1.5181,1.5181,1.5181,1.5181,1.5181,1.5181,1.5181,1.5181,1.5181,1.5181,1.5181,1.5181,1.5181,1.5181,1.5181,1.5181,1.5181,1.5181,1.5181,1.5181,1.5181,1.5181,1.5181,1.5181,1.5181,1.5181,1.5181,1.5181,1.5181,1.5181,1.3403,1.3403,1.3403,1.3403,1.3403,1.3444,1.3551,1.3626,1.3734,1.4021,1.4159,1.4183,1.4285,1.4299,1.4299,1.4299,1.4299,1.4299,1.4299,1.4299,1.4299,1.4299,1.4299,1.4299,1.4299,1.4299,1.4299,1.4299,1.4299,1.4299,1.4299,1.4434,1.4536,1.459,1.4841,1.5038,1.5181,1.5181,1.5181,1.5181,1.5181,1.5181,1.5181,1.5181,1.5181,1.5181,1.5181,1.5181,1.5181,1.5181,1.5181,1.5181,1.5181,1.5181,1.5181,1.5181,1.5181,1.5181,1.5181,1.5181,1.5181,1.5181,1.5181,1.5181,1.5181,1.5181,1.5181,1.5181,1.5181,1.5181,1.5181,1.5181,1.5181,1.5181,1.5181,1.5181,1.5181,1.5181,1.5181,1.5181,1.5181,1.5181,1.5181,1.5181,1.5181,1.5181,1.5181,1.5181,1.5181,1.5181,1.5181,1.5181,1.5181,1.5181,1.5181,1.5181,1.5181,1.5181,1.5181,1.5181,1.5181,1.5181,1.5181,1.5181,1.5181,1.5181,1.5181,1.5181,1.5181,1.5181,1.5181,1.5181,1.3403,1.3403,1.3403,1.3403,1.3403,1.3424,1.3532,1.3551,1.3646,1.3885,1.4,1.4146,1.4204,1.4265,1.4299,1.4299,1.4299,1.4299,1.4299,1.4299,1.4299,1.4299,1.4299,1.4299,1.4299,1.4299,1.4299,1.4299,1.4299,1.4299,1.4299,1.4387,1.4489,1.4539,1.4835,1.5038,1.5181,1.5181,1.5181,1.5181,1.5181,1.5181,1.5181,1.5181,1.5181,1.5181,1.5181,1.5181,1.5181,1.5181,1.5181,1.5181,1.5181,1.5181,1.5181,1.5181,1.5181,1.5181,1.5181,1.5181,1.5181,1.5181,1.5181,1.5181,1.5181,1.5181,1.5181,1.5181,1.5181,1.5181,1.5181,1.5181,1.5181,1.5181,1.5181,1.5181,1.5181,1.5181,1.5181,1.5181,1.5181,1.5181,1.5181,1.5181,1.5181,1.5181,1.5181,1.5181,1.5181,1.5181,1.5181,1.5181,1.5181,1.5181,1.5181,1.5181,1.5181,1.5181,1.5181,1.5181,1.5181,1.5181,1.5181,1.5181,1.5181,1.5181,1.5181,1.5181,1.5181,1.5181,1.5181,1.5181,0.0,0.0,0.0,1.3403,1.3403,1.3403,1.3403,1.3512,1.3585,1.3585,1.3858,1.4105,1.4105,1.419,1.4292,1.4292,1.4299,1.4299,1.4299,1.4299,1.4299,1.4299,1.4299,1.4299,1.4299,1.4299,1.4299,1.4299,1.4299,1.4299,1.4299,1.4299,1.4434,1.4681,1.4882,1.5078,1.5174,1.5181,1.5181,1.5181,1.5181,1.5181,1.5181,1.5181,1.5181,1.5181,1.5181,1.5181,1.5181,1.5181,1.5181,1.5181,1.5181,1.5181,1.5181,1.5181,1.5181,1.5181,1.5181,1.5181,1.5181,1.5181,1.5181,1.5181,1.5181,1.5181,1.5181,1.5181,1.5181,1.5181,1.5181,1.5181,1.5181,1.5181,1.5181,1.5181,1.5181,1.5181,1.5181,1.5181,1.5181,1.5181,1.5181,1.5181,1.5181,1.5181,1.5181,1.5181,1.5181,1.5181,1.5181,1.5181,1.5181,1.5181,1.5181,1.5181,1.5181,1.5181,1.5181,1.5181,1.5181,1.5181,1.5181,1.5181,1.5181,1.5181,1.5181,1.5181,1.5181,1.5181,1.5181,1.5181,1.3403,0.0,0.0,0.0,0.0,0.0,1.3403,1.3437,1.3498,1.3565,1.3653,1.3783,1.3885,1.4027,1.418,1.418,1.4231,1.4299,1.4299,1.4299,1.4299,1.4299,1.4299,1.4299,1.4299,1.4299,1.4299,1.4299,1.4299,1.4299,1.4299,1.4299,1.4387,1.457,1.4681,1.4875,1.5025,1.5133,1.5181,1.5181,1.5181,1.5181,1.5181,1.5181,1.5181,1.5181,1.5181,1.5181,1.5181,1.5181,1.5181,1.5181,1.5181,1.5181,1.5181,1.5181,1.5181,1.5181,1.5181,1.5181,1.5181,1.5181,1.5181,1.5181,1.5181,1.5181,1.5181,1.5181,1.5181,1.5181,1.5181,1.5181,1.5181,1.5181,1.5181,1.5181,1.5181,1.5181,1.5181,1.5181,1.5181,1.5181,1.5181,1.5181,1.5181,1.5181,1.5181,1.5181,1.5181,1.5181,1.5181,1.5181,1.5181,1.5181,1.5181,1.5181,1.5181,1.5181,1.5181,1.5181,1.5181,1.5181,1.5181,1.5181,1.5181,1.5181,1.5181,1.5181,1.5181,1.5181,1.5181,1.5181,0.0,0.0,1.3403,1.3403,0.0,0.0,1.3403,1.3403,1.3424,1.3512,1.3545,1.3612,1.3693,1.3871,1.3973,1.3973,1.4102,1.4224,1.4292,1.4299,1.4299,1.4299,1.4299,1.4299,1.4299,1.4299,1.4299,1.4299,1.4299,1.4299,1.4299,1.4299,1.4367,1.4509,1.4597,1.4719,1.4875,1.5018,1.5139,1.5139,1.5153,1.5181,1.5181,1.5181,1.5181,1.5181,1.5181,1.5181,1.5181,1.5181,1.5181,1.5181,1.5181,1.5181,1.5181,1.5181,1.5181,1.5181,1.5181,1.5181,1.5181,1.5181,1.5181,1.5181,1.5181,1.5181,1.5181,1.5181,1.5181,1.5181,1.5181,1.5181,1.5181,1.5181,1.5181,1.5181,1.5181,1.5181,1.5181,1.5181,1.5181,1.5181,1.5181,1.5181,1.5181,1.5181,1.5181,1.5181,1.5181,1.5181,1.5181,1.5181,1.5181,1.5181,1.5181,1.5181,1.5181,1.5181,1.5181,1.5181,1.5181,1.5181,1.5181,1.5181,1.5181,1.5181,1.5181,1.5181,1.5181,1.5181,1.5181,1.5181,0.0,0.0,0.0,0.0,1.3403,0.0,1.3403,1.3403,1.3403,1.3403,1.3512,1.3565,1.3565,1.368,1.3781,1.3795,1.3953,1.4102,1.4251,1.4292,1.4299,1.4299,1.4299,1.4299,1.4299,1.4299,1.4299,1.4299,1.4299,1.4299,1.4299,1.4299,1.436,1.4482,1.4502,1.4577,1.4667,1.4869,1.4996,1.5017,1.5099,1.5167,1.5181,1.5181,1.5181,1.5181,1.5181,1.5181,1.5181,1.5181,1.5181,1.5181,1.5181,1.5181,1.5181,1.5181,1.5181,1.5181,1.5181,1.5181,1.5181,1.5181,1.5181,1.5181,1.5181,1.5181,1.5181,1.5181,1.5181,1.5181,1.5181,1.5181,1.5181,1.5181,1.5181,1.5181,1.5181,1.5181,1.5181,1.5181,1.5181,1.5181,1.5181,1.5181,1.5181,1.5181,1.5181,1.5181,1.5181,1.5181,1.5181,1.5181,1.5181,1.5181,1.5181,1.5181,1.5181,1.5181,1.5181,1.5181,1.5181,1.5181,1.5181,1.5181,1.5181,1.5181,1.5181,1.5181,1.5181,1.5181,1.5181,1.5181,0.0,0.0,0.0,0.0,0.0,0.0,1.3403,1.3403,1.3403,1.3403,1.3424,1.3444,1.3444,1.3566,1.3666,1.3781,1.3822,1.3939,1.4095,1.4224,1.4299,1.4299,1.4299,1.4299,1.4299,1.4299,1.4299,1.4299,1.4299,1.4299,1.4299,1.4299,1.4312,1.434,1.4448,1.4523,1.4557,1.466,1.4848,1.5017,1.5044,1.5119,1.5181,1.5181,1.5181,1.5181,1.5181,1.5181,1.5181,1.5181,1.5181,1.5181,1.5181,1.5181,1.5181,1.5181,1.5181,1.5181,1.5181,1.5181,1.5181,1.5181,1.5181,1.5181,1.5181,1.5181,1.5181,1.5181,1.5181,1.5181,1.5181,1.5181,1.5181,1.5181,1.5181,1.5181,1.5181,1.5181,1.5181,1.5181,1.5181,1.5181,1.5181,1.5181,1.5181,1.5181,1.5181,1.5181,1.5181,1.5181,1.5181,1.5181,1.5181,1.5181,1.5181,1.5181,1.5181,1.5181,1.5181,1.5181,1.5181,1.5181,1.5181,1.5181,1.5181,1.5181,1.5181,1.5181,1.5181,1.5181,1.5181,1.5181,0.0,0.0,0.0,1.3403,0.0,0.0,0.0,1.3403,1.3403,1.3403,1.3403,1.3403,1.3403,1.3464,1.3539,1.3607,1.37,1.3802,1.3851,1.4048,1.4217,1.4292,1.4299,1.4299,1.4299,1.4299,1.4299,1.4299,1.4299,1.4299,1.4299,1.4299,1.4299,1.4299,1.4367,1.4407,1.4407,1.455,1.4665,1.474,1.4821,1.4896,1.4964,1.5038,1.5079,1.5079,1.5153,1.5181,1.5181,1.5181,1.5181,1.5181,1.5181,1.5181,1.5181,1.5181,1.5181,1.5181,1.5181,1.5181,1.5181,1.5181,1.5181,1.5181,1.5181,1.5181,1.5181,1.5181,1.5181,1.5181,1.5181,1.5181,1.5181,1.5181,1.5181,1.5181,1.5181,1.5181,1.5181,1.5181,1.5181,1.5181,1.5181,1.5181,1.5181,1.5181,1.5181,1.5181,1.5181,1.5181,1.5181,1.5181,1.5181,1.5181,1.5181,1.5181,1.5181,1.5181,1.5181,1.5181,1.5181,1.5181,1.5181,1.5181,1.5181,1.5181,1.5181,1.5181,1.5181,1.5181,1.5181,1.5181,0.0,0.0,0.0,0.0,0.0,1.3403,0.0,0.0,0.0,1.3403,1.3403,1.3403,1.3403,1.3403,1.339,1.3363,1.3538,1.3673,1.3558,1.3817,1.4041,1.4197,1.4265,1.4285,1.4258,1.4285,1.4299,1.4299,1.4299,1.4299,1.4299,1.4299,1.4299,1.4299,1.4299,1.4299,1.4299,1.4414,1.4482,1.4516,1.4593,1.4667,1.4701,1.4869,1.493,1.4936,1.5045,1.5099,1.5099,1.5099,1.5099,1.5099,1.516,1.5181,1.5181,1.5181,1.5181,1.5181,1.5181,1.5181,1.5181,1.5181,1.5181,1.5181,1.5181,1.5181,1.5181,1.5181,1.5181,1.5181,1.5181,1.5181,1.5181,1.5181,1.5181,1.5181,1.5181,1.5181,1.5181,1.5181,1.5181,1.5181,1.5181,1.5181,1.5181,1.5181,1.5181,1.5181,1.5181,1.5181,1.5181,1.5181,1.5181,1.5181,1.5181,1.5181,1.5181,1.5181,1.5181,1.5181,1.5181,1.5181,1.5181,1.5181,1.5181,1.5181,1.5181,1.5181,1.5181,1.5181,1.5181,1.5181,0.0,0.0,0.0,0.0,1.3403,0.0,1.3403,0.0,1.3403,1.3403,0.0,1.3403,1.3403,0.0,0.0,1.322,1.3342,1.3444,1.3431,1.3573,1.3693,1.3835,1.4136,1.4245,1.4109,1.4224,1.4299,1.4299,1.4299,1.4299,1.4299,1.4299,1.4299,1.4299,1.4299,1.4299,1.4299,1.4319,1.4387,1.4509,1.4529,1.4566,1.4694,1.4714,1.4721,1.4721,1.4735,1.4741,1.4741,1.4741,1.4741,1.4769,1.5079,1.5181,1.5181,1.5181,1.5181,1.5181,1.5181,1.5181,1.5181,1.5181,1.5181,1.5181,1.5181,1.5181,1.5181,1.5181,1.5181,1.5181,1.5181,1.5181,1.5181,1.5181,1.5181,1.5181,1.5181,1.5181,1.5181,1.5181,1.5181,1.5181,1.5181,1.5181,1.5181,1.5181,1.5181,1.5181,1.5181,1.5181,1.5181,1.5181,1.5181,1.5181,1.5181,1.5181,1.5181,1.5181,1.5181,1.5181,1.5181,1.5181,1.5181,1.5181,1.5181,1.5181,1.5181,1.5181,1.5181,1.5181,1.5181,1.5181,0.0,0.0,0.0,0.0,0.0,0.0,1.3403,0.0,1.3403,0.0,0.0,0.0,0.0,0.0,0.0,0.0,1.3437,1.3505,1.341,1.3558,1.3734,1.3788,1.4034,1.4177,1.4204,1.4265,1.4299,1.4299,1.4299,1.4299,1.4299,1.4299,1.4299,1.4299,1.4299,1.4299,1.4299,1.4299,1.4333,1.4387,1.4387,1.4421,1.4489,1.457,1.4566,1.4611,1.4654,1.4694,1.4694,1.4694,1.4694,1.4708,1.4829,1.4984,1.5059,1.5059,1.5113,1.5181,1.5181,1.5181,1.5181,1.5181,1.5181,1.5181,1.5181,1.5181,1.5181,1.5181,1.5181,1.5181,1.5181,1.5181,1.5181,1.5181,1.5181,1.5181,1.5181,1.5181,1.5181,1.5181,1.5181,1.5181,1.5181,1.5181,1.5181,1.5181,1.5181,1.5181,1.5181,1.5181,1.5181,1.5181,1.5181,1.5181,1.5181,1.5181,1.5181,1.5181,1.5181,1.5181,1.5181,1.5181,1.5181,1.5181,1.5181,1.5181,1.5181,1.5181,1.5181,1.5181,1.5181,1.5181,1.3403,0.0,0.0,0.0,0.0,0.0,0.0,0.0,0.0,0.0,0.0,0.0,0.0,0.0,0.0,0.0,0.0,1.3498,1.3308,1.3532,1.368,1.368,1.3858,1.4027,1.4217,1.4238,1.4251,1.4299,1.4299,1.4299,1.4299,1.4299,1.4299,1.4299,1.4299,1.4299,1.4299,1.4299,1.4299,1.4299,1.4299,1.4299,1.4306,1.4407,1.4455,1.4462,1.457,1.4572,1.4572,1.4572,1.4572,1.4572,1.4572,1.4713,1.4848,1.4896,1.497,1.5059,1.5059,1.5059,1.5065,1.5113,1.5173,1.5133,1.5167,1.5181,1.5181,1.5181,1.5181,1.5181,1.5181,1.5181,1.5181,1.5181,1.5181,1.5181,1.5181,1.5181,1.5181,1.5181,1.5181,1.5181,1.5181,1.5181,1.5181,1.5181,1.5181,1.5181,1.5181,1.5181,1.5181,1.5181,1.5181,1.5181,1.5181,1.5181,1.5181,1.5181,1.5181,1.5181,1.5181,1.5181,1.5181,1.5181,1.5181,1.5181,1.5181,1.5181,1.5181,1.5181,1.5181,1.5181,0.0,0.0,0.0,1.3403,0.0,0.0,0.0,0.0,1.3403,0.0,0.0,0.0,0.0,0.0,0.0,0.0,0.0,0.0,0.0,1.3227,1.3417,1.3417,1.3553,1.3756,1.4048,1.4125,1.4143,1.4292,1.4299,1.4299,1.4299,1.4299,1.4299,1.4299,1.4299,1.4299,1.4299,1.4299,1.4299,1.4299,1.4299,1.4299,1.4299,1.4306,1.4306,1.4306,1.4312,1.4312,1.4312,1.4312,1.4312,1.4312,1.4312,1.4401,1.4543,1.4647,1.4708,1.4708,1.4708,1.4708,1.4735,1.493,1.5023,1.5051,1.514,1.5181,1.5181,1.5181,1.5181,1.5181,1.5181,1.5181,1.5181,1.5181,1.5181,1.5181,1.5181,1.5181,1.5181,1.5181,1.5181,1.5181,1.5181,1.5181,1.5181,1.5181,1.5181,1.5181,1.5181,1.5181,1.5181,1.5181,1.5181,1.5181,1.5181,1.5181,1.5181,1.5181,1.5181,1.5181,1.5181,1.5181,1.5181,1.5181,1.5181,1.5181,1.5181,1.5181,1.5181,1.5181,1.5181,1.5181,0.0,0.0,1.3403,1.3403,0.0,0.0,0.0,0.0,0.0,0.0,0.0,0.0,0.0,0.0,0.0,0.0,0.0,0.0,0.0,1.3336,1.3403,1.3403,1.3539,1.366,1.3899,1.4014,1.4139,1.4143,1.4245,1.4299,1.4299,1.4299,1.4299,1.4299,1.4299,1.4299,1.4299,1.4299,1.4299,1.4299,1.4299,1.4299,1.4299,1.4299,1.4299,1.4299,1.4299,1.4299,1.4299,1.4299,1.4299,1.4299,1.4299,1.4333,1.4387,1.4536,1.4606,1.4694,1.4694,1.4694,1.4701,1.4801,1.4821,1.4848,1.4997,1.5091,1.5112,1.52,1.5181,1.5181,1.5181,1.5181,1.5181,1.5181,1.5181,1.5181,1.5181,1.5181,1.5181,1.5181,1.5181,1.5181,1.5181,1.5181,1.5181,1.5181,1.5181,1.5181,1.5181,1.5181,1.5181,1.5181,1.5181,1.5181,1.5181,1.5181,1.5181,1.5181,1.5181,1.5181,1.5181,1.5181,1.5181,1.5181,1.5181,1.5181,1.5181,1.5181,1.5181,1.5181,1.5181,1.5181,1.3403,1.3403,0.0,1.3403,1.3403,0.0,1.3403,0.0,1.3403,0.0,0.0,0.0,0.0,0.0,0.0,0.0,0.0,0.0,0.0,1.3403,1.3403,1.3403,1.3492,1.3585,1.3781,1.3933,1.4034,1.4143,1.4245,1.4299,1.4299,1.4299,1.4299,1.4299,1.4299,1.4299,1.4299,1.4299,1.4299,1.4299,1.4299,1.4299,1.4299,1.4299,1.4299,1.4299,1.4299,1.4299,1.4299,1.4299,1.4299,1.4299,1.4299,1.4299,1.4312,1.4401,1.4496,1.4539,1.4539,1.4539,1.459,1.4593,1.4613,1.464,1.4841,1.4889,1.493,1.5126,1.5194,1.5133,1.5235,1.5221,1.5181,1.5181,1.5181,1.5181,1.5181,1.5181,1.5181,1.5181,1.5181,1.5181,1.5181,1.5181,1.5181,1.5181,1.5181,1.5181,1.5181,1.5181,1.5181,1.5181,1.5181,1.5181,1.5181,1.5181,1.5181,1.5181,1.5181,1.5181,1.5181,1.5181,1.5208,1.5262,1.5208,1.5208,1.5262,1.5208,1.5181,1.5181,1.5181,1.5181]},{"header":{"parameterUnit":"m.s-1","parameterCategory":1,"la1":30.6,"la2":29.2853,"lo1":-89.7004,"lo2":-87.6739,"dy":0.0162,"dx":0.0183,"nx":112,"ny":82,"refTime":"2023-09-25T12:00:00:Z","depth":0,"parameterNumber":3,"parameterNumberName":"V-component_of_WINDS"},"data":[0.0,0.0,0.0,0.0,0.0,0.0,0.0,0.0,0.0,0.0,0.0,0.0,0.0,0.0,0.0,0.0,0.0,0.0,0.0,0.0,0.0,0.0,0.0,0.0,0.0,0.0,0.0,0.0,0.0,0.0,0.0,0.0,0.0,0.0,0.0,0.0,0.0,0.0,0.0,0.0,0.0,0.0,0.0,0.0,0.0,0.0,0.0,0.0,0.0,0.0,0.0,0.0,0.0,0.0,0.0,0.0,0.0,0.0,0.0,0.0,0.0,0.0,0.0,0.0,0.0,0.0,0.0,0.0,0.0,0.0,0.0,0.0,0.0,0.0,0.0,0.0,0.0,0.0,0.0,0.0,0.0,0.0,0.0,0.0,0.0,0.0,0.0,0.0,0.0,0.0,5.3838,5.4509,5.5181,5.5658,5.5768,5.5805,5.5842,5.5952,0.0,0.0,0.0,0.0,0.0,0.0,0.0,0.0,0.0,0.0,0.0,0.0,0.0,0.0,0.0,0.0,0.0,0.0,0.0,0.0,0.0,0.0,0.0,0.0,0.0,0.0,0.0,0.0,0.0,0.0,0.0,0.0,0.0,0.0,0.0,0.0,0.0,0.0,0.0,0.0,0.0,0.0,0.0,0.0,0.0,0.0,0.0,0.0,0.0,0.0,0.0,0.0,0.0,0.0,0.0,0.0,0.0,0.0,0.0,0.0,0.0,0.0,0.0,0.0,0.0,0.0,0.0,0.0,0.0,0.0,0.0,0.0,0.0,0.0,0.0,0.0,0.0,0.0,0.0,0.0,0.0,0.0,0.0,0.0,0.0,0.0,0.0,0.0,0.0,0.0,0.0,0.0,0.0,0.0,0.0,0.0,0.0,0.0,0.0,0.0,0.0,0.0,0.0,0.0,5.5291,5.5401,5.5548,5.5879,5.6565,5.6638,5.6895,5.7593,0.0,0.0,0.0,0.0,0.0,0.0,0.0,0.0,0.0,0.0,0.0,0.0,0.0,0.0,0.0,0.0,0.0,0.0,0.0,0.0,0.0,0.0,0.0,0.0,0.0,0.0,0.0,0.0,0.0,0.0,0.0,0.0,0.0,0.0,0.0,0.0,0.0,0.0,0.0,0.0,0.0,0.0,0.0,0.0,0.0,0.0,0.0,0.0,0.0,0.0,0.0,0.0,0.0,0.0,0.0,0.0,0.0,0.0,0.0,0.0,0.0,0.0,0.0,0.0,0.0,0.0,0.0,0.0,0.0,0.0,0.0,0.0,0.0,0.0,0.0,0.0,0.0,0.0,0.0,0.0,0.0,0.0,0.0,0.0,0.0,0.0,0.0,0.0,0.0,0.0,0.0,0.0,0.0,0.0,0.0,0.0,0.0,0.0,0.0,0.0,0.0,0.0,0.0,5.5757,5.6235,5.6235,5.6638,5.7042,5.7409,5.7446,5.7593,5.796,5.731,0.0,0.0,0.0,0.0,0.0,0.0,0.0,0.0,0.0,0.0,0.0,0.0,0.0,0.0,0.0,0.0,0.0,0.0,0.0,0.0,0.0,0.0,0.0,0.0,0.0,0.0,0.0,0.0,0.0,0.0,0.0,0.0,0.0,0.0,0.0,0.0,0.0,0.0,0.0,0.0,0.0,0.0,0.0,0.0,0.0,0.0,0.0,0.0,0.0,0.0,0.0,0.0,0.0,0.0,0.0,0.0,0.0,0.0,0.0,0.0,0.0,0.0,0.0,0.0,0.0,0.0,0.0,0.0,0.0,0.0,0.0,0.0,0.0,0.0,0.0,0.0,0.0,0.0,0.0,0.0,0.0,0.0,0.0,0.0,0.0,0.0,0.0,0.0,0.0,0.0,0.0,0.0,0.0,0.0,0.0,0.0,0.0,0.0,0.0,0.0,0.0,0.0,5.6712,5.7079,5.7079,5.7629,5.7997,5.7997,5.7997,5.7997,5.7997,5.7997,0.0,0.0,0.0,0.0,0.0,0.0,0.0,0.0,0.0,0.0,0.0,0.0,0.0,0.0,0.0,0.0,0.0,0.0,0.0,0.0,0.0,0.0,0.0,0.0,0.0,0.0,0.0,0.0,0.0,0.0,0.0,0.0,0.0,0.0,0.0,0.0,0.0,0.0,0.0,0.0,0.0,0.0,0.0,0.0,0.0,0.0,0.0,0.0,0.0,0.0,0.0,0.0,0.0,0.0,0.0,0.0,0.0,0.0,0.0,0.0,0.0,0.0,0.0,0.0,0.0,0.0,0.0,0.0,0.0,0.0,0.0,0.0,0.0,0.0,0.0,0.0,0.0,0.0,0.0,0.0,0.0,0.0,0.0,0.0,0.0,0.0,0.0,0.0,0.0,0.0,0.0,0.0,0.0,0.0,0.0,0.0,0.0,0.0,0.0,0.0,0.0,0.0,5.7886,5.7923,5.7923,5.796,5.7997,5.7997,5.7997,5.7997,5.7997,5.7997,0.0,0.0,0.0,0.0,0.0,0.0,0.0,0.0,0.0,0.0,0.0,0.0,0.0,0.0,0.0,0.0,0.0,0.0,0.0,0.0,0.0,0.0,0.0,0.0,0.0,0.0,0.0,0.0,0.0,0.0,0.0,0.0,0.0,0.0,0.0,0.0,0.0,0.0,0.0,0.0,0.0,0.0,0.0,0.0,0.0,0.0,0.0,0.0,0.0,0.0,0.0,0.0,0.0,0.0,0.0,0.0,0.0,0.0,0.0,0.0,0.0,0.0,0.0,0.0,0.0,0.0,0.0,0.0,0.0,0.0,0.0,0.0,0.0,0.0,0.0,0.0,0.0,0.0,0.0,0.0,0.0,0.0,0.0,0.0,0.0,0.0,0.0,0.0,0.0,0.0,0.0,0.0,0.0,0.0,0.0,0.0,0.0,0.0,0.0,0.0,0.0,0.0,5.7997,5.818,0.0,5.8756,5.8939,5.9465,5.9501,5.9501,5.9501,0.0,0.0,0.0,0.0,0.0,0.0,0.0,0.0,0.0,0.0,0.0,0.0,0.0,0.0,0.0,0.0,0.0,0.0,0.0,0.0,0.0,0.0,0.0,0.0,0.0,0.0,0.0,0.0,0.0,0.0,0.0,0.0,0.0,0.0,0.0,0.0,0.0,0.0,0.0,0.0,0.0,0.0,0.0,0.0,0.0,0.0,0.0,0.0,0.0,0.0,0.0,0.0,0.0,0.0,0.0,0.0,0.0,0.0,0.0,0.0,0.0,0.0,0.0,0.0,0.0,0.0,0.0,0.0,0.0,0.0,0.0,0.0,0.0,0.0,0.0,0.0,0.0,0.0,0.0,0.0,0.0,0.0,0.0,0.0,0.0,0.0,0.0,0.0,0.0,0.0,0.0,0.0,0.0,0.0,0.0,0.0,0.0,0.0,0.0,0.0,0.0,0.0,5.84,5.8584,5.8988,0.0,5.96,5.9783,6.0346,6.0419,6.0419,6.0419,0.0,0.0,0.0,0.0,0.0,0.0,0.0,0.0,0.0,0.0,0.0,0.0,0.0,0.0,0.0,0.0,0.0,0.0,0.0,0.0,0.0,0.0,0.0,0.0,0.0,0.0,0.0,0.0,0.0,0.0,0.0,0.0,0.0,0.0,0.0,0.0,0.0,0.0,0.0,0.0,0.0,0.0,0.0,0.0,0.0,0.0,0.0,0.0,0.0,0.0,0.0,0.0,0.0,0.0,0.0,0.0,0.0,0.0,0.0,0.0,0.0,0.0,0.0,0.0,0.0,0.0,0.0,0.0,0.0,0.0,0.0,0.0,0.0,0.0,0.0,0.0,0.0,0.0,0.0,0.0,0.0,0.0,0.0,0.0,0.0,0.0,0.0,0.0,0.0,0.0,0.0,0.0,0.0,0.0,0.0,0.0,0.0,0.0,0.0,0.0,0.0,0.0,5.9196,5.9893,6.0419,6.0419,6.0419,6.0407,6.0419,6.0419,6.0419,0.0,0.0,0.0,0.0,0.0,0.0,0.0,0.0,0.0,0.0,0.0,0.0,0.0,0.0,0.0,0.0,0.0,0.0,0.0,0.0,0.0,0.0,0.0,0.0,0.0,0.0,0.0,0.0,0.0,0.0,0.0,0.0,0.0,0.0,0.0,0.0,0.0,0.0,0.0,0.0,0.0,0.0,0.0,0.0,0.0,0.0,0.0,0.0,0.0,0.0,0.0,0.0,0.0,0.0,0.0,0.0,0.0,0.0,0.0,0.0,0.0,0.0,0.0,0.0,0.0,0.0,0.0,0.0,0.0,0.0,0.0,0.0,0.0,0.0,0.0,0.0,0.0,0.0,0.0,0.0,0.0,0.0,0.0,0.0,0.0,0.0,0.0,0.0,0.0,0.0,0.0,0.0,0.0,0.0,0.0,0.0,0.0,0.0,0.0,0.0,0.0,0.0,0.0,6.004,6.026,6.0639,6.119,6.1263,6.1484,6.2022,6.2095,6.2095,6.2095,0.0,0.0,0.0,0.0,0.0,0.0,0.0,0.0,0.0,0.0,0.0,0.0,0.0,0.0,0.0,0.0,0.0,0.0,0.0,0.0,0.0,0.0,0.0,0.0,0.0,0.0,0.0,0.0,0.0,0.0,0.0,0.0,0.0,0.0,0.0,0.0,0.0,0.0,0.0,0.0,0.0,0.0,0.0,0.0,0.0,0.0,0.0,0.0,0.0,0.0,0.0,0.0,0.0,0.0,0.0,0.0,0.0,0.0,0.0,0.0,0.0,0.0,0.0,0.0,0.0,0.0,0.0,0.0,0.0,0.0,0.0,0.0,0.0,0.0,0.0,0.0,0.0,0.0,0.0,0.0,0.0,0.0,0.0,0.0,0.0,0.0,0.0,0.0,0.0,0.0,0.0,0.0,0.0,0.0,0.0,0.0,0.0,0.0,0.0,0.0,0.0,0.0,6.0896,6.1141,6.1545,6.2034,6.2071,6.2291,6.2756,6.2793,6.2793,6.2793,0.0,0.0,0.0,0.0,0.0,0.0,0.0,0.0,0.0,0.0,0.0,0.0,0.0,0.0,0.0,0.0,0.0,0.0,0.0,0.0,0.0,0.0,0.0,0.0,0.0,0.0,0.0,0.0,0.0,0.0,0.0,0.0,0.0,0.0,0.0,0.0,0.0,0.0,0.0,0.0,0.0,0.0,0.0,0.0,0.0,0.0,0.0,0.0,0.0,0.0,0.0,0.0,0.0,0.0,0.0,0.0,0.0,0.0,0.0,0.0,0.0,0.0,0.0,0.0,0.0,0.0,0.0,0.0,0.0,0.0,0.0,0.0,0.0,0.0,0.0,0.0,0.0,0.0,0.0,0.0,0.0,0.0,0.0,0.0,0.0,0.0,0.0,0.0,0.0,0.0,0.0,0.0,0.0,0.0,0.0,0.0,0.0,0.0,0.0,0.0,0.0,0.0,6.1704,6.2365,6.2793,6.2793,6.2793,6.2793,6.2793,6.2866,6.2903,6.2903,0.0,0.0,0.0,0.0,0.0,0.0,0.0,0.0,0.0,0.0,0.0,0.0,0.0,0.0,0.0,0.0,0.0,0.0,0.0,0.0,0.0,0.0,0.0,0.0,0.0,0.0,0.0,0.0,0.0,0.0,0.0,0.0,0.0,0.0,0.0,0.0,0.0,0.0,0.0,0.0,0.0,0.0,0.0,0.0,0.0,0.0,0.0,0.0,0.0,0.0,0.0,0.0,0.0,0.0,0.0,0.0,0.0,0.0,0.0,0.0,4.8145,4.8271,0.0,0.0,0.0,0.0,0.0,0.0,0.0,0.0,0.0,0.0,0.0,0.0,0.0,0.0,0.0,0.0,0.0,0.0,0.0,0.0,0.0,0.0,0.0,0.0,0.0,0.0,0.0,0.0,0.0,0.0,0.0,0.0,0.0,0.0,0.0,0.0,0.0,0.0,0.0,0.0,6.2536,6.2683,6.2793,6.2793,6.2793,6.2793,6.2793,6.3429,6.3796,6.3796,6.442,0.0,0.0,0.0,0.0,0.0,0.0,0.0,0.0,0.0,0.0,0.0,0.0,0.0,0.0,0.0,0.0,0.0,0.0,0.0,0.0,0.0,0.0,0.0,0.0,0.0,0.0,0.0,0.0,0.0,0.0,0.0,0.0,0.0,0.0,0.0,0.0,0.0,0.0,0.0,0.0,0.0,0.0,0.0,0.0,0.0,0.0,0.0,0.0,0.0,0.0,0.0,0.0,0.0,0.0,0.0,0.0,0.0,0.0,0.0,5.0074,4.9864,0.0,0.0,0.0,0.0,0.0,0.0,0.0,0.0,0.0,0.0,0.0,0.0,0.0,0.0,0.0,0.0,0.0,0.0,0.0,0.0,0.0,0.0,0.0,0.0,0.0,0.0,0.0,0.0,0.0,0.0,0.0,0.0,0.0,0.0,0.0,0.0,0.0,0.0,0.0,0.0,6.3466,6.3429,6.3282,6.2829,6.2793,6.2793,6.2793,6.3613,6.4103,6.4103,6.4861,0.0,0.0,0.0,0.0,0.0,0.0,0.0,0.0,0.0,0.0,0.0,0.0,0.0,0.0,0.0,0.0,0.0,0.0,0.0,0.0,0.0,0.0,0.0,0.0,0.0,0.0,0.0,0.0,0.0,0.0,0.0,0.0,0.0,0.0,0.0,0.0,0.0,0.0,0.0,0.0,0.0,0.0,0.0,0.0,0.0,0.0,0.0,0.0,0.0,0.0,0.0,0.0,0.0,5.1527,5.1486,5.1486,5.1605,5.2292,5.339,5.2155,5.1646,5.1646,5.1646,0.0,0.0,0.0,0.0,0.0,0.0,0.0,0.0,0.0,0.0,0.0,0.0,0.0,0.0,0.0,0.0,0.0,0.0,0.0,0.0,0.0,0.0,5.96,6.0407,6.0603,6.0639,6.0786,0.0,0.0,0.0,0.0,0.0,0.0,0.0,0.0,0.0,0.0,0.0,6.4213,6.4103,6.3759,6.2903,6.2793,6.2793,6.2793,6.3613,6.4103,6.4103,6.5007,6.5435,0.0,0.0,0.0,0.0,0.0,0.0,0.0,0.0,0.0,0.0,0.0,0.0,0.0,0.0,0.0,0.0,0.0,0.0,0.0,0.0,0.0,0.0,0.0,0.0,0.0,0.0,0.0,0.0,0.0,0.0,0.0,0.0,4.8104,4.8809,0.0,0.0,0.0,0.0,0.0,0.0,0.0,0.0,0.0,0.0,0.0,0.0,0.0,5.2139,5.2863,5.357,5.4242,5.4961,5.495,5.4939,5.4939,5.495,5.506,5.5233,5.506,0.0,5.4961,5.4961,0.0,0.0,0.0,0.0,0.0,0.0,0.0,0.0,0.0,0.0,0.0,0.0,0.0,0.0,0.0,0.0,0.0,0.0,0.0,0.0,0.0,0.0,6.0456,6.1263,6.1447,6.163,6.2316,6.1924,6.163,6.2352,6.3172,0.0,0.0,0.0,0.0,0.0,0.0,0.0,6.4213,6.4103,6.3759,6.2903,6.2793,6.2793,6.2793,6.3613,6.4103,6.4103,6.5521,6.6035,6.5325,6.5962,0.0,0.0,0.0,0.0,0.0,0.0,0.0,0.0,0.0,0.0,0.0,0.0,0.0,0.0,0.0,0.0,0.0,0.0,0.0,0.0,0.0,0.0,0.0,0.0,0.0,0.0,0.0,0.0,0.0,4.9112,4.9718,5.0145,5.0552,5.0802,0.0,0.0,0.0,0.0,0.0,0.0,0.0,0.0,0.0,5.3482,5.4289,5.4876,5.5233,5.6014,5.6602,5.6943,5.6943,5.6943,5.6943,5.6943,5.7189,5.7618,5.7618,5.7886,5.8143,5.6356,5.5585,5.5585,0.0,0.0,0.0,0.0,5.6943,5.709,5.796,5.829,5.829,5.829,0.0,0.0,0.0,0.0,0.0,0.0,0.0,6.0493,6.097,6.108,6.1263,6.2071,6.2291,6.2365,6.2719,6.2499,6.2511,0.0,6.42,6.5044,6.5852,0.0,0.0,0.0,0.0,6.5668,6.4897,6.4383,6.3759,6.2903,6.2793,6.2793,6.2793,6.3613,6.4103,6.4103,6.5191,6.5888,6.5962,6.6329,6.6549,0.0,0.0,0.0,0.0,0.0,0.0,0.0,0.0,0.0,0.0,0.0,0.0,0.0,0.0,0.0,0.0,0.0,0.0,0.0,0.0,0.0,0.0,0.0,0.0,0.0,0.0,0.0,0.0,5.1035,5.1161,5.1673,5.172,5.1793,0.0,0.0,0.0,0.0,0.0,0.0,5.5879,5.5915,5.5989,5.6209,5.7005,5.7398,5.7398,5.8217,5.8621,5.8621,5.8621,5.8621,5.8621,5.8621,5.8951,5.9526,5.9526,5.9857,6.0199,5.7813,5.6833,5.6833,5.6833,5.6833,5.698,5.818,5.8621,5.8804,5.9979,6.0419,6.0419,6.0419,6.0529,6.0713,6.0713,0.0,0.0,0.0,0.0,6.1141,6.1741,6.1924,6.2108,6.2818,6.3039,6.316,6.326,6.3517,6.382,0.0,6.4567,6.5264,6.6035,0.0,0.0,0.0,0.0,6.6292,6.5692,6.5081,6.4383,6.3527,6.3453,6.3453,6.3453,6.4016,6.442,6.442,6.5154,6.5888,6.6476,6.6696,6.71,6.77,0.0,0.0,0.0,0.0,0.0,0.0,0.0,0.0,0.0,0.0,0.0,0.0,0.0,0.0,0.0,0.0,0.0,0.0,0.0,0.0,0.0,0.0,0.0,0.0,0.0,0.0,0.0,0.0,0.0,5.4032,5.4216,0.0,0.0,0.0,0.0,5.5475,5.5511,5.5879,5.6701,5.6737,5.7079,5.785,5.8646,5.9086,5.9086,5.9893,6.0272,6.0272,6.0272,6.0272,6.0272,6.0272,6.0309,6.0346,6.0346,6.037,6.037,6.0236,6.0162,6.0162,6.0162,6.0162,6.0162,6.0236,6.0272,6.0309,6.0382,6.0419,6.0419,6.0419,6.0933,6.152,6.152,6.2071,0.0,0.0,6.2683,6.2683,6.2719,6.2756,6.2855,6.3354,6.3761,6.4118,6.4528,6.5496,6.5852,0.0,6.4139,6.442,6.5215,0.0,6.5618,6.6439,6.6512,6.6476,6.6439,6.6402,6.6072,6.5251,6.5178,6.5178,6.5178,6.5215,6.5251,6.5251,6.5999,6.6476,6.6512,6.7223,6.7664,6.77,6.77,0.0,0.0,0.0,0.0,0.0,0.0,0.0,0.0,0.0,0.0,0.0,0.0,0.0,0.0,0.0,0.0,0.0,0.0,0.0,0.0,0.0,0.0,0.0,0.0,0.0,0.0,0.0,0.0,5.5108,5.5181,0.0,5.6308,5.6381,5.6785,5.7838,5.7912,5.8279,5.9049,5.9123,5.9245,5.9538,6.0309,6.0994,6.1508,6.2365,6.3025,6.3563,6.3563,6.3563,6.3563,6.3563,6.3563,6.3563,6.3563,6.3563,6.3563,6.3563,6.2316,6.0419,6.0419,6.0419,6.0456,6.097,6.1153,6.1263,6.1765,6.1949,6.1949,6.1949,6.2132,6.2475,6.3025,6.3392,6.3798,6.4646,6.4853,6.4924,6.5184,6.5262,6.5306,6.548,6.5411,6.5345,6.5522,6.5657,6.5558,6.4971,6.5705,6.6526,6.6819,6.6843,6.6953,6.7223,6.6843,6.6512,6.6512,6.6035,6.5618,6.5325,6.5288,6.5288,6.5288,6.5288,6.5508,6.6035,6.5852,6.6182,6.7223,6.704,6.7187,6.77,6.77,6.77,0.0,0.0,0.0,0.0,0.0,0.0,0.0,0.0,0.0,0.0,0.0,0.0,0.0,0.0,0.0,0.0,0.0,0.0,0.0,0.0,0.0,0.0,0.0,0.0,0.0,5.5842,5.6099,5.6393,5.665,5.7116,5.7948,5.8022,5.8462,5.9526,5.96,6.0077,6.1141,6.1215,6.1471,6.2022,6.2585,6.3099,6.3637,6.4237,6.4787,6.5288,6.5288,6.5288,6.5288,6.5288,6.5435,6.5705,6.5705,6.5852,6.6109,6.6109,6.4824,6.2805,6.2291,6.2059,6.2132,6.2658,6.2842,6.2915,6.3453,6.3637,6.3675,6.3837,6.3898,6.4008,6.4743,6.4951,6.5133,6.5952,6.6426,6.6691,6.6967,6.7276,6.7505,6.7648,6.7562,6.7528,6.7673,6.7403,6.718,6.718,6.7245,6.7297,6.7297,6.7517,6.7811,6.8068,6.765,6.7393,6.7687,6.7247,6.6916,6.6916,6.6916,6.6916,6.6916,6.6916,6.7136,6.7687,6.721,6.7393,6.8471,6.7981,6.7981,6.8508,6.8251,6.8091,6.8091,0.0,0.0,0.0,0.0,0.0,0.0,0.0,0.0,0.0,0.0,0.0,0.0,0.0,0.0,0.0,0.0,0.0,0.0,0.0,0.0,0.0,0.0,0.0,5.5952,5.6418,5.7178,5.7997,5.8756,5.9563,6.037,6.0456,6.0493,6.0529,6.0529,6.1215,6.2793,6.2866,6.3637,6.5288,6.5325,6.5362,6.5398,6.5398,6.5448,6.5461,6.5448,6.5448,6.5461,6.5448,6.5888,6.6623,6.6623,6.7063,6.7774,6.7774,6.7774,6.7627,6.5999,6.5375,6.54,6.54,6.54,6.5413,6.5413,6.5413,6.5516,6.5948,6.6086,6.6178,6.6603,6.6702,6.6739,6.676,6.7409,6.8021,6.8069,6.8692,6.9436,6.9797,7.0176,7.0573,7.0951,7.0919,7.0834,7.0871,6.8613,6.6686,6.6623,6.7247,6.8031,6.8825,6.8935,0.0,7.0,7.011,7.011,7.011,7.011,7.011,7.011,7.011,7.0146,7.0183,7.0183,7.0183,7.0183,7.0146,7.011,7.011,6.9339,6.8935,6.8935,0.0,0.0,0.0,0.0,0.0,0.0,0.0,0.0,0.0,0.0,0.0,0.0,0.0,0.0,0.0,0.0,0.0,0.0,0.0,0.0,0.0,5.9612,5.9391,5.8352,5.8902,5.9501,5.9722,5.9942,6.037,6.119,6.1814,6.2401,6.3025,6.3613,6.415,6.4591,6.4591,6.5068,6.6145,6.6182,6.6733,6.7894,6.7894,6.8378,6.9272,6.893,6.8944,6.9272,6.8954,6.8898,6.9119,6.9119,6.9229,6.9463,6.9463,6.9463,6.9279,6.765,6.7265,6.7568,6.7568,6.7772,6.8144,6.8144,6.8144,6.8167,6.8263,6.8307,6.8441,6.9123,6.9343,6.9568,7.0481,7.0901,7.116,7.152,7.1784,7.1963,7.2099,7.1949,7.1801,7.1938,7.1653,7.1534,7.2145,7.1814,7.0956,6.9384,6.9265,6.9536,6.9743,6.9779,0.0,7.0073,7.011,7.011,7.011,7.011,7.011,7.011,7.0624,7.1197,7.1798,7.1835,7.1835,7.1835,7.127,7.0697,7.011,6.9889,6.9779,0.0,0.0,0.0,0.0,0.0,0.0,0.0,0.0,0.0,0.0,0.0,0.0,0.0,0.0,0.0,0.0,0.0,0.0,0.0,0.0,0.0,0.0,6.0676,6.086,6.0737,6.0811,6.1043,6.1361,6.1741,6.2254,6.3062,6.3563,6.404,6.4567,6.5338,6.5962,6.6292,6.6609,6.7173,6.7981,6.8017,6.8458,6.9376,6.9412,6.9774,7.0513,7.057,7.073,7.1017,7.1085,7.1402,7.1944,7.1944,7.2277,7.2761,7.2761,7.2761,7.2486,0.0,0.0,0.0,0.0,6.9446,6.987,6.987,7.0005,7.0251,7.0441,7.0493,7.0609,7.1299,7.15,7.1701,7.2794,7.3354,7.379,7.4379,7.4813,7.508,7.508,7.4882,7.4686,7.4686,7.4333,7.4142,7.4595,7.4747,0.0,7.3167,7.2483,7.2129,7.2129,7.2129,7.2129,7.2129,7.2129,7.2129,7.2129,7.2129,7.2129,7.2129,7.2518,0.0,0.0,0.0,7.3509,7.3509,7.3068,0.0,0.0,0.0,7.1629,7.1629,7.1284,0.0,0.0,6.9486,6.9412,0.0,0.0,0.0,0.0,0.0,0.0,0.0,0.0,0.0,0.0,0.0,0.0,0.0,0.0,0.0,0.0,6.1337,6.2144,6.2829,6.2401,6.2291,6.3013,6.3759,6.453,6.5215,6.5472,6.5582,6.5582,6.6402,6.721,6.7921,6.8641,0.0,0.0,0.0,7.0478,7.0588,7.073,7.0849,7.0904,7.1559,7.1927,7.1996,7.2664,7.3605,7.4729,7.4729,7.5384,7.6486,7.6486,7.6486,7.6139,7.2375,7.0904,7.0917,7.0984,7.1252,7.1601,7.1601,0.0,0.0,7.279,7.2946,7.3013,7.3419,7.3552,7.3705,7.4431,7.5195,7.5968,7.6647,7.7411,7.8022,7.8022,7.8022,7.8022,7.8022,7.7674,7.7414,7.7528,7.7273,7.709,7.7202,7.6147,7.525,7.5175,7.5235,7.525,7.5175,7.516,7.516,7.516,7.516,0.0,7.516,7.527,7.5307,7.5307,7.5234,7.516,7.516,7.5014,7.4903,7.4903,7.4184,7.3817,7.3817,7.312,7.2789,7.2781,7.1225,7.0513,0.0,0.0,0.0,0.0,0.0,0.0,0.0,0.0,0.0,0.0,0.0,0.0,0.0,0.0,0.0,6.2242,6.3062,6.3662,6.3846,6.4273,6.4628,6.4811,6.4958,6.5141,6.5288,6.6476,6.726,6.726,6.8568,6.9449,6.9646,6.9779,7.0257,7.105,7.2113,7.2995,7.3649,7.4698,7.5464,7.5893,7.564,0.0,7.6135,7.5853,7.5869,7.6117,7.6117,7.624,7.6486,7.6486,7.6486,7.6472,7.6041,7.5893,7.5938,7.6338,7.652,7.6626,7.6626,7.6675,7.6798,7.6864,7.6891,7.69,7.7002,7.7029,0.0,7.722,7.7373,7.7564,7.7717,7.787,7.8022,7.8022,7.8022,7.8022,7.8022,7.792,7.8065,7.8761,7.8535,7.841,7.9052,7.8264,7.741,7.6888,7.7252,7.741,7.6925,7.6848,7.6848,7.6848,7.6848,7.6848,7.6848,7.7488,7.7892,7.7892,7.7215,7.6848,7.6848,7.5601,7.4903,7.4903,7.4757,7.4661,7.4661,7.45,7.45,7.4631,7.3523,7.301,0.0,0.0,0.0,0.0,0.0,0.0,0.0,0.0,0.0,0.0,0.0,6.1728,6.2144,0.0,6.2989,6.3392,6.4163,6.4824,6.5228,6.5999,6.6366,6.5962,6.6256,6.6659,6.705,6.8201,6.8912,6.8912,7.0036,7.0881,7.1284,7.1959,7.2677,7.3476,7.4396,7.5097,7.5496,7.6166,7.6653,7.6881,7.7055,7.7243,7.7512,7.7633,7.7845,7.8089,7.8089,7.8261,7.8489,7.8489,7.8489,7.8548,7.8793,7.8087,7.6915,7.7181,7.7437,7.7655,7.7655,7.778,7.8022,7.8022,7.8022,7.8022,7.8022,7.8022,7.8099,7.8519,7.867,7.8782,7.9203,7.9354,7.9389,7.9389,7.9389,7.938,7.9327,7.9318,7.9414,7.9837,7.9784,7.9838,8.0217,8.0257,7.965,7.7951,7.7946,7.7932,7.7365,7.7289,7.7289,7.7289,7.7289,7.7289,7.7289,7.7693,7.8148,7.8552,7.8185,7.8148,7.8516,7.7781,7.7341,7.7341,7.7417,7.7463,7.7463,7.7554,7.7643,7.7754,7.7238,7.6346,0.0,0.0,0.0,0.0,0.0,0.0,0.0,6.1814,6.2034,6.2683,6.2939,6.305,6.305,6.3759,6.431,6.431,6.5154,6.5999,6.6623,6.7554,6.7921,6.7283,6.7774,6.8435,6.9082,6.9853,7.0403,7.055,7.1321,7.2171,7.3072,7.4148,7.5086,7.5824,7.6516,7.6902,7.6902,7.7145,7.7266,7.7266,7.7934,7.8235,7.8273,7.894,7.9449,7.9874,7.9874,8.0119,8.0506,8.0506,8.0515,8.0534,8.0515,7.9183,7.7334,7.7289,7.7538,7.7921,7.7921,7.8179,7.8481,7.8499,7.8508,7.8508,7.8526,7.8535,7.8688,7.9385,7.9639,7.9807,8.0449,8.0741,8.0792,8.0792,8.0792,8.0775,8.0658,8.0641,8.0614,8.058,8.0722,8.0845,8.0866,8.1463,8.1135,7.8915,7.867,7.8527,7.7874,7.7803,7.7803,7.7803,7.7803,7.7803,7.7803,7.7803,7.8112,7.8819,7.8709,7.8929,7.957,7.9491,7.9491,7.9606,7.9725,7.9891,8.0076,8.0213,8.0325,8.0355,8.0503,7.9416,6.0382,6.0933,6.163,6.2352,6.2536,6.2572,0.0,6.2683,6.2683,6.2793,6.3429,6.3943,6.3943,6.4604,6.5191,6.5191,6.6439,6.748,6.7554,6.8875,6.9779,6.9706,6.9779,6.9853,6.9963,7.0697,7.1454,7.2165,7.2973,7.4004,7.5284,7.5477,7.5828,7.639,7.7606,7.8274,7.8274,7.9444,8.0039,8.0039,8.0144,8.0182,8.0182,8.0297,8.0364,8.0402,8.0402,8.043,8.0506,8.0506,8.0523,8.0587,8.0505,8.0409,8.0319,8.0106,8.0106,8.0144,8.0144,8.0163,8.0219,8.0301,8.029,8.0346,8.0472,8.0498,8.0498,8.0613,8.0652,8.066,8.0737,8.0784,8.0792,8.0792,8.0792,8.0792,8.0784,8.0775,8.0775,8.0767,8.0699,8.0675,8.0794,8.0778,8.0684,8.0386,8.0725,8.0671,7.9642,7.9522,7.9522,7.9522,7.9522,7.9522,7.9522,7.9522,7.9606,7.982,7.9173,7.8805,7.8915,7.8352,7.8293,7.8894,7.9045,7.9504,8.028,8.0295,8.0348,8.0481,8.1222,8.0963,6.1655,6.2022,6.2401,6.2719,6.2793,6.2793,6.2793,6.3196,6.3576,6.3576,6.4237,6.4787,6.4787,6.5448,6.6145,6.6623,6.765,6.8653,6.9414,7.0476,7.1215,7.1215,7.2331,7.2502,7.0951,7.2231,7.3299,7.3632,7.4697,7.5766,7.6805,7.7164,7.765,7.8323,7.9205,7.9685,7.9705,8.0286,8.0578,8.0679,8.0679,8.0643,8.056,8.0652,8.0679,8.067,8.0578,8.0587,8.067,8.0578,8.0614,8.0693,8.0697,8.0723,8.0775,8.0605,8.0625,8.0679,8.0679,8.0679,8.0688,8.0723,8.0732,8.0741,8.0784,8.0792,8.0792,8.0792,8.0835,8.0868,8.0868,8.091,8.0989,8.0989,8.0989,8.0934,8.0885,8.0868,8.086,8.0801,8.0758,8.0749,8.0784,8.1188,8.1356,8.1039,8.0525,7.9791,7.8788,7.866,7.866,7.866,7.9065,7.9323,7.9323,7.9802,8.0312,8.0853,8.0573,8.0573,8.1037,8.036,8.0065,8.0373,8.0503,8.0741,8.1111,8.1696,8.203,8.2089,8.2423,8.2357,6.2646,6.2793,6.2793,6.2793,6.2976,6.316,6.316,6.3833,6.442,6.442,6.5081,6.5618,6.5618,6.6292,6.71,6.7921,6.8813,6.9803,7.0957,7.1951,7.2646,7.292,7.4344,7.4683,7.2955,7.4157,7.5119,7.538,7.6268,7.7271,7.8264,7.869,7.924,7.9982,8.0364,8.0625,8.065,8.065,8.0685,8.0792,8.0792,8.0758,8.0658,8.0767,8.0792,8.0792,8.0685,8.0847,8.1137,8.1068,8.1209,8.1525,8.15,8.1517,8.1551,8.1418,8.1141,8.0792,8.0792,8.0792,8.0801,8.0818,8.0826,8.0835,8.086,8.0868,8.0868,8.0868,8.091,8.0959,8.0959,8.1045,8.1093,8.1093,8.1093,8.1115,8.1244,8.1305,8.1327,8.1538,8.1542,8.1534,8.1559,8.208,8.2332,8.1813,8.0915,7.9953,7.9003,7.8749,7.8687,7.8687,7.9083,7.9372,7.9372,7.9941,8.0547,8.1183,8.122,8.1479,8.2055,8.1583,8.1362,8.1538,8.1704,8.1904,8.2127,8.2839,8.3195,8.3195,8.3195,8.3195,6.2793,6.2793,6.2793,6.2793,6.3429,6.4066,6.4066,6.4677,6.5251,6.5251,6.5888,6.6476,6.6476,6.71,6.7921,6.8752,6.9932,7.1032,7.1849,7.3079,7.4269,7.5197,7.537,7.5728,7.6557,7.654,7.6763,7.7539,7.7626,7.8313,7.975,7.9858,8.0151,8.0758,8.0784,8.0784,8.0792,8.0792,8.0792,8.0792,8.0792,8.0792,8.0792,8.0792,8.0792,8.0792,8.0792,8.1291,8.2066,8.2066,8.2578,8.3423,8.3261,8.3329,8.3508,8.3418,8.2297,8.0792,8.0792,8.0792,8.0809,8.0893,8.088,8.0934,8.1061,8.1085,8.1085,8.1085,8.1085,8.1093,8.1093,8.1093,8.1093,8.1093,8.1093,8.1323,8.2093,8.2247,8.2516,8.3362,8.3451,8.3418,8.35,8.349,8.3299,8.2894,8.2808,8.2495,8.167,8.1193,8.0888,8.0888,8.0508,8.0273,8.0273,8.0273,8.037,8.0533,8.0533,8.0533,8.057,8.0679,8.1028,8.1682,8.1881,8.2363,8.3143,8.3195,8.3195,8.3195,8.3195,8.3195,6.2793,6.3196,6.3649,6.3649,6.4273,6.4897,6.4897,6.5521,6.6109,6.6109,6.6995,6.7765,6.7765,6.8233,6.9066,7.0397,7.0999,7.2056,7.4338,7.507,7.5721,7.6634,7.753,7.8113,7.8114,7.8059,7.8159,7.8413,7.9241,7.9963,8.0467,8.0514,8.0587,8.0792,8.0792,8.0818,8.0877,8.0877,8.091,8.1005,8.091,8.1179,8.1774,8.1755,8.207,8.2666,8.2608,8.277,8.3089,8.3069,8.3248,8.3553,8.3528,8.3553,8.3593,8.3569,8.319,8.2666,8.2666,8.2666,8.2674,8.266,8.2707,8.2715,8.2747,8.2747,8.2747,8.2747,8.2747,8.2747,8.2747,8.2747,8.2747,8.2747,8.2747,8.2832,8.3101,8.3178,8.3255,8.3524,8.3577,8.3569,8.3593,8.4077,8.4557,8.4972,8.3533,8.232,8.2051,8.1879,8.1668,8.138,8.1682,8.1769,8.1444,8.1919,8.2245,8.2289,8.2289,8.2289,8.2289,8.1828,8.168,8.1896,8.1977,8.2117,8.2415,8.2935,8.3195,8.3195,8.3195,8.3195,6.316,6.3686,6.4176,6.4457,6.5118,6.5742,6.5742,6.6366,6.6982,6.7141,6.7827,6.8455,6.8607,6.8893,6.9616,7.1231,7.167,7.283,7.5645,7.6255,7.6883,7.8065,7.9032,7.9587,7.9624,7.9635,7.9607,7.9543,8.0325,8.0809,8.0843,8.0843,8.086,8.0923,8.0932,8.0918,8.0975,8.1244,8.1614,8.1977,8.1922,8.2199,8.2747,8.2737,8.3045,8.3593,8.3544,8.3745,8.4055,8.4036,8.4198,8.4478,8.4478,8.4478,8.4478,8.4478,8.4478,8.4409,8.3793,8.3601,8.3601,8.3601,8.3601,8.3601,8.3601,8.3601,8.3601,8.3601,8.3601,8.3601,8.3601,8.3601,8.3601,8.3601,8.3601,8.3678,8.3978,8.4055,8.4132,8.4439,8.4478,8.4478,8.4478,8.4978,8.5517,8.6017,8.4661,8.3605,8.3605,8.3434,8.3144,8.2671,8.2924,8.2947,8.2458,8.2898,8.3195,8.3195,8.3195,8.3195,8.3195,8.2712,8.2415,8.2415,8.2712,8.286,8.286,8.3678,8.4035,8.4035,8.4035,8.4168,6.3908,6.4189,6.4433,6.5191,6.5975,6.6589,6.6589,6.7216,6.7902,6.8346,6.8467,6.8621,6.9047,6.9144,6.9692,7.1308,7.2074,7.3317,7.5873,7.6703,7.7735,7.9544,7.9752,8.0129,8.1008,8.1093,8.1029,8.0818,8.0809,8.0843,8.0926,8.0896,8.0967,8.1093,8.1131,8.117,8.117,8.1939,8.2793,8.3601,8.3601,8.364,8.3678,8.3678,8.3678,8.3717,8.3717,8.4209,8.497,8.497,8.5393,8.6094,8.6094,8.6094,8.6094,8.6094,8.6094,8.5863,8.4286,8.3717,8.3717,8.3717,8.3717,8.3717,8.3717,8.3717,8.3717,8.3717,8.3717,8.3717,8.3717,8.3717,8.3717,8.3717,8.3717,8.3939,8.4786,8.497,8.5201,8.5931,8.6094,8.6094,8.6094,8.6094,8.6094,8.6094,8.6094,8.6094,8.6094,8.5711,8.5266,8.4731,8.423,8.376,8.3239,8.3195,8.3195,8.3195,8.3195,8.3195,8.3195,8.3195,8.3195,8.3195,8.4012,8.4406,8.4406,8.5231,8.5655,8.5655,8.5685,8.5949,6.4412,6.5189,6.5925,6.6145,6.7045,6.7901,6.7901,6.8354,6.8769,6.8893,6.9187,6.9494,6.9604,6.9872,7.0659,7.2415,7.2834,7.4045,7.7288,7.7908,7.8683,8.0389,8.0683,8.0838,8.1093,8.1093,8.1077,8.1029,8.1029,8.1037,8.1061,8.1061,8.1069,8.1093,8.167,8.1977,8.1977,8.2832,8.337,8.3601,8.3601,8.3939,8.4555,8.4555,8.4901,8.5478,8.5478,8.5593,8.5786,8.5786,8.5901,8.6094,8.6094,8.6094,8.6094,8.6094,8.6094,8.6055,8.5593,8.5478,8.5478,8.5478,8.5478,8.5478,8.5478,8.5478,8.5478,8.5478,8.5478,8.5478,8.5478,8.5478,8.5478,8.5478,8.5478,8.5517,8.5747,8.5786,8.5863,8.6055,8.6094,8.6094,8.6094,8.6094,8.6094,8.6094,8.6094,8.6094,8.6094,8.6009,8.5618,8.4803,8.4557,8.4142,8.3283,8.3195,8.3195,8.3195,8.3195,8.3195,8.3195,8.3195,8.3195,8.3195,8.4012,8.4406,8.4406,8.5596,8.6195,8.6209,8.6602,8.687,6.5526,6.6284,6.6824,6.6982,6.7713,6.8406,6.8406,6.8757,6.9155,6.9344,6.9613,6.9834,7.0038,7.0311,7.1065,7.2813,7.3145,7.4397,7.7859,7.8399,7.9069,8.0791,8.1061,8.1093,8.1093,8.1093,8.1093,8.1093,8.1093,8.1093,8.1093,8.1439,8.1631,8.1631,8.2439,8.3054,8.3439,8.3939,8.4362,8.4709,8.4709,8.4939,8.5431,8.5431,8.567,8.6094,8.6094,8.6094,8.6094,8.6094,8.6094,8.6094,8.6094,8.6094,8.6094,8.6094,8.6094,8.6094,8.6094,8.6094,8.6094,8.6094,8.6094,8.6094,8.6094,8.6094,8.6094,8.6094,8.6094,8.6094,8.6094,8.6094,8.6094,8.6094,8.6094,8.6094,8.6094,8.6094,8.6094,8.6094,8.6094,8.6094,8.6094,8.6094,8.6094,8.6094,8.6094,8.6094,8.6094,8.6094,8.5831,8.511,8.481,8.4391,8.3592,8.3508,8.3433,8.321,8.362,8.3747,8.3522,8.3508,8.3508,8.3508,8.4292,8.489,8.5277,8.6621,8.7461,8.7813,8.8127,8.8378,6.6771,6.728,6.7419,6.765,6.8096,6.8502,6.8502,6.8915,6.9395,6.9787,6.9919,7.0038,7.0378,7.0614,7.129,7.2884,7.3308,7.4635,7.7954,7.8477,7.9138,8.09,8.1093,8.1093,8.1093,8.1208,8.1246,8.1246,8.1362,8.1362,8.1285,8.2016,8.2516,8.2631,8.3362,8.417,8.5055,8.5047,8.5401,8.6094,8.6094,8.6094,8.6094,8.6094,8.6094,8.6094,8.6094,8.6094,8.6094,8.6094,8.6094,8.6094,8.6094,8.6094,8.6094,8.6094,8.6094,8.6094,8.6094,8.6094,8.6094,8.6094,8.6094,8.6094,8.6094,8.6094,8.6094,8.6094,8.6094,8.6094,8.6094,8.6094,8.6094,8.6094,8.6094,8.6094,8.6094,8.6094,8.6094,8.6094,8.6094,8.6094,8.6094,8.6094,8.6094,8.6094,8.6094,8.6132,8.6247,8.617,8.5919,8.5456,8.5143,8.4758,8.4229,8.4252,8.4168,8.3782,8.4569,8.4826,8.4353,8.4327,8.4327,8.4327,8.5117,8.5906,8.6685,8.8015,8.9014,8.9709,8.978,9.0071,6.6872,6.7627,6.8124,6.776,6.8346,6.897,6.897,6.9663,7.0336,7.0281,7.0443,7.0539,7.0561,7.1198,7.2088,7.3116,7.3883,7.5349,7.8108,7.8477,7.9138,8.09,8.1093,8.1093,8.1093,8.1708,8.2093,8.2093,8.2747,8.287,8.2131,8.2909,8.3708,8.4439,8.4593,8.5055,8.5901,8.5893,8.5978,8.6094,8.6094,8.6094,8.6094,8.6094,8.6094,8.6094,8.6094,8.6094,8.6094,8.6094,8.6094,8.6094,8.6094,8.6094,8.6094,8.6094,8.6094,8.6094,8.6094,8.6094,8.6094,8.6094,8.6094,8.6094,8.6094,8.6094,8.6094,8.6094,8.6094,8.6094,8.6094,8.6094,8.6094,8.6094,8.6094,8.6094,8.6094,8.6094,8.6094,8.6094,8.6094,8.6094,8.6094,8.6094,8.6094,8.6094,8.6094,8.6363,8.7094,8.6555,8.5919,8.5456,8.5986,8.6148,8.5588,8.6196,8.6577,8.6491,8.6649,8.6708,8.6625,8.6613,8.6613,8.6613,8.7408,8.79,8.8077,8.9417,9.0132,9.0258,9.0732,9.0971,6.7004,6.8137,6.8948,6.8222,6.8757,6.9446,6.9446,7.0055,7.0569,7.0522,7.0624,7.0815,7.1268,7.1712,7.2478,7.3775,7.4357,7.5547,7.813,7.8484,7.9138,8.09,8.1093,8.1093,8.1093,8.1823,8.2285,8.2285,8.3516,8.3901,8.3024,8.3785,8.467,8.5517,8.5517,8.5709,8.6094,8.6094,8.6094,8.6094,8.6094,8.6094,8.6094,8.6094,8.6094,8.6094,8.6094,8.6094,8.6094,8.6094,8.6363,8.6786,8.6786,8.7055,8.744,8.744,8.744,8.744,8.744,8.744,8.744,8.744,8.6824,8.6094,8.6094,8.6094,8.6094,8.6094,8.6094,8.6094,8.6094,8.6094,8.6094,8.6094,8.6094,8.6094,8.6094,8.6094,8.6094,8.6094,8.6094,8.6094,8.6094,8.6094,8.6247,8.6709,8.6786,8.7094,8.794,8.7709,8.738,8.7127,8.7226,8.7236,8.6948,8.7318,8.7474,8.7222,8.7671,8.7867,8.7585,8.7536,8.7425,8.7161,8.7794,8.8212,8.8412,8.9582,9.0388,9.082,9.1082,9.121,6.7023,6.8329,6.9377,6.8708,6.9176,6.9816,6.9816,7.0226,7.0615,7.0615,7.0823,7.1205,7.1888,7.2378,7.3089,7.4427,7.4817,7.5784,7.8176,7.8484,7.9138,8.09,8.1093,8.117,8.1323,8.2093,8.267,8.2824,8.4286,8.4863,8.417,8.4786,8.544,8.6094,8.6094,8.6094,8.6094,8.6094,8.6094,8.6094,8.6094,8.6094,8.6094,8.6094,8.6094,8.6094,8.6094,8.6209,8.6363,8.6363,8.6901,8.7671,8.7671,8.8094,8.8718,8.8718,8.8718,8.8718,8.8718,8.8718,8.8718,8.8718,8.7786,8.6671,8.6671,8.6671,8.6671,8.6671,8.6517,8.6363,8.6363,8.6247,8.6094,8.6094,8.6094,8.6094,8.6094,8.6094,8.6094,8.6094,8.6094,8.617,8.6363,8.6363,8.6671,8.7555,8.7671,8.7979,8.8863,8.8949,8.9017,8.9218,8.8681,8.8336,8.8336,8.8489,8.8464,8.8074,8.8807,8.9048,8.8624,8.8604,8.8364,8.7805,8.821,8.851,8.8639,8.9579,9.0355,9.1046,9.1046,9.1046,6.69,6.7878,6.8679,6.8967,6.9443,6.9816,6.9816,7.0226,7.0615,7.0615,7.1329,7.2016,7.2092,7.338,7.45,7.4654,7.5353,7.6476,7.8253,7.8484,7.9138,8.09,8.1093,8.14,8.2131,8.2986,8.3824,8.4593,8.547,8.594,8.5863,8.594,8.6017,8.6094,8.6094,8.6094,8.6094,8.6094,8.6094,8.6094,8.6094,8.6094,8.6094,8.6094,8.6094,8.6094,8.6094,8.6555,8.7286,8.7286,8.7786,8.8564,8.8564,8.8641,8.8718,8.8718,8.8718,8.8718,8.8718,8.8718,8.8718,8.8718,8.8603,8.8449,8.8449,8.8449,8.8449,8.8449,8.7902,8.7286,8.7286,8.6709,8.6094,8.6094,8.6094,8.6094,8.6094,8.6094,8.6094,8.6094,8.6094,8.6363,8.7132,8.7286,8.7594,8.8449,8.8564,8.8863,8.9701,8.9778,9.0086,9.0902,9.0213,8.9725,8.9725,9.0426,9.087,9.0843,9.0905,9.0962,9.0888,9.0888,9.0627,9.012,9.0152,8.9958,8.9499,9.0067,9.0388,9.0464,9.0464,9.0464,6.6482,6.8012,6.9617,6.952,6.989,7.0286,7.0286,7.0499,7.073,7.073,7.1478,7.2318,7.2856,7.3916,7.4853,7.5399,7.5784,7.6592,7.8253,7.8484,7.9138,8.09,8.1093,8.14,8.2208,8.3101,8.417,8.5517,8.594,8.6094,8.6094,8.6094,8.6094,8.6094,8.6094,8.6094,8.6094,8.6094,8.6094,8.6094,8.6094,8.6094,8.6094,8.6094,8.6094,8.6132,8.6671,8.7094,8.744,8.7979,8.8671,8.944,8.944,8.9748,9.021,9.021,9.021,9.021,9.021,9.021,9.021,9.021,9.021,9.0017,8.9026,8.8718,8.8718,8.8718,8.8449,8.8179,8.8179,8.794,8.7671,8.7671,8.7671,8.7671,8.7671,8.7671,8.7671,8.7671,8.7671,8.7786,8.8141,8.8179,8.844,8.9286,8.944,8.9748,9.0547,9.0663,9.0816,9.1171,9.0902,9.0663,9.0663,9.1018,9.121,9.121,9.121,9.121,9.121,9.121,9.0952,9.0412,9.0732,9.0454,8.9613,9.0149,9.0225,8.9908,8.9908,8.9908,6.6596,6.8279,7.0047,6.9979,7.0294,7.0615,7.0615,7.0693,7.0842,7.1132,7.1912,7.2794,7.3699,7.4546,7.5284,7.5899,7.6015,7.6592,7.8253,7.8484,7.9138,8.09,8.1093,8.1516,8.2593,8.3678,8.4824,8.6017,8.6094,8.6094,8.6094,8.6094,8.6094,8.6094,8.6094,8.6094,8.6094,8.6094,8.6094,8.6094,8.6094,8.6094,8.6094,8.6094,8.6094,8.617,8.7017,8.7555,8.7863,8.8709,8.9556,9.0278,9.0278,9.0663,9.121,9.121,9.121,9.121,9.121,9.121,9.121,9.121,9.121,9.0979,8.9787,8.944,8.944,8.944,8.9248,8.8979,8.8756,8.8718,8.8718,8.8718,8.8718,8.8718,8.8718,8.8718,8.8718,8.8718,8.8718,8.8795,8.9017,8.9056,8.9325,9.0163,9.0278,9.0509,9.1133,9.121,9.121,9.121,9.121,9.121,9.121,9.121,9.121,9.121,9.121,9.121,9.121,9.121,9.0952,9.0412,9.0615,9.0258,8.9377,8.9733,8.9733,8.9364,8.9364,8.9288,6.7411,6.8518,6.9387,7.022,7.0514,7.0615,7.0615,7.0655,7.0968,7.1893,7.2714,7.3574,7.4493,7.5399,7.5976,7.6015,7.6015,7.6592,7.8253,7.8484,7.9138,8.09,8.1093,8.1747,8.3409,8.5093,8.6094,8.6094,8.6094,8.6094,8.6094,8.6094,8.6094,8.6094,8.6094,8.6094,8.6094,8.6094,8.6094,8.6094,8.6094,8.6094,8.6094,8.6094,8.6094,8.617,8.7017,8.7902,8.8756,8.9556,9.0393,9.121,9.121,9.121,9.121,9.121,9.121,9.121,9.121,9.121,9.121,9.121,9.121,9.121,9.1171,9.1171,9.1171,9.1171,9.0547,8.9701,8.891,8.8718,8.8718,8.8718,8.8718,8.8718,8.8718,8.8718,8.8718,8.8718,8.8718,8.894,8.9739,8.9893,9.0163,9.1056,9.121,9.121,9.121,9.121,9.121,9.121,9.121,9.121,9.121,9.121,9.121,9.121,9.121,9.121,9.121,9.121,9.0952,9.0412,8.9874,8.9352,8.8804,8.8804,8.8804,8.8804,8.8804,8.8567,6.7693,6.8944,7.0083,7.0445,7.0608,7.0685,7.0737,7.0779,7.1105,7.1979,7.2825,7.3709,7.4546,7.5399,7.6015,7.6015,7.6015,7.6592,7.8253,7.8484,7.9138,8.09,8.2093,8.3024,8.3563,8.5132,8.6094,8.6094,8.6094,8.6094,8.6094,8.6094,8.6094,8.6094,8.6094,8.6094,8.6094,8.6094,8.6094,8.6094,8.6094,8.6094,8.6094,8.6094,8.644,8.7055,8.7902,8.8748,8.9594,9.0441,9.0941,9.121,9.121,9.121,9.121,9.121,9.121,9.121,9.121,9.121,9.121,9.121,9.121,9.121,9.121,9.121,9.121,9.121,9.1018,9.0748,9.0479,9.0402,9.0402,9.0402,9.0402,9.0402,9.0402,9.0402,9.0402,9.0402,9.0402,9.0479,9.074,9.0778,9.0902,9.1171,9.121,9.121,9.121,9.121,9.121,9.121,9.121,9.121,9.121,9.121,9.121,9.121,9.121,9.121,9.121,9.0839,9.0584,9.0402,8.9862,8.9339,8.879,8.879,8.863,8.8316,8.8316,8.8247,6.8405,6.951,7.0435,7.0554,7.0647,7.0737,7.0772,7.085,7.1245,7.2437,7.3129,7.3853,7.4976,7.563,7.6015,7.6015,7.6015,7.6592,7.8253,7.8484,7.9138,8.09,8.2593,8.3601,8.3601,8.5132,8.6094,8.6094,8.6094,8.6094,8.6094,8.6094,8.6094,8.6094,8.6094,8.6094,8.6094,8.6094,8.6094,8.6094,8.6094,8.6094,8.6094,8.6094,8.6594,8.744,8.8333,8.9171,0.0,9.0825,9.121,9.121,9.121,9.121,9.121,9.121,9.121,9.121,9.121,9.121,9.121,9.121,9.121,9.121,9.121,9.121,9.121,9.121,9.121,9.121,9.121,9.121,9.121,9.121,9.121,9.121,9.121,9.121,9.121,9.121,9.121,9.121,9.121,9.121,9.121,9.121,9.121,9.121,9.121,9.121,9.121,9.121,9.121,9.121,9.121,9.121,9.121,9.121,9.121,9.121,9.121,9.0858,9.0615,9.0412,8.9862,8.9339,8.879,8.8601,8.8369,8.8084,8.8084,8.8084,0.0,7.0118,7.0435,7.0561,7.0655,7.0737,7.0779,7.0888,0.0,7.3161,7.3546,7.4084,7.5707,7.6015,7.6015,7.6015,7.6015,7.6592,7.8253,7.86,7.9292,8.09,8.2593,8.3601,8.3601,8.5132,8.6094,8.6094,8.6094,8.6094,8.6094,8.6094,8.6094,8.6094,8.6094,8.6094,8.6094,8.6094,8.6094,8.6094,8.6094,8.6094,8.6094,8.6094,8.6594,8.7555,8.8372,8.9171,9.0047,9.0855,9.121,9.121,9.121,9.121,9.121,9.121,9.121,9.121,9.121,9.121,9.121,9.121,9.121,9.121,9.121,9.121,9.121,9.121,9.121,9.121,9.121,9.121,9.121,9.121,9.121,9.121,9.121,9.121,9.121,9.121,9.121,9.121,9.121,9.121,9.121,9.121,9.121,9.1171,9.1133,9.1171,9.1171,9.1133,9.1171,9.121,9.121,9.121,9.121,9.121,9.121,9.121,9.121,9.1145,9.0924,9.0412,8.9862,8.9339,8.879,8.8376,8.8131,8.8084,8.8084,8.8084,6.9997,0.0,7.0451,7.0647,7.07,7.0714,0.0,7.1385,7.2206,7.3276,7.4007,7.4738,7.5784,7.6015,7.6015,7.6015,7.6015,7.6592,7.8253,7.9638,8.0631,8.1054,8.2593,8.3601,8.3601,8.5132,8.6094,8.6094,8.6094,8.6094,8.6094,8.6094,8.6094,8.6094,8.6094,8.6094,8.6094,8.6094,8.6094,8.6094,8.6094,8.6094,8.6094,8.6094,8.694,8.841,8.8603,8.9517,9.0893,9.1133,9.121,9.121,9.121,9.121,9.121,9.121,9.121,9.121,9.121,9.121,9.121,9.121,9.121,9.121,9.121,9.121,9.121,9.121,9.121,9.121,9.121,9.121,9.121,9.121,9.121,9.121,9.121,9.121,9.121,9.121,9.121,9.121,9.121,9.121,9.121,9.121,9.121,9.0979,9.0278,9.0778,9.0941,9.0278,9.0778,9.121,9.121,9.121,9.121,9.121,9.121,9.121,9.121,9.08,9.0516,9.0402,8.9862,8.9339,8.879,8.8687,8.8458,8.8084,8.8084,8.8084,7.0239,7.0475,7.0546,7.0685,7.0707,7.0758,7.0871,7.1552,7.2437,7.3315,7.4123,7.4976,7.5822,7.6015,7.6015,7.6015,7.6322,7.7169,7.8861,8.0246,8.1093,8.1093,8.2593,8.3601,8.3601,8.5132,8.6094,8.6094,8.6094,8.6094,8.6094,8.6094,8.6094,8.6094,8.6094,8.6094,8.6094,8.6094,8.6094,8.6094,8.6094,8.6094,8.6094,8.6094,8.6824,8.8141,8.8526,8.9402,9.0624,9.1056,9.121,9.121,9.121,9.121,9.121,9.121,9.121,9.121,9.121,9.121,9.121,9.121,9.121,9.121,9.121,9.121,9.121,9.121,9.121,9.121,9.121,9.121,9.121,9.121,9.121,9.121,9.121,9.121,9.121,9.121,9.121,9.1056,9.0663,9.0586,9.047,9.0094,9.0056,8.9863,8.9402,8.9748,8.9863,8.9402,8.9787,9.021,9.0547,9.0586,9.0787,9.1171,9.121,9.121,9.121,9.0934,9.0645,9.0412,8.9637,8.9079,8.879,8.8596,8.8361,8.8084,8.8084,8.8084,7.0369,7.0608,7.0639,7.0715,7.0743,7.0808,7.0885,7.1668,7.2591,7.3353,7.4238,7.5123,7.5861,7.6015,7.6015,7.6015,7.6823,7.8015,7.9585,8.0554,8.1093,8.1093,8.2593,8.3601,8.3601,8.5132,8.6094,8.6094,8.6094,8.6094,8.6094,8.6094,8.6094,8.6094,8.6094,8.6094,8.6094,8.6094,8.6094,8.6094,8.6094,8.6094,8.6094,8.6094,8.6594,8.744,8.8333,8.9171,8.997,9.0825,9.121,9.121,9.121,9.121,9.121,9.121,9.121,9.121,9.121,9.121,9.121,9.121,9.121,9.121,9.121,9.121,9.121,9.121,9.121,9.121,9.121,9.121,9.1171,9.1018,9.1018,9.0979,9.0825,9.0825,9.0825,9.0825,9.0825,9.0594,8.9855,8.9701,8.9479,8.8795,8.8718,8.8641,8.8526,8.8641,8.8641,8.8526,8.8641,8.8979,8.9663,8.9701,9.0086,9.0941,9.1133,9.121,9.121,9.121,9.098,9.0516,8.9625,8.9118,8.9025,8.8639,8.8406,8.8316,8.8247,8.8202,7.0413,7.0745,7.0758,7.0772,7.0779,7.0808,7.0885,7.2168,7.3353,7.3469,7.4738,7.5822,7.5976,7.6015,7.6015,7.6015,7.7284,7.8669,7.9662,8.0554,8.1093,8.1093,8.2593,8.3601,8.3601,8.5132,8.6094,8.6094,8.6094,8.6094,8.6094,8.6094,8.6094,8.6094,8.6094,8.6094,8.6094,8.6094,8.6094,8.6094,8.6094,8.6094,8.6094,8.6094,8.6594,8.744,8.8333,8.9171,8.997,9.0825,9.121,9.121,9.121,9.121,9.121,9.121,9.121,9.121,9.121,9.121,9.121,9.121,9.121,9.121,9.121,9.121,9.121,9.121,9.121,9.121,9.121,9.121,9.1018,9.0278,9.0086,8.9893,8.921,8.9103,8.9103,8.9103,8.9103,8.9026,8.891,8.8863,8.8825,8.8718,8.8718,8.8449,8.7671,8.8256,8.841,8.7671,8.8256,8.8756,8.8872,8.8863,8.9248,9.0047,9.0778,9.121,9.121,9.121,9.1145,9.1082,9.0924,9.0605,9.0149,9.0082,8.9792,8.9352,8.89,8.8701,7.0547,7.0794,7.085,7.085,7.085,7.0972,7.1468,7.2591,7.3623,7.4046,7.513,7.6015,7.6015,7.6015,7.6284,7.7215,7.84,7.9515,8.04,8.0862,8.1093,8.1093,8.2593,8.3601,8.3601,8.5132,8.6094,8.6094,8.6094,8.6094,8.6094,8.6094,8.6094,8.6094,8.6094,8.6094,8.6094,8.6094,8.6094,8.6094,8.6094,8.6094,8.6094,8.6094,8.6594,8.744,8.8333,8.9171,8.997,9.0825,9.121,9.121,9.121,9.121,9.121,9.121,9.121,9.121,9.121,9.121,9.121,9.121,9.121,9.121,9.121,9.121,9.121,9.121,9.121,9.121,9.121,9.0855,9.0393,9.0009,8.9547,8.9133,8.8795,8.8718,8.8718,8.8718,8.8718,8.8564,8.8064,8.7987,8.7825,8.7363,8.7286,8.7132,8.6748,8.7055,8.7132,8.6748,8.7055,8.7478,8.794,8.7987,8.8556,8.9816,9.0701,9.121,9.121,9.121,9.121,9.121,9.0924,9.0645,9.0402,8.9804,8.9402,8.9145,8.863,8.8414,7.0517,7.0808,7.0937,7.1168,7.1206,7.136,7.2059,7.3014,7.3969,7.4584,7.5399,7.6015,7.6015,7.6169,7.6861,7.8523,7.9361,8.0085,8.0977,8.1093,8.1093,8.1093,8.2593,8.3601,8.3601,8.5132,8.6094,8.6094,8.6094,8.6094,8.6094,8.6094,8.6094,8.6094,8.6094,8.6094,8.6094,8.6094,8.6094,8.6094,8.6094,8.6094,8.6094,8.6094,8.6594,8.744,8.8333,8.9171,8.997,9.0825,9.121,9.121,9.121,9.121,9.121,9.121,9.121,9.121,9.121,9.121,9.121,9.121,9.121,9.121,9.121,9.121,9.1171,9.0941,9.0902,9.0902,9.0902,9.0248,8.9547,8.9355,8.8825,8.8333,8.8141,8.8094,8.8094,8.8094,8.8094,8.7872,8.7209,8.7094,8.6863,8.6209,8.6094,8.6094,8.6094,8.6094,8.6094,8.6094,8.6094,8.6363,8.7055,8.7286,8.794,8.9239,9.0316,9.0902,9.0902,9.1095,9.121,9.121,9.08,9.0594,9.0594,8.9757,8.9352,8.9339,8.8855,8.8575,7.0158,7.0608,7.1091,7.1905,7.2098,7.2136,7.2175,7.3437,7.4623,7.47,7.5399,7.6015,7.6015,7.6669,7.7746,7.9438,7.9738,8.0085,8.0977,8.1093,8.1093,8.1093,8.2593,8.3601,8.3601,8.5132,8.6094,8.6094,8.6094,8.6094,8.6094,8.6094,8.6094,8.6094,8.6094,8.6094,8.6094,8.6094,8.6094,8.6094,8.6094,8.6094,8.6094,8.6094,8.6594,8.744,8.8333,8.9171,8.997,9.0825,9.121,9.121,9.121,9.121,9.121,9.121,9.121,9.121,9.121,9.121,9.121,9.121,9.121,9.121,9.121,9.121,9.1018,9.0201,8.997,8.997,8.997,8.9402,8.8603,8.7786,8.7555,8.7286,8.6478,8.6286,8.6286,8.6286,8.6286,8.6286,8.6209,8.6209,8.617,8.6094,8.6094,8.6094,8.6094,8.6094,8.6094,8.6094,8.6094,8.6132,8.6209,8.694,8.744,8.7555,8.9086,8.997,8.997,9.0787,9.121,9.121,9.1145,9.1127,9.1127,9.1073,9.1046,9.0998,9.0464,8.9981,7.02,7.0593,7.1091,7.1982,7.2591,7.3129,7.363,7.386,7.4238,7.5284,7.5361,7.5515,7.6592,7.7938,7.9054,7.97,8.0246,8.0708,8.1054,8.1093,8.1093,8.1093,8.2593,8.3601,8.3601,8.5132,8.6094,8.6094,8.6094,8.6094,8.6094,8.6094,8.6094,8.6094,8.6094,8.6094,8.6094,8.6094,8.6094,8.6094,8.6094,8.6094,8.6094,8.6094,8.6863,8.8218,8.8564,8.944,9.074,9.1056,9.121,9.121,9.121,9.121,9.121,9.121,9.121,9.121,9.121,9.121,9.121,9.121,9.121,9.121,9.121,9.0816,9.0316,8.997,8.9162,8.8479,8.9017,8.8517,8.7825,8.7478,8.6978,8.6517,8.617,8.6094,8.6094,8.6094,8.6094,8.6094,8.6094,8.6094,8.6094,8.6094,8.6094,8.6094,8.6094,8.6094,8.6094,8.6094,8.6094,8.6094,8.6094,8.6401,8.6594,8.6594,8.8209,8.9133,8.9133,8.9479,8.9863,9.0393,9.0393,9.0663,9.121,9.0886,9.0684,9.0674,9.016,8.9792,7.0255,7.0784,7.1514,7.2399,7.3245,7.4007,7.4584,7.4469,7.4623,7.5745,7.5745,7.6053,7.7784,7.9015,7.9892,8.0162,8.0708,8.1093,8.1093,8.1093,8.1093,8.1093,8.2324,8.3293,8.3563,8.4901,8.5824,8.6094,8.6094,8.6094,8.6094,8.6094,8.6094,8.6094,8.6094,8.6094,8.6094,8.6094,8.6094,8.6094,8.6094,8.6094,8.6094,8.6094,8.7055,8.8718,8.8718,8.9633,9.121,9.121,9.121,9.121,9.121,9.121,9.121,9.121,9.121,9.121,9.121,9.121,9.121,9.121,9.1018,9.0778,9.0778,9.021,8.947,8.921,8.8286,8.7478,8.7786,8.744,8.6978,8.6978,8.6517,8.6094,8.6094,8.6094,8.6094,8.6094,8.6094,8.6094,8.6094,8.6094,8.6094,8.6094,8.6094,8.6094,8.6094,8.6094,8.6094,8.6094,8.6094,8.6094,8.6094,8.6094,8.6094,8.6094,8.7209,8.7987,8.8295,8.8564,8.8949,8.9517,8.9778,9.0201,9.0778,9.0704,9.0645,9.0645,9.0258,8.9999,7.015,7.1252,7.2399,7.3276,7.4123,7.47,7.47,7.5361,7.5976,7.6015,7.6707,7.7823,7.9469,7.9815,8.0085,8.0977,8.1093,8.1093,8.1093,8.1093,8.1093,8.1093,8.1823,8.2631,8.3486,8.4362,8.5239,8.6017,8.6094,8.6094,8.6094,8.6094,8.6094,8.6094,8.6094,8.6094,8.6094,8.6094,8.6094,8.6094,8.6094,8.6094,8.6094,8.6094,8.7055,8.8718,8.8718,8.9633,9.121,9.121,9.121,9.121,9.121,9.121,9.121,9.121,9.121,9.121,9.121,9.121,9.121,9.121,9.0586,8.9893,8.9893,8.9325,8.8526,8.7632,8.7401,8.7171,8.6324,8.6094,8.6094,8.6094,8.6094,8.6094,8.6094,8.6094,8.6094,8.6094,8.6094,8.6094,8.6094,8.6094,8.6094,8.6094,8.6094,8.6094,8.6094,8.6094,8.6094,8.6094,8.6094,8.6094,8.6094,8.6094,8.6094,8.6094,8.6094,8.6478,8.7363,8.8218,8.8679,8.8679,8.9479,8.9893,8.9893,9.074,9.121,9.121,9.121,9.0924,7.0997,7.1705,7.2559,7.3969,7.4507,7.4861,7.5476,7.5361,7.5245,7.5861,7.763,7.9208,7.97,8.0285,8.0785,8.1054,8.1093,8.1093,8.1093,8.1093,8.1093,8.1093,8.1823,8.2401,8.267,8.4016,8.5008,8.5239,8.5778,8.6094,8.6094,8.6094,8.6094,8.6094,8.6094,8.6094,8.6094,8.6094,8.6094,8.6094,8.6094,8.6094,8.6094,8.6094,8.7055,8.8718,8.8718,8.9633,9.121,9.121,9.121,9.121,9.121,9.121,9.121,9.121,9.121,9.121,9.121,9.0778,9.0278,9.0278,8.9748,8.9056,8.9056,8.844,8.7709,8.7478,8.6978,8.644,8.617,8.6094,8.6094,8.6094,8.6094,8.6094,8.6094,8.6094,8.6094,8.6094,8.6094,8.6094,8.6094,8.6094,8.6094,8.6094,8.6094,8.6094,8.6094,8.6094,8.6094,8.6094,8.6094,8.6094,8.6094,8.6094,8.6094,8.6094,8.6094,8.6209,8.6478,8.6748,8.7171,8.7786,8.8017,8.844,8.9056,8.9902,9.0278,9.0316,9.0893,9.1109,7.1551,7.2262,7.3053,7.4353,7.4969,7.5438,7.6322,7.6092,7.6053,7.7246,7.8746,7.9892,8.0246,8.0746,8.1093,8.1093,8.1093,8.1093,8.1093,8.1093,8.1093,8.1093,8.1516,8.1939,8.2285,8.3247,8.417,8.4854,8.5363,8.5747,8.6094,8.6094,8.6094,8.6094,8.6094,8.6094,8.6094,8.6094,8.6094,8.6094,8.6094,8.6094,8.6094,8.6094,8.6863,8.8218,8.8902,8.994,9.121,9.121,9.121,9.121,9.121,9.121,9.121,9.121,9.121,9.1171,9.0778,9.0355,8.9855,8.9517,8.8863,8.8179,8.8179,8.7555,8.6863,8.6863,8.6517,8.6094,8.6094,8.6094,8.6094,8.6094,8.6094,8.6094,8.6094,8.6094,8.6094,8.6094,8.6094,8.6094,8.6094,8.6094,8.6094,8.6094,8.6094,8.6094,8.6094,8.6094,8.6094,8.6094,8.6094,8.6094,8.6094,8.6094,8.6094,8.6094,8.6094,8.6094,8.6094,8.6094,8.6363,8.6863,8.7209,8.7671,8.8179,8.9017,8.944,8.944,9.0278,9.0663,7.2059,7.3014,7.3815,7.4623,7.5476,7.6322,7.7138,7.7407,7.7938,7.9469,7.9854,8.0162,8.0939,8.1093,8.1093,8.1093,8.1093,8.1093,8.1093,8.1093,8.1093,8.1093,8.1093,8.14,8.2131,8.2247,8.2978,8.4555,8.4816,8.5209,8.5931,8.6055,8.6094,8.6094,8.6094,8.6094,8.6094,8.6094,8.6094,8.6094,8.6094,8.6094,8.6094,8.6094,8.6594,8.7478,8.9162,9.0355,9.1095,9.1171,9.121,9.121,9.121,9.121,9.121,9.1133,9.1095,9.0979,9.0086,8.9739,8.9547,8.8825,8.7987,8.7286,8.7286,8.6748,8.6094,8.6094,8.6094,8.6094,8.6094,8.6094,8.6094,8.6094,8.6094,8.6094,8.6094,8.6094,8.6094,8.6094,8.6094,8.6094,8.6094,8.6094,8.6094,8.6094,8.6094,8.6094,8.6094,8.6094,8.6094,8.6094,8.6094,8.6094,8.6094,8.6094,8.6094,8.6094,8.6094,8.6094,8.6094,8.6094,8.6094,8.6094,8.6863,8.7286,8.7286,8.8179,8.8564,8.8603,8.9402,8.9778,7.3724,7.4322,7.4661,7.5515,7.6361,7.7061,7.7253,7.8323,7.9361,7.9738,8.0323,8.09,8.1054,8.1093,8.1093,8.1093,8.1093,8.1093,8.1093,8.1093,8.1093,8.1093,8.1093,8.117,8.1323,8.1939,8.2439,8.2824,8.4132,8.497,8.5162,8.5747,8.6094,8.6094,8.6094,8.6094,8.6094,8.6094,8.6094,8.6094,8.6094,8.6094,8.6094,8.6094,8.6594,8.7478,8.9162,9.0009,9.0239,9.0932,9.121,9.121,9.121,9.121,9.1133,9.0432,9.0163,9.0047,8.9248,8.8517,8.7902,8.7748,8.7094,8.6363,8.6363,8.6247,8.6094,8.6094,8.6094,8.6094,8.6094,8.6094,8.6094,8.6094,8.6094,8.6094,8.6094,8.6094,8.6094,8.6094,8.6094,8.6094,8.6094,8.6094,8.6094,8.6094,8.6094,8.6094,8.6094,8.6094,8.6094,8.6094,8.6094,8.6094,8.6094,8.6094,8.6094,8.6094,8.6094,8.6094,8.6094,8.6094,8.6094,8.6094,8.6286,8.6363,8.6363,8.7248,8.7671,8.7709,8.8556,8.8949,7.4353,7.47,7.4892,7.5784,7.6938,7.7869,7.7869,7.9208,8.0439,8.0439,8.0785,8.1093,8.1093,8.1093,8.1093,8.1093,8.1093,8.1093,8.1093,8.1093,8.1093,8.1093,8.1093,8.1093,8.1093,8.1477,8.19,8.2285,8.3131,8.4016,8.4854,8.5277,8.5709,8.6094,8.6094,8.6094,8.6094,8.6094,8.6094,8.6094,8.6094,8.6094,8.6094,8.6094,8.6594,8.744,8.8325,8.894,8.9363,8.9825,9.0017,9.0017,9.0017,9.0017,8.994,8.9479,8.9325,8.921,8.8363,8.7786,8.7325,8.6901,8.6478,8.6094,8.6094,8.6094,8.6094,8.6094,8.6094,8.6094,8.6094,8.6094,8.6094,8.6094,8.6094,8.6094,8.6094,8.6094,8.6094,8.6094,8.6094,8.6094,8.6094,8.6094,8.6094,8.6094,8.6094,8.6094,8.6094,8.6094,8.6094,8.6094,8.6094,8.6094,8.6094,8.6094,8.6094,8.6094,8.6094,8.6094,8.6094,8.6094,8.6094,8.6094,8.6094,8.6094,8.6094,8.6555,8.6786,8.6786,8.7671,8.8064,7.47,7.4938,7.5046,7.563,7.7053,7.8292,7.8292,7.9631,8.0939,8.1054,8.1093,8.1093,8.1093,8.1093,8.1093,8.1093,8.1093,8.1093,8.1093,8.1093,8.1093,8.1093,8.1093,8.1093,8.1093,8.1093,8.1362,8.2054,8.2208,8.2939,8.4362,8.4739,8.5201,8.5863,8.6017,8.6094,8.6094,8.6094,8.6094,8.6094,8.6094,8.6094,8.6094,8.6094,8.6478,8.7171,8.7325,8.7825,8.8487,8.8641,8.8718,8.8718,8.8718,8.8718,8.8679,8.8526,8.8487,8.8372,8.7478,8.7171,8.7055,8.6324,8.6094,8.6094,8.6094,8.6094,8.6094,8.6094,8.6094,8.6094,8.6094,8.6094,8.6094,8.6094,8.6094,8.6094,8.6094,8.6094,8.6094,8.6094,8.6094,8.6094,8.6094,8.6094,8.6094,8.6094,8.6094,8.6094,8.6094,8.6094,8.6094,8.6094,8.6094,8.6094,8.6094,8.6094,8.6094,8.6094,8.6094,8.6094,8.6094,8.6094,8.6094,8.6094,8.6094,8.6094,8.6094,8.6094,8.6094,8.6132,8.6824,8.7171,7.5592,7.5822,7.5668,7.5014,7.6169,7.7445,7.7445,7.8746,8.0208,8.0939,8.1093,8.1093,8.1093,8.1093,8.1093,8.1093,8.1093,8.1093,8.1093,8.1093,8.1093,8.1093,8.1093,8.1093,8.1093,8.1093,8.1131,8.1246,8.19,8.2401,8.2631,8.4093,8.4931,8.5047,8.5747,8.6094,8.6094,8.6094,8.6094,8.6094,8.6094,8.6094,8.6094,8.6094,8.617,8.6324,8.7055,8.7478,8.7632,8.841,8.8718,8.8718,8.8718,8.8718,8.8603,8.7863,8.7555,8.744,8.6594,8.6286,8.6247,8.6132,8.6094,8.6094,8.6094,8.6094,8.6094,8.6094,8.6094,8.6094,8.6094,8.6094,8.6094,8.6094,8.6094,8.6094,8.6094,8.6094,8.6094,8.6094,8.6094,8.6094,8.6094,8.6094,8.6094,8.6094,8.6094,8.6094,8.6094,8.6094,8.6094,8.6094,8.6094,8.6094,8.6094,8.6094,8.6094,8.6094,8.6094,8.6094,8.6094,8.6094,8.6094,8.6094,8.6094,8.6094,8.6094,8.6094,8.6094,8.6094,8.6209,8.6286,7.5899,7.6015,7.5899,7.5515,7.6361,7.7407,7.7869,7.89,8.0046,8.0939,8.1093,8.1093,8.1093,8.1093,8.1093,8.1093,8.1093,8.1093,8.1093,8.1093,8.1093,8.1093,8.1093,8.1093,8.1093,8.1093,8.1093,8.1093,8.1439,8.1823,8.2285,8.3478,8.4401,8.4893,8.567,8.6094,8.6094,8.6094,8.6094,8.6094,8.6094,8.6094,8.6094,8.6094,8.6094,8.6132,8.6517,8.6671,8.6709,8.7094,8.7248,8.7248,8.7248,8.7248,8.7209,8.6824,8.6671,8.6632,8.6247,8.6094,8.6094,8.6094,8.6094,8.6094,8.6094,8.6094,8.6094,8.6094,8.6094,8.6094,8.6094,8.6094,8.6094,8.6094,8.6094,8.6094,8.6094,8.6094,8.6094,8.6094,8.6094,8.6094,8.6094,8.6094,8.6094,8.6094,8.6094,8.6094,8.6094,8.6094,8.6094,8.6094,8.6094,8.6094,8.6094,8.6094,8.6094,8.6094,8.6094,8.6094,8.6094,8.6094,8.6094,8.6094,8.6094,8.6094,8.6094,8.6094,8.6094,8.6094,8.6094,8.6094,7.6015,7.6015,7.6015,7.6015,7.6476,7.7176,7.8023,7.8861,7.9708,8.0592,8.0939,8.1093,8.1093,8.1093,8.1093,8.1093,8.1093,8.1093,8.1093,8.1093,8.1093,8.1093,8.1093,8.1093,8.1093,8.1093,8.1093,8.1093,8.1093,8.1362,8.1939,8.2824,8.367,8.4555,8.5363,8.5893,8.6094,8.6094,8.6094,8.6094,8.6094,8.6094,8.6094,8.6094,8.6094,8.6094,8.6094,8.6094,8.6094,8.6094,8.6094,8.6094,8.6094,8.6094,8.6094,8.6094,8.6094,8.6094,8.6094,8.6094,8.6094,8.6094,8.6094,8.6094,8.6094,8.6094,8.6094,8.6094,8.6094,8.6094,8.6094,8.6094,8.6094,8.6094,8.6094,8.6094,8.6094,8.6094,8.6094,8.6094,8.6094,8.6094,8.6094,8.6094,8.6094,8.6094,8.6094,8.6094,8.6094,8.6094,8.6094,8.6094,8.6094,8.6094,8.6094,8.6094,8.6094,8.6094,8.6094,8.6094,8.6094,8.6094,8.6094,8.6094,8.6094,8.6094,8.6094,8.6094,8.6094,8.6094,8.6094,8.6094,7.6015,7.6015,7.6015,7.6015,7.6015,7.6284,7.7176,7.7984,7.883,7.9708,8.0516,8.1093,8.1093,8.1093,8.1093,8.1093,8.1093,8.1093,8.1093,8.1093,8.1093,8.1093,8.1093,8.1093,8.1093,8.1093,8.1093,8.1093,8.1093,8.1131,8.117,8.1939,8.2755,8.364,8.4516,8.5316,8.6094,8.6094,8.6094,8.6094,8.6094,8.6094,8.6094,8.6094,8.6094,8.6094,8.6094,8.6094,8.6094,8.6094,8.6094,8.6094,8.6094,8.6094,8.6094,8.6094,8.6094,8.6094,8.6094,8.6094,8.6094,8.6094,8.6094,8.6094,8.6094,8.6094,8.6094,8.6094,8.6094,8.6094,8.6094,8.6094,8.6094,8.6094,8.6094,8.6094,8.6094,8.6094,8.6094,8.6094,8.6094,8.6094,8.6094,8.6094,8.6094,8.6094,8.6094,8.6094,8.6094,8.6094,8.6094,8.6094,8.6094,8.6094,8.6094,8.6094,8.6094,8.6094,8.6094,8.6094,8.6094,8.6094,8.6094,8.6094,8.6094,8.6094,8.6094,8.6094,8.6094,8.6094,8.6094,8.6094,7.6015,7.6015,7.6015,7.6015,7.6015,7.6245,7.7099,7.7522,7.8138,7.9515,8.0046,8.0439,8.1016,8.1093,8.1093,8.1093,8.1093,8.1093,8.1093,8.1093,8.1093,8.1093,8.1093,8.1093,8.1093,8.1093,8.1093,8.1093,8.1093,8.1093,8.1093,8.1862,8.2439,8.2747,8.417,8.5286,8.6094,8.6094,8.6094,8.6094,8.6094,8.6094,8.6094,8.6094,8.6094,8.6094,8.6094,8.6094,8.6094,8.6094,8.6094,8.6094,8.6094,8.6094,8.6094,8.6094,8.6094,8.6094,8.6094,8.6094,8.6094,8.6094,8.6094,8.6094,8.6094,8.6094,8.6094,8.6094,8.6094,8.6094,8.6094,8.6094,8.6094,8.6094,8.6094,8.6094,8.6094,8.6094,8.6094,8.6094,8.6094,8.6094,8.6094,8.6094,8.6094,8.6094,8.6094,8.6094,8.6094,8.6094,8.6094,8.6094,8.6094,8.6094,8.6094,8.6094,8.6094,8.6094,8.6094,8.6094,8.6094,8.6094,8.6094,8.6094,8.6094,8.6094,8.6094,8.6094,8.6094,8.6094,8.6094,8.6094,7.6015,7.6015,7.6015,7.6015,7.6015,7.613,7.6746,7.7099,7.7638,7.8746,7.94,7.9969,8.0554,8.09,8.1093,8.1093,8.1093,8.1093,8.1093,8.1093,8.1093,8.1093,8.1093,8.1093,8.1093,8.1093,8.1093,8.1093,8.1093,8.1093,8.1093,8.1593,8.217,8.2716,8.4132,8.5286,8.6094,8.6094,8.6094,8.6094,8.6094,8.6094,8.6094,8.6094,8.6094,8.6094,8.6094,8.6094,8.6094,8.6094,8.6094,8.6094,8.6094,8.6094,8.6094,8.6094,8.6094,8.6094,8.6094,8.6094,8.6094,8.6094,8.6094,8.6094,8.6094,8.6094,8.6094,8.6094,8.6094,8.6094,8.6094,8.6094,8.6094,8.6094,8.6094,8.6094,8.6094,8.6094,8.6094,8.6094,8.6094,8.6094,8.6094,8.6094,8.6094,8.6094,8.6094,8.6094,8.6094,8.6094,8.6094,8.6094,8.6094,8.6094,8.6094,8.6094,8.6094,8.6094,8.6094,8.6094,8.6094,8.6094,8.6094,8.6094,8.6094,8.6094,8.6094,8.6094,8.6094,8.6094,8.6094,8.6094,0.0,0.0,0.0,7.6015,7.6015,7.6015,7.6015,7.663,7.7292,7.7292,7.8592,7.9738,7.9738,8.0477,8.1054,8.1054,8.1093,8.1093,8.1093,8.1093,8.1093,8.1093,8.1093,8.1093,8.1093,8.1093,8.1093,8.1093,8.1093,8.1093,8.1093,8.1093,8.1862,8.3524,8.4401,8.5239,8.6055,8.6094,8.6094,8.6094,8.6094,8.6094,8.6094,8.6094,8.6094,8.6094,8.6094,8.6094,8.6094,8.6094,8.6094,8.6094,8.6094,8.6094,8.6094,8.6094,8.6094,8.6094,8.6094,8.6094,8.6094,8.6094,8.6094,8.6094,8.6094,8.6094,8.6094,8.6094,8.6094,8.6094,8.6094,8.6094,8.6094,8.6094,8.6094,8.6094,8.6094,8.6094,8.6094,8.6094,8.6094,8.6094,8.6094,8.6094,8.6094,8.6094,8.6094,8.6094,8.6094,8.6094,8.6094,8.6094,8.6094,8.6094,8.6094,8.6094,8.6094,8.6094,8.6094,8.6094,8.6094,8.6094,8.6094,8.6094,8.6094,8.6094,8.6094,8.6094,8.6094,8.6094,8.6094,8.6094,7.6015,0.0,0.0,0.0,0.0,0.0,7.6015,7.6207,7.6553,7.7176,7.7676,7.8169,7.8746,7.9554,8.0162,8.0162,8.0708,8.1093,8.1093,8.1093,8.1093,8.1093,8.1093,8.1093,8.1093,8.1093,8.1093,8.1093,8.1093,8.1093,8.1093,8.1093,8.1593,8.2631,8.3524,8.4362,8.5209,8.5824,8.6094,8.6094,8.6094,8.6094,8.6094,8.6094,8.6094,8.6094,8.6094,8.6094,8.6094,8.6094,8.6094,8.6094,8.6094,8.6094,8.6094,8.6094,8.6094,8.6094,8.6094,8.6094,8.6094,8.6094,8.6094,8.6094,8.6094,8.6094,8.6094,8.6094,8.6094,8.6094,8.6094,8.6094,8.6094,8.6094,8.6094,8.6094,8.6094,8.6094,8.6094,8.6094,8.6094,8.6094,8.6094,8.6094,8.6094,8.6094,8.6094,8.6094,8.6094,8.6094,8.6094,8.6094,8.6094,8.6094,8.6094,8.6094,8.6094,8.6094,8.6094,8.6094,8.6094,8.6094,8.6094,8.6094,8.6094,8.6094,8.6094,8.6094,8.6094,8.6094,8.6094,8.6094,0.0,0.0,7.6015,7.6015,0.0,0.0,7.6015,7.6015,7.613,7.663,7.7061,7.7445,7.7907,7.8669,7.9246,7.9246,7.9977,8.0669,8.1054,8.1093,8.1093,8.1093,8.1093,8.1093,8.1093,8.1093,8.1093,8.1093,8.1093,8.1093,8.1093,8.1093,8.1477,8.2285,8.2785,8.3478,8.4362,8.517,8.5585,8.5585,8.594,8.6094,8.6094,8.6094,8.6094,8.6094,8.6094,8.6094,8.6094,8.6094,8.6094,8.6094,8.6094,8.6094,8.6094,8.6094,8.6094,8.6094,8.6094,8.6094,8.6094,8.6094,8.6094,8.6094,8.6094,8.6094,8.6094,8.6094,8.6094,8.6094,8.6094,8.6094,8.6094,8.6094,8.6094,8.6094,8.6094,8.6094,8.6094,8.6094,8.6094,8.6094,8.6094,8.6094,8.6094,8.6094,8.6094,8.6094,8.6094,8.6094,8.6094,8.6094,8.6094,8.6094,8.6094,8.6094,8.6094,8.6094,8.6094,8.6094,8.6094,8.6094,8.6094,8.6094,8.6094,8.6094,8.6094,8.6094,8.6094,8.6094,8.6094,8.6094,0.0,0.0,0.0,0.0,7.6015,0.0,7.6015,7.6015,7.6015,7.6015,7.663,7.7176,7.7176,7.783,7.8407,7.8484,7.9131,7.9977,8.0823,8.1054,8.1093,8.1093,8.1093,8.1093,8.1093,8.1093,8.1093,8.1093,8.1093,8.1093,8.1093,8.1093,8.1439,8.2131,8.2247,8.267,8.3447,8.4324,8.4777,8.4893,8.5632,8.6017,8.6094,8.6094,8.6094,8.6094,8.6094,8.6094,8.6094,8.6094,8.6094,8.6094,8.6094,8.6094,8.6094,8.6094,8.6094,8.6094,8.6094,8.6094,8.6094,8.6094,8.6094,8.6094,8.6094,8.6094,8.6094,8.6094,8.6094,8.6094,8.6094,8.6094,8.6094,8.6094,8.6094,8.6094,8.6094,8.6094,8.6094,8.6094,8.6094,8.6094,8.6094,8.6094,8.6094,8.6094,8.6094,8.6094,8.6094,8.6094,8.6094,8.6094,8.6094,8.6094,8.6094,8.6094,8.6094,8.6094,8.6094,8.6094,8.6094,8.6094,8.6094,8.6094,8.6094,8.6094,8.6094,8.6094,8.6094,8.6094,8.6094,8.6094,0.0,0.0,0.0,0.0,0.0,0.0,7.6015,7.6015,7.6015,7.6015,7.613,7.6245,7.6245,7.6938,7.7753,7.8407,7.8638,7.9054,7.9939,8.0669,8.1093,8.1093,8.1093,8.1093,8.1093,8.1093,8.1093,8.1093,8.1093,8.1093,8.1093,8.1093,8.117,8.1323,8.1939,8.2362,8.2554,8.3409,8.4209,8.4893,8.5047,8.547,8.6094,8.6094,8.6094,8.6094,8.6094,8.6094,8.6094,8.6094,8.6094,8.6094,8.6094,8.6094,8.6094,8.6094,8.6094,8.6094,8.6094,8.6094,8.6094,8.6094,8.6094,8.6094,8.6094,8.6094,8.6094,8.6094,8.6094,8.6094,8.6094,8.6094,8.6094,8.6094,8.6094,8.6094,8.6094,8.6094,8.6094,8.6094,8.6094,8.6094,8.6094,8.6094,8.6094,8.6094,8.6094,8.6094,8.6094,8.6094,8.6094,8.6094,8.6094,8.6094,8.6094,8.6094,8.6094,8.6094,8.6094,8.6094,8.6094,8.6094,8.6094,8.6094,8.6094,8.6094,8.6094,8.6094,8.6094,8.6094,8.6094,8.6094,0.0,0.0,0.0,7.6015,0.0,0.0,0.0,7.6015,7.6015,7.6015,7.6015,7.6015,7.6015,7.6361,7.6784,7.7169,7.7946,7.8523,7.8554,7.9669,8.0631,8.1054,8.1093,8.1093,8.1093,8.1093,8.1093,8.1093,8.1093,8.1093,8.1093,8.1093,8.1093,8.1093,8.1477,8.1708,8.1708,8.2516,8.317,8.3593,8.4055,8.4478,8.4863,8.5286,8.5517,8.5517,8.594,8.6094,8.6094,8.6094,8.6094,8.6094,8.6094,8.6094,8.6094,8.6094,8.6094,8.6094,8.6094,8.6094,8.6094,8.6094,8.6094,8.6094,8.6094,8.6094,8.6094,8.6094,8.6094,8.6094,8.6094,8.6094,8.6094,8.6094,8.6094,8.6094,8.6094,8.6094,8.6094,8.6094,8.6094,8.6094,8.6094,8.6094,8.6094,8.6094,8.6094,8.6094,8.6094,8.6094,8.6094,8.6094,8.6094,8.6094,8.6094,8.6094,8.6094,8.6094,8.6094,8.6094,8.6094,8.6094,8.6094,8.6094,8.6094,8.6094,8.6094,8.6094,8.6094,8.6094,8.6094,8.6094,0.0,0.0,0.0,0.0,0.0,7.6015,0.0,0.0,0.0,7.6015,7.6015,7.6015,7.6015,7.6015,7.5938,7.5784,7.7022,7.7792,7.7138,7.8361,7.9631,8.0516,8.09,8.1016,8.0862,8.1016,8.1093,8.1093,8.1093,8.1093,8.1093,8.1093,8.1093,8.1093,8.1093,8.1093,8.1093,8.1747,8.2131,8.2324,8.3024,8.3447,8.364,8.4324,8.467,8.4709,8.5324,8.5632,8.5632,8.5632,8.5632,8.5632,8.5978,8.6094,8.6094,8.6094,8.6094,8.6094,8.6094,8.6094,8.6094,8.6094,8.6094,8.6094,8.6094,8.6094,8.6094,8.6094,8.6094,8.6094,8.6094,8.6094,8.6094,8.6094,8.6094,8.6094,8.6094,8.6094,8.6094,8.6094,8.6094,8.6094,8.6094,8.6094,8.6094,8.6094,8.6094,8.6094,8.6094,8.6094,8.6094,8.6094,8.6094,8.6094,8.6094,8.6094,8.6094,8.6094,8.6094,8.6094,8.6094,8.6094,8.6094,8.6094,8.6094,8.6094,8.6094,8.6094,8.6094,8.6094,8.6094,8.6094,0.0,0.0,0.0,0.0,7.6015,0.0,7.6015,0.0,7.6015,7.6015,0.0,7.6015,7.6015,0.0,0.0,7.4976,7.5668,7.6245,7.6169,7.6976,7.7907,7.8715,8.0169,8.0785,8.0015,8.0669,8.1093,8.1093,8.1093,8.1093,8.1093,8.1093,8.1093,8.1093,8.1093,8.1093,8.1093,8.1208,8.1593,8.2285,8.2401,8.287,8.3601,8.3717,8.3755,8.3755,8.3832,8.387,8.387,8.387,8.387,8.4024,8.5517,8.6094,8.6094,8.6094,8.6094,8.6094,8.6094,8.6094,8.6094,8.6094,8.6094,8.6094,8.6094,8.6094,8.6094,8.6094,8.6094,8.6094,8.6094,8.6094,8.6094,8.6094,8.6094,8.6094,8.6094,8.6094,8.6094,8.6094,8.6094,8.6094,8.6094,8.6094,8.6094,8.6094,8.6094,8.6094,8.6094,8.6094,8.6094,8.6094,8.6094,8.6094,8.6094,8.6094,8.6094,8.6094,8.6094,8.6094,8.6094,8.6094,8.6094,8.6094,8.6094,8.6094,8.6094,8.6094,8.6094,8.6094,8.6094,8.6094,0.0,0.0,0.0,0.0,0.0,0.0,7.6015,0.0,7.6015,0.0,0.0,0.0,0.0,0.0,0.0,0.0,7.6207,7.6592,7.6053,7.7138,7.8138,7.8446,7.9592,8.04,8.0554,8.09,8.1093,8.1093,8.1093,8.1093,8.1093,8.1093,8.1093,8.1093,8.1093,8.1093,8.1093,8.1093,8.1285,8.1593,8.1593,8.1785,8.217,8.2631,8.287,8.2862,8.337,8.3601,8.3601,8.3601,8.3601,8.3678,8.4371,8.4978,8.5401,8.5401,8.5709,8.6094,8.6094,8.6094,8.6094,8.6094,8.6094,8.6094,8.6094,8.6094,8.6094,8.6094,8.6094,8.6094,8.6094,8.6094,8.6094,8.6094,8.6094,8.6094,8.6094,8.6094,8.6094,8.6094,8.6094,8.6094,8.6094,8.6094,8.6094,8.6094,8.6094,8.6094,8.6094,8.6094,8.6094,8.6094,8.6094,8.6094,8.6094,8.6094,8.6094,8.6094,8.6094,8.6094,8.6094,8.6094,8.6094,8.6094,8.6094,8.6094,8.6094,8.6094,8.6094,8.6094,8.6094,8.6094,7.6015,0.0,0.0,0.0,0.0,0.0,0.0,0.0,0.0,0.0,0.0,0.0,0.0,0.0,0.0,0.0,0.0,7.6553,7.5476,7.6746,7.783,7.783,7.8592,7.9554,8.0631,8.0746,8.0823,8.1093,8.1093,8.1093,8.1093,8.1093,8.1093,8.1093,8.1093,8.1093,8.1093,8.1093,8.1093,8.1093,8.1093,8.1093,8.1131,8.1708,8.1977,8.2016,8.2631,8.2909,8.2909,8.2909,8.2909,8.2909,8.2909,8.3439,8.4209,8.4478,8.4901,8.5401,8.5401,8.5401,8.544,8.5709,8.5778,8.5824,8.6017,8.6094,8.6094,8.6094,8.6094,8.6094,8.6094,8.6094,8.6094,8.6094,8.6094,8.6094,8.6094,8.6094,8.6094,8.6094,8.6094,8.6094,8.6094,8.6094,8.6094,8.6094,8.6094,8.6094,8.6094,8.6094,8.6094,8.6094,8.6094,8.6094,8.6094,8.6094,8.6094,8.6094,8.6094,8.6094,8.6094,8.6094,8.6094,8.6094,8.6094,8.6094,8.6094,8.6094,8.6094,8.6094,8.6094,8.6094,0.0,0.0,0.0,7.6015,0.0,0.0,0.0,0.0,7.6015,0.0,0.0,0.0,0.0,0.0,0.0,0.0,0.0,0.0,0.0,7.5014,7.6092,7.6092,7.6861,7.8015,7.9669,7.9854,8.0208,8.1054,8.1093,8.1093,8.1093,8.1093,8.1093,8.1093,8.1093,8.1093,8.1093,8.1093,8.1093,8.1093,8.1093,8.1093,8.1093,8.1131,8.1131,8.1131,8.117,8.117,8.117,8.117,8.117,8.117,8.117,8.167,8.2477,8.3332,8.3678,8.3678,8.3678,8.3678,8.3832,8.467,8.4931,8.5085,8.5863,8.6094,8.6094,8.6094,8.6094,8.6094,8.6094,8.6094,8.6094,8.6094,8.6094,8.6094,8.6094,8.6094,8.6094,8.6094,8.6094,8.6094,8.6094,8.6094,8.6094,8.6094,8.6094,8.6094,8.6094,8.6094,8.6094,8.6094,8.6094,8.6094,8.6094,8.6094,8.6094,8.6094,8.6094,8.6094,8.6094,8.6094,8.6094,8.6094,8.6094,8.6094,8.6094,8.6094,8.6094,8.6094,8.6094,8.6094,0.0,0.0,7.6015,7.6015,0.0,0.0,0.0,0.0,0.0,0.0,0.0,0.0,0.0,0.0,0.0,0.0,0.0,0.0,0.0,7.563,7.6015,7.6015,7.6784,7.7715,7.8823,7.9477,7.9931,8.0208,8.0785,8.1093,8.1093,8.1093,8.1093,8.1093,8.1093,8.1093,8.1093,8.1093,8.1093,8.1093,8.1093,8.1093,8.1093,8.1093,8.1093,8.1093,8.1093,8.1093,8.1093,8.1093,8.1093,8.1093,8.1093,8.1285,8.1593,8.2439,8.3101,8.3601,8.3601,8.3601,8.364,8.3939,8.4055,8.4209,8.5055,8.5316,8.5431,8.5931,8.6094,8.6094,8.6094,8.6094,8.6094,8.6094,8.6094,8.6094,8.6094,8.6094,8.6094,8.6094,8.6094,8.6094,8.6094,8.6094,8.6094,8.6094,8.6094,8.6094,8.6094,8.6094,8.6094,8.6094,8.6094,8.6094,8.6094,8.6094,8.6094,8.6094,8.6094,8.6094,8.6094,8.6094,8.6094,8.6094,8.6094,8.6094,8.6094,8.6094,8.6094,8.6094,8.6094,8.6094,7.6015,7.6015,0.0,7.6015,7.6015,0.0,7.6015,0.0,7.6015,0.0,0.0,0.0,0.0,0.0,0.0,0.0,0.0,0.0,0.0,7.6015,7.6015,7.6015,7.6515,7.7292,7.8407,7.9015,7.9592,8.0208,8.0785,8.1093,8.1093,8.1093,8.1093,8.1093,8.1093,8.1093,8.1093,8.1093,8.1093,8.1093,8.1093,8.1093,8.1093,8.1093,8.1093,8.1093,8.1093,8.1093,8.1093,8.1093,8.1093,8.1093,8.1093,8.1093,8.117,8.167,8.2208,8.2716,8.2716,8.2716,8.2747,8.3024,8.3139,8.3293,8.417,8.4439,8.467,8.5786,8.5893,8.5824,8.6401,8.6324,8.6094,8.6094,8.6094,8.6094,8.6094,8.6094,8.6094,8.6094,8.6094,8.6094,8.6094,8.6094,8.6094,8.6094,8.6094,8.6094,8.6094,8.6094,8.6094,8.6094,8.6094,8.6094,8.6094,8.6094,8.6094,8.6094,8.6094,8.6094,8.6094,8.6094,8.6247,8.6555,8.6247,8.6247,8.6555,8.6247,8.6094,8.6094,8.6094,8.6094]}]]